[[{"header":{"parameterUnit":"m.s-1","parameterCategory":1,"la1":30.6,"la2":29.2853,"lo1":-89.7004,"lo2":-87.6739,"dy":0.0162,"dx":0.0183,"nx":112,"ny":82,"refTime":"2023-11-11T06:00:00:Z","depth":0,"parameterNumber":2,"parameterNumberName":"U-component_of_WINDS"},"data":[0.0,0.0,0.0,0.0,0.0,0.0,0.0,0.0,0.0,0.0,0.0,0.0,0.0,0.0,0.0,0.0,0.0,0.0,0.0,0.0,0.0,0.0,0.0,0.0,0.0,0.0,0.0,0.0,0.0,0.0,0.0,0.0,0.0,0.0,0.0,0.0,0.0,0.0,0.0,0.0,0.0,0.0,0.0,0.0,0.0,0.0,0.0,0.0,0.0,0.0,0.0,0.0,0.0,0.0,0.0,0.0,0.0,0.0,0.0,0.0,0.0,0.0,0.0,0.0,0.0,0.0,0.0,0.0,0.0,0.0,0.0,0.0,0.0,0.0,0.0,0.0,0.0,0.0,0.0,0.0,0.0,0.0,0.0,0.0,0.0,0.0,0.0,0.0,0.0,0.0,3.3486,3.4658,3.4746,3.4505,3.3956,3.2961,3.198,3.1044,0.0,0.0,0.0,0.0,0.0,0.0,0.0,0.0,0.0,0.0,0.0,0.0,0.0,0.0,0.0,0.0,0.0,0.0,0.0,0.0,0.0,0.0,0.0,0.0,0.0,0.0,0.0,0.0,0.0,0.0,0.0,0.0,0.0,0.0,0.0,0.0,0.0,0.0,0.0,0.0,0.0,0.0,0.0,0.0,0.0,0.0,0.0,0.0,0.0,0.0,0.0,0.0,0.0,0.0,0.0,0.0,0.0,0.0,0.0,0.0,0.0,0.0,0.0,0.0,0.0,0.0,0.0,0.0,0.0,0.0,0.0,0.0,0.0,0.0,0.0,0.0,0.0,0.0,0.0,0.0,0.0,0.0,0.0,0.0,0.0,0.0,0.0,0.0,0.0,0.0,0.0,0.0,0.0,0.0,0.0,0.0,0.0,0.0,0.0,0.0,0.0,0.0,0.0,0.0,3.3742,3.3728,3.3587,3.3609,3.397,3.3455,3.2763,3.1882,0.0,0.0,0.0,0.0,0.0,0.0,0.0,0.0,0.0,0.0,0.0,0.0,0.0,0.0,0.0,0.0,0.0,0.0,0.0,0.0,0.0,0.0,0.0,0.0,0.0,0.0,0.0,0.0,0.0,0.0,0.0,0.0,0.0,0.0,0.0,0.0,0.0,0.0,0.0,0.0,0.0,0.0,0.0,0.0,0.0,0.0,0.0,0.0,0.0,0.0,0.0,0.0,0.0,0.0,0.0,0.0,0.0,0.0,0.0,0.0,0.0,0.0,0.0,0.0,0.0,0.0,0.0,0.0,0.0,0.0,0.0,0.0,0.0,0.0,0.0,0.0,0.0,0.0,0.0,0.0,0.0,0.0,0.0,0.0,0.0,0.0,0.0,0.0,0.0,0.0,0.0,0.0,0.0,0.0,0.0,0.0,0.0,0.0,0.0,0.0,0.0,0.0,0.0,3.4566,3.4599,3.4056,3.391,3.3898,3.3993,3.3284,3.2633,3.2235,3.1532,0.0,0.0,0.0,0.0,0.0,0.0,0.0,0.0,0.0,0.0,0.0,0.0,0.0,0.0,0.0,0.0,0.0,0.0,0.0,0.0,0.0,0.0,0.0,0.0,0.0,0.0,0.0,0.0,0.0,0.0,0.0,0.0,0.0,0.0,0.0,0.0,0.0,0.0,0.0,0.0,0.0,0.0,0.0,0.0,0.0,0.0,0.0,0.0,0.0,0.0,0.0,0.0,0.0,0.0,0.0,0.0,0.0,0.0,0.0,0.0,0.0,0.0,0.0,0.0,0.0,0.0,0.0,0.0,0.0,0.0,0.0,0.0,0.0,0.0,0.0,0.0,0.0,0.0,0.0,0.0,0.0,0.0,0.0,0.0,0.0,0.0,0.0,0.0,0.0,0.0,0.0,0.0,0.0,0.0,0.0,0.0,0.0,0.0,0.0,0.0,0.0,0.0,3.4516,3.4705,3.4147,3.3979,3.3839,3.3632,3.2763,3.2235,3.2235,3.1893,0.0,0.0,0.0,0.0,0.0,0.0,0.0,0.0,0.0,0.0,0.0,0.0,0.0,0.0,0.0,0.0,0.0,0.0,0.0,0.0,0.0,0.0,0.0,0.0,0.0,0.0,0.0,0.0,0.0,0.0,0.0,0.0,0.0,0.0,0.0,0.0,0.0,0.0,0.0,0.0,0.0,0.0,0.0,0.0,0.0,0.0,0.0,0.0,0.0,0.0,0.0,0.0,0.0,0.0,0.0,0.0,0.0,0.0,0.0,0.0,0.0,0.0,0.0,0.0,0.0,0.0,0.0,0.0,0.0,0.0,0.0,0.0,0.0,0.0,0.0,0.0,0.0,0.0,0.0,0.0,0.0,0.0,0.0,0.0,0.0,0.0,0.0,0.0,0.0,0.0,0.0,0.0,0.0,0.0,0.0,0.0,0.0,0.0,0.0,0.0,0.0,0.0,3.3964,3.297,3.3176,3.2801,3.254,3.2519,3.2047,3.1749,3.1749,3.1705,0.0,0.0,0.0,0.0,0.0,0.0,0.0,0.0,0.0,0.0,0.0,0.0,0.0,0.0,0.0,0.0,0.0,0.0,0.0,0.0,0.0,0.0,0.0,0.0,0.0,0.0,0.0,0.0,0.0,0.0,0.0,0.0,0.0,0.0,0.0,0.0,0.0,0.0,0.0,0.0,0.0,0.0,0.0,0.0,0.0,0.0,0.0,0.0,0.0,0.0,0.0,0.0,0.0,0.0,0.0,0.0,0.0,0.0,0.0,0.0,0.0,0.0,0.0,0.0,0.0,0.0,0.0,0.0,0.0,0.0,0.0,0.0,0.0,0.0,0.0,0.0,0.0,0.0,0.0,0.0,0.0,0.0,0.0,0.0,0.0,0.0,0.0,0.0,0.0,0.0,0.0,0.0,0.0,0.0,0.0,0.0,0.0,0.0,0.0,0.0,0.0,0.0,3.4186,3.3159,3.2702,3.2509,3.2322,3.2169,3.1981,3.1893,3.1893,0.0,0.0,0.0,0.0,0.0,0.0,0.0,0.0,0.0,0.0,0.0,0.0,0.0,0.0,0.0,0.0,0.0,0.0,0.0,0.0,0.0,0.0,0.0,0.0,0.0,0.0,0.0,0.0,0.0,0.0,0.0,0.0,0.0,0.0,0.0,0.0,0.0,0.0,0.0,0.0,0.0,0.0,0.0,0.0,0.0,0.0,0.0,0.0,0.0,0.0,0.0,0.0,0.0,0.0,0.0,0.0,0.0,0.0,0.0,0.0,0.0,0.0,0.0,0.0,0.0,0.0,0.0,0.0,0.0,0.0,0.0,0.0,0.0,0.0,0.0,0.0,0.0,0.0,0.0,0.0,0.0,0.0,0.0,0.0,0.0,0.0,0.0,0.0,0.0,0.0,0.0,0.0,0.0,0.0,0.0,0.0,0.0,0.0,0.0,0.0,0.0,0.0,3.5366,3.4061,3.3029,3.2687,3.258,3.2509,3.2502,3.2279,3.2232,3.2402,0.0,0.0,0.0,0.0,0.0,0.0,0.0,0.0,0.0,0.0,0.0,0.0,0.0,0.0,0.0,0.0,0.0,0.0,0.0,0.0,0.0,0.0,0.0,0.0,0.0,0.0,0.0,0.0,0.0,0.0,0.0,0.0,0.0,0.0,0.0,0.0,0.0,0.0,0.0,0.0,0.0,0.0,0.0,0.0,0.0,0.0,0.0,0.0,0.0,0.0,0.0,0.0,0.0,0.0,0.0,0.0,0.0,0.0,0.0,0.0,0.0,0.0,0.0,0.0,0.0,0.0,0.0,0.0,0.0,0.0,0.0,0.0,0.0,0.0,0.0,0.0,0.0,0.0,0.0,0.0,0.0,0.0,0.0,0.0,0.0,0.0,0.0,0.0,0.0,0.0,0.0,0.0,0.0,0.0,0.0,0.0,0.0,0.0,0.0,0.0,0.0,0.0,3.5278,3.3382,3.2323,3.3105,3.2952,3.3036,3.3536,3.294,3.2731,0.0,0.0,0.0,0.0,0.0,0.0,0.0,0.0,0.0,0.0,0.0,0.0,0.0,0.0,0.0,0.0,0.0,0.0,0.0,0.0,0.0,0.0,0.0,0.0,0.0,0.0,0.0,0.0,0.0,0.0,0.0,0.0,0.0,0.0,0.0,0.0,0.0,0.0,0.0,0.0,0.0,0.0,0.0,0.0,0.0,0.0,0.0,0.0,0.0,0.0,0.0,0.0,0.0,0.0,0.0,0.0,0.0,0.0,0.0,0.0,0.0,0.0,0.0,0.0,0.0,0.0,0.0,0.0,0.0,0.0,0.0,0.0,0.0,0.0,0.0,0.0,0.0,0.0,0.0,0.0,0.0,0.0,0.0,0.0,0.0,0.0,0.0,0.0,0.0,0.0,0.0,0.0,0.0,0.0,0.0,0.0,0.0,0.0,0.0,0.0,0.0,0.0,0.0,3.6268,3.4306,3.3013,3.3239,3.3205,3.3231,3.3388,3.3186,3.3128,3.3284,0.0,0.0,0.0,0.0,0.0,0.0,0.0,0.0,0.0,0.0,0.0,0.0,0.0,0.0,0.0,0.0,0.0,0.0,0.0,0.0,0.0,0.0,0.0,0.0,0.0,0.0,0.0,0.0,0.0,0.0,0.0,0.0,0.0,0.0,0.0,0.0,0.0,0.0,0.0,0.0,0.0,0.0,0.0,0.0,0.0,0.0,0.0,0.0,0.0,0.0,0.0,0.0,0.0,0.0,0.0,0.0,0.0,0.0,0.0,0.0,0.0,0.0,0.0,0.0,0.0,0.0,0.0,0.0,0.0,0.0,0.0,0.0,0.0,0.0,0.0,0.0,0.0,0.0,0.0,0.0,0.0,0.0,0.0,0.0,0.0,0.0,0.0,0.0,0.0,0.0,0.0,0.0,0.0,0.0,0.0,0.0,0.0,0.0,0.0,0.0,0.0,0.0,3.6702,3.4708,3.3368,3.3573,3.3585,3.3681,3.3885,3.3705,3.3681,3.3885,0.0,0.0,0.0,0.0,0.0,0.0,0.0,0.0,0.0,0.0,0.0,0.0,0.0,0.0,0.0,0.0,0.0,0.0,0.0,0.0,0.0,0.0,0.0,0.0,0.0,0.0,0.0,0.0,0.0,0.0,0.0,0.0,0.0,0.0,0.0,0.0,0.0,0.0,0.0,0.0,0.0,0.0,0.0,0.0,0.0,0.0,0.0,0.0,0.0,0.0,0.0,0.0,0.0,0.0,0.0,0.0,0.0,0.0,0.0,0.0,0.0,0.0,0.0,0.0,0.0,0.0,0.0,0.0,0.0,0.0,0.0,0.0,0.0,0.0,0.0,0.0,0.0,0.0,0.0,0.0,0.0,0.0,0.0,0.0,0.0,0.0,0.0,0.0,0.0,0.0,0.0,0.0,0.0,0.0,0.0,0.0,0.0,0.0,0.0,0.0,0.0,0.0,3.6862,3.4859,3.3609,3.4018,3.4066,3.4258,3.4763,3.4366,3.4294,3.4775,0.0,0.0,0.0,0.0,0.0,0.0,0.0,0.0,0.0,0.0,0.0,0.0,0.0,0.0,0.0,0.0,0.0,0.0,0.0,0.0,0.0,0.0,0.0,0.0,0.0,0.0,0.0,0.0,0.0,0.0,0.0,0.0,0.0,0.0,0.0,0.0,0.0,0.0,0.0,0.0,0.0,0.0,0.0,0.0,0.0,0.0,0.0,0.0,0.0,0.0,0.0,0.0,0.0,0.0,0.0,0.0,0.0,0.0,0.0,0.0,4.214,4.1596,0.0,0.0,0.0,0.0,0.0,0.0,0.0,0.0,0.0,0.0,0.0,0.0,0.0,0.0,0.0,0.0,0.0,0.0,0.0,0.0,0.0,0.0,0.0,0.0,0.0,0.0,0.0,0.0,0.0,0.0,0.0,0.0,0.0,0.0,0.0,0.0,0.0,0.0,0.0,0.0,3.7945,3.5965,3.4523,3.4619,3.4643,3.4679,3.4799,3.4703,3.4691,3.4799,3.4595,0.0,0.0,0.0,0.0,0.0,0.0,0.0,0.0,0.0,0.0,0.0,0.0,0.0,0.0,0.0,0.0,0.0,0.0,0.0,0.0,0.0,0.0,0.0,0.0,0.0,0.0,0.0,0.0,0.0,0.0,0.0,0.0,0.0,0.0,0.0,0.0,0.0,0.0,0.0,0.0,0.0,0.0,0.0,0.0,0.0,0.0,0.0,0.0,0.0,0.0,0.0,0.0,0.0,0.0,0.0,0.0,0.0,0.0,0.0,4.2743,4.2072,0.0,0.0,0.0,0.0,0.0,0.0,0.0,0.0,0.0,0.0,0.0,0.0,0.0,0.0,0.0,0.0,0.0,0.0,0.0,0.0,0.0,0.0,0.0,0.0,0.0,0.0,0.0,0.0,0.0,0.0,0.0,0.0,0.0,0.0,0.0,0.0,0.0,0.0,0.0,0.0,3.8303,3.6281,3.4799,3.4799,3.4799,3.4799,3.4799,3.4799,3.4799,3.4799,3.4799,0.0,0.0,0.0,0.0,0.0,0.0,0.0,0.0,0.0,0.0,0.0,0.0,0.0,0.0,0.0,0.0,0.0,0.0,0.0,0.0,0.0,0.0,0.0,0.0,0.0,0.0,0.0,0.0,0.0,0.0,0.0,0.0,0.0,0.0,0.0,0.0,0.0,0.0,0.0,0.0,0.0,0.0,0.0,0.0,0.0,0.0,0.0,0.0,0.0,0.0,0.0,0.0,0.0,4.4342,4.4394,4.4411,4.5029,4.5147,4.4759,4.3375,4.2831,4.2941,4.2815,0.0,0.0,0.0,0.0,0.0,0.0,0.0,0.0,0.0,0.0,0.0,0.0,0.0,0.0,0.0,0.0,0.0,0.0,0.0,0.0,0.0,0.0,3.5918,3.6149,3.5659,3.5331,3.6059,0.0,0.0,0.0,0.0,0.0,0.0,0.0,0.0,0.0,0.0,0.0,3.8032,3.6152,3.4799,3.4799,3.4799,3.4799,3.4799,3.4799,3.4799,3.4799,3.4799,3.4799,0.0,0.0,0.0,0.0,0.0,0.0,0.0,0.0,0.0,0.0,0.0,0.0,0.0,0.0,0.0,0.0,0.0,0.0,0.0,0.0,0.0,0.0,0.0,0.0,0.0,0.0,0.0,0.0,0.0,0.0,0.0,0.0,4.0408,4.0997,0.0,0.0,0.0,0.0,0.0,0.0,0.0,0.0,0.0,0.0,0.0,0.0,0.0,4.3961,4.3963,4.4505,4.4797,4.4797,4.5324,4.5577,4.5578,4.5678,4.5334,4.4594,4.38,0.0,4.4284,4.3635,0.0,0.0,0.0,0.0,0.0,0.0,0.0,0.0,0.0,0.0,0.0,0.0,0.0,0.0,0.0,0.0,0.0,0.0,0.0,0.0,0.0,0.0,3.4906,3.5014,3.4943,3.4879,3.5002,3.5803,3.6723,3.7451,3.769,3.8276,0.0,0.0,0.0,0.0,0.0,0.0,3.6807,3.563,3.4799,3.4799,3.4799,3.4799,3.4799,3.4799,3.4799,3.4799,3.4799,3.4799,3.4799,3.4799,0.0,0.0,0.0,0.0,0.0,0.0,0.0,0.0,0.0,0.0,0.0,0.0,0.0,0.0,0.0,0.0,0.0,0.0,0.0,0.0,0.0,0.0,0.0,0.0,0.0,0.0,0.0,0.0,0.0,4.0883,4.0997,4.1728,4.1813,4.1948,0.0,0.0,0.0,0.0,0.0,0.0,0.0,0.0,0.0,4.4622,4.4582,4.4708,4.505,4.529,4.541,4.541,4.5663,4.5813,4.5798,4.6244,4.5978,4.5206,4.4905,4.4676,4.4454,4.333,4.3071,4.339,0.0,0.0,0.0,0.0,4.1967,4.1056,4.066,4.0529,4.051,4.0412,0.0,0.0,0.0,0.0,0.0,0.0,0.0,3.7174,3.6462,3.5897,3.5415,3.5093,3.4907,3.4787,3.4799,3.5202,3.5835,3.6812,3.7541,3.8327,3.9346,3.8617,0.0,0.0,0.0,3.6237,3.6563,3.5547,3.4799,3.4799,3.4799,3.4799,3.4799,3.4799,3.4799,3.4799,3.4799,3.4799,3.4799,3.4799,3.4799,0.0,0.0,0.0,0.0,0.0,0.0,0.0,0.0,0.0,0.0,0.0,0.0,0.0,0.0,0.0,0.0,0.0,0.0,0.0,0.0,0.0,0.0,0.0,0.0,0.0,0.0,0.0,0.0,4.1699,4.1762,4.2489,4.2574,4.2658,0.0,0.0,0.0,0.0,0.0,0.0,4.4582,4.4593,4.4768,4.5166,4.5153,4.5359,4.5813,4.5996,4.6079,4.6079,4.6262,4.6361,4.6378,4.6924,4.6635,4.5693,4.5693,4.5129,4.4106,4.306,4.2744,4.2984,4.3548,4.3422,4.291,4.2639,4.2123,4.1449,4.0983,4.0845,4.081,4.0671,3.9965,3.9102,3.8622,0.0,0.0,0.0,0.0,3.7266,3.6554,3.6223,3.5921,3.533,3.5054,3.4884,3.4799,3.5054,3.5427,3.6046,3.6864,3.7648,3.8225,3.7782,0.0,3.8215,3.6987,3.6025,3.6141,3.5367,3.4799,3.4799,3.4799,3.4799,3.4799,3.4799,3.4799,3.4799,3.4799,3.4799,3.4799,3.4799,3.4799,3.4799,0.0,0.0,0.0,0.0,0.0,0.0,0.0,0.0,0.0,0.0,0.0,0.0,0.0,0.0,0.0,0.0,0.0,0.0,0.0,0.0,0.0,0.0,0.0,0.0,0.0,0.0,0.0,0.0,0.0,4.3254,4.3338,0.0,0.0,0.0,0.0,4.4533,4.4925,4.5211,4.5341,4.5696,4.5913,4.5931,4.5825,4.5764,4.5813,4.6493,4.6841,4.6841,4.7554,4.7885,4.7885,4.7934,4.7119,4.5704,4.5699,4.4812,4.3349,4.3274,4.3704,4.4399,4.4437,4.4437,4.4361,4.3949,4.3298,4.2559,4.2155,4.2011,4.2011,4.199,4.1316,4.0184,3.8393,3.8438,0.0,0.0,3.7763,3.7501,3.632,3.6013,3.587,3.5344,3.5199,3.5102,3.486,3.5702,3.6199,3.5102,3.4945,3.5343,3.6516,0.0,3.6225,3.6656,3.6307,3.5727,3.4993,3.4848,3.4799,3.4799,3.4799,3.4799,3.4799,3.4799,3.4799,3.4799,3.4799,3.4799,3.4799,3.4799,3.4799,3.4799,3.4799,0.0,0.0,0.0,0.0,0.0,0.0,0.0,0.0,0.0,0.0,0.0,0.0,0.0,0.0,0.0,0.0,0.0,0.0,0.0,0.0,0.0,0.0,0.0,0.0,0.0,0.0,0.0,0.0,4.4079,4.4164,0.0,4.5053,4.5166,4.5366,4.5794,4.5874,4.5935,4.598,4.5911,4.609,4.6572,4.6525,4.6742,4.7206,4.7487,4.7603,4.7603,4.7357,4.722,4.7203,4.674,4.5949,4.4924,4.4924,4.4316,4.329,4.329,4.3472,4.3728,4.3728,4.3728,4.3689,4.328,4.2955,4.2642,4.2242,4.2092,4.1995,4.1339,4.0489,3.9461,3.8183,3.7625,3.7325,3.6989,3.6769,3.6535,3.6098,3.574,3.544,3.5247,3.5078,3.4932,3.4823,3.5138,3.5319,3.4872,3.5439,3.5998,3.6189,3.5667,3.5464,3.6118,3.5643,3.5114,3.4823,3.4799,3.4799,3.4799,3.4799,3.4799,3.4799,3.4799,3.4799,3.4799,3.4799,3.4799,3.4799,3.4799,3.4799,3.4799,3.4115,3.4115,0.0,0.0,0.0,0.0,0.0,0.0,0.0,0.0,0.0,0.0,0.0,0.0,0.0,0.0,0.0,0.0,0.0,0.0,0.0,0.0,0.0,0.0,0.0,0.0,0.0,4.3809,4.4096,4.4888,4.4973,4.5218,4.5814,4.5925,4.6113,4.6464,4.657,4.6599,4.6582,4.6552,4.6758,4.7255,4.7272,4.7504,4.8001,4.8001,4.8001,4.7984,4.7186,4.6794,4.676,4.6038,4.5258,4.4491,4.4491,4.4028,4.329,4.329,4.329,4.329,4.329,4.327,4.317,4.283,4.2662,4.2541,4.2216,4.2092,4.1891,4.0553,3.9703,3.8966,3.7704,3.6886,3.6405,3.6405,3.6204,3.5992,3.5884,3.5524,3.5175,3.5078,3.492,3.4799,3.4799,3.4799,3.4799,3.4799,3.5463,3.5916,3.5643,3.5163,3.5066,3.587,3.5331,3.4896,3.5163,3.4969,3.4799,3.4799,3.4799,3.4799,3.4799,3.4967,3.4918,3.4543,3.4698,3.4648,3.4273,3.4433,3.4531,3.4531,3.3585,3.3239,3.3562,0.0,0.0,0.0,0.0,0.0,0.0,0.0,0.0,0.0,0.0,0.0,0.0,0.0,0.0,0.0,0.0,0.0,0.0,0.0,0.0,0.0,0.0,0.0,4.4618,4.4618,4.4905,4.5652,4.5722,4.6024,4.6752,4.6654,4.6548,4.655,4.6982,4.7195,4.7146,4.7684,4.8001,4.8001,4.8001,4.8001,4.8001,4.8001,4.8001,4.7984,4.7169,4.676,4.6742,4.5969,4.5203,4.4453,4.4453,4.4008,4.329,4.329,4.329,4.329,4.329,4.319,4.2975,4.2769,4.2561,4.2351,4.2175,4.2092,4.1787,3.9905,3.9241,3.8854,3.7047,3.6452,3.6405,3.6381,3.6181,3.592,3.5668,3.5392,3.5126,3.4848,3.4799,3.4799,3.4799,3.4799,3.4799,3.4799,3.4799,3.4799,3.4799,3.4799,3.5066,3.5847,3.5295,0.0,3.587,3.5295,3.4823,3.4799,3.4823,3.4823,3.4823,3.5304,3.5128,3.4099,3.4509,3.4305,3.3245,3.3694,3.3941,3.388,3.3139,3.2165,3.1034,0.0,0.0,0.0,0.0,0.0,0.0,0.0,0.0,0.0,0.0,0.0,0.0,0.0,0.0,0.0,0.0,0.0,0.0,0.0,0.0,0.0,4.5399,4.5399,4.5399,4.5399,4.5669,4.6413,4.6498,4.6741,4.7315,4.7337,4.748,4.7909,4.7923,4.7928,4.7896,4.795,4.8001,4.8001,4.8001,4.8001,4.8001,4.8001,4.8001,4.7984,4.6653,4.5987,4.5967,4.4586,4.383,4.363,4.363,4.3492,4.329,4.329,4.329,4.329,4.329,4.319,4.2975,4.2769,4.2479,4.2175,4.2113,4.2092,4.2009,4.1486,4.0352,3.9086,3.8585,3.7474,3.6358,3.6169,3.5908,3.5644,3.538,3.5102,3.4896,3.4835,3.4799,3.4799,3.4799,3.4799,3.4799,3.4799,3.4799,3.4799,3.4799,3.4799,3.4884,3.509,3.4945,3.4872,3.509,3.5283,3.5232,3.4847,3.5147,3.5376,3.5376,3.5159,3.4896,3.4604,3.4355,3.3901,3.322,3.3346,3.2773,3.1348,3.1276,3.0736,0.0,0.0,0.0,0.0,0.0,0.0,0.0,0.0,0.0,0.0,0.0,0.0,0.0,0.0,0.0,0.0,0.0,0.0,0.0,0.0,0.0,0.0,4.616,4.6278,4.6585,4.6363,4.643,4.7175,4.72,4.741,4.8121,4.8065,4.8124,4.8466,4.8308,4.8196,4.8115,4.805,4.8001,4.8001,4.8001,4.8001,4.8001,4.7671,4.7505,4.7488,4.5933,4.5203,4.5147,4.3888,4.329,4.329,4.329,4.329,4.329,4.329,4.329,4.329,0.0,0.0,0.0,0.0,4.2304,4.2092,4.2092,4.2092,4.203,4.1612,4.0424,3.9144,3.872,3.7566,3.6358,3.6204,3.5884,3.5572,3.5416,3.5078,3.4799,3.4799,3.4799,3.4799,3.4799,3.4799,3.4871,3.5087,3.5135,0.0,3.5424,3.5099,3.492,3.5247,3.5017,3.492,3.5259,3.5283,3.5147,3.4835,3.4879,3.4934,3.4934,3.4636,0.0,0.0,0.0,3.3853,3.3518,3.296,0.0,0.0,0.0,2.9288,2.8215,2.886,0.0,0.0,2.9082,2.9324,0.0,0.0,0.0,0.0,0.0,0.0,0.0,0.0,0.0,0.0,0.0,0.0,0.0,0.0,0.0,0.0,4.6921,4.7175,4.7921,4.7462,4.7293,4.7954,4.7868,4.8074,4.8904,4.8689,4.8483,4.8468,4.8292,4.8131,4.8001,4.8001,0.0,0.0,0.0,4.8001,4.8001,4.7203,4.6862,4.6914,4.5279,4.4548,4.4605,4.3784,4.3409,4.3429,4.3504,4.3534,4.3534,4.3534,4.3514,4.3459,4.329,4.301,4.2648,4.2242,4.2092,4.2092,4.2092,0.0,0.0,4.093,3.9964,3.9033,3.8069,3.7129,3.6346,3.631,3.5943,3.5548,3.5524,3.5199,3.4895,3.4895,3.4943,3.4979,3.4979,3.4979,3.5123,3.5592,3.5676,3.5832,3.6326,3.5604,3.5211,3.5936,3.543,3.5247,3.596,3.5454,3.5051,3.4991,3.4536,0.0,3.4249,3.4141,3.3663,3.2726,3.338,3.3768,3.3644,3.2323,3.1365,3.0889,2.9236,2.7912,2.6962,2.6962,2.6863,2.671,2.8174,2.8492,0.0,0.0,0.0,0.0,0.0,0.0,0.0,0.0,0.0,0.0,0.0,0.0,0.0,0.0,0.0,4.7582,4.7684,4.7938,4.8682,4.8663,4.8629,4.8781,4.8751,4.8757,4.8831,4.8643,4.8436,4.8276,4.8115,4.8033,4.8001,4.8001,4.8001,4.8001,4.8001,4.8001,4.8001,4.7203,4.7135,4.7737,4.5554,0.0,4.5439,4.4513,4.4102,4.4132,4.4691,4.4915,4.4915,4.4915,4.4827,4.4558,4.3305,4.2769,4.2648,4.2242,4.2092,4.2092,4.2092,4.2092,4.1933,4.093,3.9964,3.9033,3.8069,3.7002,0.0,3.5812,3.5512,3.5223,3.5005,3.5197,3.5448,3.5448,3.5797,3.6098,3.6098,3.6098,3.6134,3.623,3.6254,3.629,3.6386,3.623,3.6148,3.6299,3.6199,3.6148,3.6299,3.6572,3.6567,3.6146,3.5945,3.5857,3.5857,3.502,3.4432,3.4273,3.3292,3.2522,3.2053,3.0512,2.9583,2.9477,2.7855,2.6863,2.6691,2.6691,2.6829,2.7077,2.7302,2.7332,0.0,0.0,0.0,0.0,0.0,0.0,0.0,0.0,0.0,0.0,0.0,4.7361,4.7361,0.0,4.802,4.8377,4.8445,4.858,4.8951,4.9001,4.9001,4.9001,4.8941,4.8879,4.8818,4.8532,4.8308,4.8211,4.8082,4.8001,4.8001,4.8001,4.8001,4.8001,4.8001,4.8001,4.8001,4.7578,4.7344,4.7326,4.6138,4.5526,4.5483,4.5017,4.4811,4.4825,4.5155,4.5289,4.5289,4.52,4.5075,4.489,4.3885,4.3495,4.3468,4.3162,4.305,4.305,4.305,4.305,4.2972,4.2467,4.1303,4.0006,3.9539,3.8189,3.6774,3.6652,3.6297,3.5964,3.584,3.5884,3.6014,3.6014,3.6218,3.6411,3.6411,3.6411,3.6483,3.6747,3.6795,3.6892,3.7144,3.7192,3.7012,3.6483,3.6411,3.6411,3.6411,3.6627,3.6699,3.6435,3.5893,3.555,3.555,3.4482,3.3962,3.4217,3.3543,3.2894,3.2378,3.0908,2.9896,2.9457,2.7985,2.7206,2.7206,2.7206,2.7307,2.75,2.7428,2.7466,0.0,0.0,0.0,0.0,0.0,0.0,0.0,4.713,4.7552,4.7109,4.7599,4.8107,4.8107,4.8597,4.9001,4.9001,4.9001,4.9001,4.9001,4.9001,4.8986,4.8955,4.8863,4.8769,4.8738,4.8421,4.8195,4.8163,4.8049,4.8001,4.8001,4.8001,4.8001,4.8001,4.815,4.8216,4.8216,4.7977,4.761,4.713,4.6613,4.6057,4.5537,4.5522,4.5484,4.5499,4.5592,4.5616,4.5595,4.5399,4.5272,4.5187,4.4825,4.4652,4.4573,4.4167,4.3993,4.3993,4.3993,4.3993,4.395,4.3552,4.232,4.0935,4.0549,3.9088,3.7581,3.7543,3.718,3.6791,3.674,3.6635,3.6555,3.6555,3.6639,3.6711,3.6711,3.6711,3.6843,3.7264,3.7375,3.7481,3.794,3.8012,3.7723,3.6843,3.6711,3.6711,3.6711,3.6609,3.6531,3.6531,3.5561,3.4864,3.4759,3.3908,3.3502,3.377,3.3792,3.3499,3.2847,3.1641,3.0548,2.966,2.8435,2.7793,2.7793,2.7793,2.7839,2.7913,2.7913,2.799,4.8168,4.8172,4.824,4.8482,4.8028,4.7413,0.0,4.7331,4.7844,4.78,4.836,4.8883,4.8883,4.8951,4.9001,4.9001,4.9001,4.9001,4.9001,4.9001,4.8972,4.8849,4.8818,4.8738,4.8547,4.8324,4.8163,4.8033,4.8017,4.8001,4.8001,4.8001,4.8001,4.8001,4.8647,4.8978,4.8978,4.814,4.8036,4.8637,4.646,4.5768,4.6358,4.6237,4.6196,4.6204,4.6564,4.673,4.6708,4.649,4.6285,4.6072,4.6005,4.5886,4.5577,4.4436,4.3993,4.3993,4.3993,4.3993,4.3704,4.1923,4.1176,4.0666,3.8883,3.799,3.7556,3.7306,3.703,3.674,3.6512,3.6773,3.7108,3.7108,3.7457,3.7832,3.7832,3.7832,3.7856,3.7904,3.7916,3.794,3.8,3.8012,3.7964,3.7856,3.7832,3.7832,3.7832,3.7355,3.7009,3.7009,3.6001,3.5111,3.4582,3.4415,3.4196,3.3825,3.3792,3.3208,3.1906,3.0962,3.0046,2.9114,2.8238,2.7793,2.7793,2.7793,2.7986,2.8324,2.8324,2.8151,4.8681,4.8588,4.8433,4.7788,4.7706,4.7724,4.749,4.8005,4.8529,4.8529,4.8798,4.9001,4.9001,4.9001,4.9001,4.9001,4.9001,4.9001,4.9001,4.9001,4.897,4.8909,4.8737,4.8548,4.834,4.8356,4.826,4.8017,4.8001,4.8199,4.863,4.8647,4.8845,4.9259,4.9574,4.9502,4.8986,4.9528,4.9215,4.8074,4.7958,4.7589,4.6968,4.6905,4.6869,4.6884,4.7066,4.704,4.6873,4.6668,4.6425,4.6188,4.6068,4.597,4.5845,4.5285,4.5119,4.5119,4.5119,4.5119,4.4846,4.3393,4.2518,4.1784,4.0317,3.9272,3.8524,3.8216,3.7933,3.7662,3.7403,3.7507,3.7675,3.7675,3.7856,3.8012,3.8012,3.8012,3.8012,3.8012,3.8012,3.8012,3.8012,3.8012,3.8012,3.8012,3.8012,3.8012,3.8012,3.748,3.6862,3.6173,3.5669,3.5168,3.4551,3.4496,3.4408,3.4229,3.3697,3.2892,3.1797,3.0882,2.9949,2.9015,2.8675,2.85,2.85,2.85,2.8592,2.8737,2.8737,2.8674,4.967,4.9465,4.9086,4.8151,4.8197,4.8417,4.8237,4.8614,4.9001,4.9001,4.9001,4.9001,4.9001,4.9001,4.9001,4.9001,4.9001,4.9001,4.9001,4.9001,4.8986,4.8956,4.8737,4.8567,4.851,4.8408,4.8343,4.8315,4.8299,4.863,4.9359,4.9392,4.964,5.017,5.0402,5.0209,4.9579,5.0688,5.0195,4.8154,4.9028,4.8723,4.7309,4.7309,4.7309,4.7287,4.7157,4.7012,4.68,4.6528,4.6306,4.6113,4.597,4.5903,4.5903,4.5903,4.5903,4.5903,4.5903,4.5903,4.5685,4.4326,4.3378,4.255,4.1207,4.0096,3.9244,3.8893,3.8605,3.833,3.8065,3.8012,3.8012,3.8012,3.8012,3.8012,3.8012,3.8012,3.8012,3.8012,3.8012,3.8012,3.8012,3.8012,3.806,3.819,3.8214,3.8214,3.8214,3.7689,3.6844,3.5681,3.5435,3.5174,3.4737,3.4572,3.4373,3.4138,3.347,3.2579,3.1469,3.0752,2.9951,2.9014,2.9014,2.9014,2.9014,2.9014,2.9014,2.9014,2.9014,2.9014,5.1493,5.1131,5.0578,5.0743,5.031,4.9698,4.9089,4.8984,4.9001,4.9001,4.9001,4.9001,4.9001,4.9001,4.9001,4.9001,4.9001,4.9001,4.9001,4.9001,4.8956,4.8816,4.8802,4.8912,4.9243,4.8513,4.8299,4.9011,4.9077,4.9392,5.012,5.017,5.017,5.0203,5.09,5.1248,5.1231,5.1153,5.0637,4.9714,4.8979,4.8172,4.7309,4.7309,4.7309,4.7287,4.6815,4.6616,4.6572,4.6105,4.5903,4.5903,4.5903,4.5903,4.5903,4.5903,4.5903,4.5903,4.5903,4.5903,4.5572,4.3511,4.2816,4.2428,4.0377,3.953,3.9244,3.8893,3.8605,3.833,3.8065,3.8012,3.8012,3.8012,3.8012,3.8012,3.8012,3.8012,3.8012,3.8012,3.8012,3.8012,3.8012,3.8012,3.8193,3.8707,3.8764,3.8764,3.8764,3.8191,3.732,3.6125,3.5513,3.5207,3.519,3.4747,3.411,3.3204,3.3119,3.2293,3.0528,3.0411,2.9951,2.9014,2.9014,2.9014,2.9014,2.9014,2.9014,2.9014,2.9014,2.9014,5.1826,5.1387,5.0699,5.0321,4.9756,4.926,4.9048,4.9001,4.9001,4.9001,4.9001,4.9001,4.9001,4.9001,4.9001,4.9001,4.9001,4.9001,4.9001,4.9001,4.8956,4.8818,4.9095,4.932,4.9309,4.9027,4.9144,4.979,4.9822,5.0154,5.09,5.0933,5.1165,5.1628,5.1894,5.1459,5.0319,5.0822,5.0092,4.813,4.787,4.7581,4.7287,4.7121,4.7019,4.7019,4.6727,4.6506,4.6314,4.6158,4.6023,4.5903,4.5903,4.5903,4.5903,4.5903,4.5903,4.5903,4.5903,4.5903,4.5572,4.3464,4.2792,4.2404,4.0326,3.9504,3.9244,3.8893,3.8605,3.833,3.8065,3.8012,3.8012,3.8012,3.8012,3.8012,3.8012,3.8012,3.8121,3.8467,3.8539,3.8647,3.8996,3.9056,3.9128,3.9281,3.9345,3.903,3.8241,3.7944,3.7326,3.6139,3.5841,3.5743,3.5743,3.4973,3.4246,3.3681,3.2423,3.1309,3.0421,2.9804,2.9302,2.9014,2.9014,2.9014,2.9014,2.9014,2.9014,2.9014,2.9014,2.9014,5.2251,5.1897,5.1312,5.0682,5.0056,4.9568,4.9379,4.9153,4.9001,4.9001,4.9001,4.9001,4.9001,4.9001,4.9001,4.9001,4.9001,4.9001,4.9001,4.9221,4.9328,4.9172,4.9652,5.0025,5.0076,5.0042,5.0191,5.0551,5.0585,5.0899,5.1646,5.1679,5.1911,5.2391,5.2391,5.171,5.0271,5.0819,4.999,4.7758,4.7445,4.7309,4.7287,4.7019,4.6894,4.6873,4.658,4.6358,4.6188,4.6135,4.6023,4.5903,4.5903,4.5903,4.5903,4.5903,4.5903,4.5903,4.5903,4.5903,4.5572,4.3464,4.2792,4.2404,4.0326,3.9426,3.9076,3.8867,3.8552,3.8224,3.8039,3.813,3.8286,3.8286,3.8431,3.8563,3.8563,3.8563,3.8671,3.9032,3.9104,3.9212,3.9549,3.9765,3.9886,3.9886,3.9846,3.9375,3.8194,3.8217,3.7859,3.6615,3.6355,3.6257,3.6257,3.5152,3.4242,3.3656,3.1979,3.0733,3.0149,2.9415,2.9014,2.9014,2.9014,2.9014,2.9014,2.9014,2.9014,2.9014,2.9014,2.9014,5.2794,5.2633,5.2322,5.1706,5.1118,5.0521,4.9988,4.9409,4.9001,4.9001,4.9001,4.9001,4.9001,4.9001,4.9001,4.9001,4.9001,4.9018,4.9052,4.9644,5.0022,4.9864,5.0374,5.0944,5.1441,5.1419,5.1347,5.1347,5.1347,5.1662,5.2358,5.2391,5.2391,5.2391,5.2391,5.198,5.1118,5.1008,5.0151,4.8532,4.7739,4.7332,4.7332,4.7086,4.6976,4.6933,4.6491,4.629,4.6268,4.6095,4.6005,4.6005,4.6005,4.6005,4.6005,4.6005,4.6005,4.6005,4.6005,4.5961,4.5572,4.3464,4.2792,4.2404,4.0326,3.9283,3.8825,3.8825,3.8443,3.8096,3.8096,3.8467,3.8836,3.8836,3.9248,3.9609,3.9609,3.9609,3.9621,3.9645,3.9669,3.9681,3.9681,4.0102,4.0439,4.0399,4.0275,3.9785,3.8671,3.8951,3.8764,3.7525,3.6992,3.67,3.667,3.5338,3.4093,3.3125,3.1758,3.0585,2.9659,2.9271,2.9048,2.9048,2.9048,2.9048,2.9048,2.9048,2.9048,2.9048,2.9048,2.9048,5.2794,5.2472,5.1939,5.1126,5.0562,5.0004,4.9376,4.9107,4.9001,4.9001,4.9001,4.9001,4.9001,4.9001,4.9001,4.9001,4.9001,4.9187,4.9729,4.9855,5.0016,5.0424,5.0961,5.1308,5.1352,5.183,5.211,5.211,5.211,5.2192,5.2391,5.2391,5.2391,5.2391,5.2391,5.198,5.1118,4.9856,4.8697,4.7624,4.7897,4.7939,4.7762,4.7984,4.7987,4.7766,4.752,4.7381,4.7381,4.7349,4.7326,4.7326,4.7326,4.7326,4.7326,4.7326,4.7326,4.7326,4.7326,4.6702,4.5572,4.3464,4.2792,4.2366,4.0083,3.9386,3.9363,3.9138,3.9146,3.9188,3.9188,3.9296,3.9405,3.9405,3.9513,3.9609,3.9609,3.9609,3.9729,4.0114,4.0511,4.0775,4.0775,4.0924,4.0837,4.0324,4.0228,3.9914,3.9183,3.8773,3.8257,3.7465,3.7306,3.6928,3.6179,3.5076,3.3879,3.2577,3.1451,3.0621,3.0079,2.9947,2.9892,2.9892,2.9892,2.9892,2.9892,2.9892,2.9892,2.9892,2.9892,2.9892,5.2794,5.2586,5.2203,5.1633,5.0942,5.0286,4.9855,4.9361,4.9001,4.9001,4.9001,4.9001,4.9001,4.9001,4.9001,4.9001,4.9272,4.9612,4.9923,5.045,5.0859,5.1028,5.1592,5.192,5.1796,5.2159,5.2391,5.2391,5.2391,5.2391,5.2391,5.2391,5.2391,5.2391,5.2391,5.1929,5.0983,4.9316,4.8354,4.8177,4.8558,4.8604,4.8334,4.844,4.8349,4.8103,4.7884,4.7805,4.7805,4.7805,4.7805,4.7805,4.7805,4.7805,4.7805,4.7805,4.7805,4.7805,4.7805,4.7009,4.5722,4.4103,4.3258,4.2497,4.0585,4.0016,3.9928,3.9645,3.9576,3.9609,3.9609,3.9777,3.9958,3.9958,4.0126,4.0294,4.0294,4.0294,4.0391,4.0679,4.098,4.1213,4.1213,4.1213,4.1057,4.0699,4.0176,3.9679,3.9338,3.8704,3.7886,3.6837,3.6746,3.6339,3.5345,3.432,3.3397,3.2609,3.1442,3.069,3.047,3.0296,3.0204,3.0204,3.0204,3.0204,3.0204,3.0204,3.0204,3.0204,3.0204,3.0204,5.2794,5.2806,5.275,5.2468,5.1621,5.0845,5.0643,4.9768,4.9001,4.9001,4.9001,4.9001,4.9001,4.9086,4.9154,4.9154,4.9763,5.0207,5.0116,5.1227,5.1967,5.1675,5.2206,5.2535,5.2409,5.2391,5.2391,5.2391,5.2391,5.2391,5.2391,5.2391,5.2441,5.254,5.254,5.2018,5.0954,4.95,4.8952,4.9292,4.9381,4.9253,4.8972,4.8839,4.8614,4.8305,4.8146,4.8052,4.8052,4.8052,4.8052,4.8052,4.8052,4.8052,4.8052,4.8052,4.8052,4.8052,4.8052,4.7209,4.5957,4.4923,4.3847,4.2631,4.1263,4.0715,4.0544,4.015,3.9935,3.9813,3.9813,4.0162,4.0499,4.0499,4.0848,4.1213,4.1213,4.1213,4.1213,4.1213,4.1213,4.1213,4.1213,4.1213,4.1184,4.1086,4.013,3.9385,3.9308,3.8645,3.7605,3.6063,3.591,3.5438,3.431,3.341,3.2841,3.2724,3.1546,3.0873,3.0873,3.0534,3.036,3.036,3.036,3.036,3.036,3.036,3.036,3.036,3.036,3.036,5.2828,5.2872,5.2772,5.1952,5.1325,5.0751,5.017,4.9496,4.9001,4.9001,4.9001,4.9001,4.9001,4.9492,4.9898,4.9898,5.0541,5.1169,5.1647,5.1782,5.1998,5.2357,5.2433,5.2427,5.2391,5.2391,5.2391,5.2391,5.2391,5.2391,5.2391,5.2391,5.2638,5.32,5.3235,5.2736,5.1722,5.1429,5.0617,4.9307,4.9823,4.9824,4.9406,4.992,4.9894,4.9407,4.9398,4.9374,4.9374,4.9374,4.9374,4.9374,4.9374,4.9374,4.9374,4.9374,4.9374,4.9374,4.9374,4.801,4.6091,4.4957,4.3847,4.2618,4.1033,4.0862,4.1041,4.0483,4.0628,4.0908,4.0908,4.098,4.1052,4.1052,4.1124,4.1213,4.1213,4.1213,4.1213,4.1213,4.1213,4.1213,4.1213,4.1213,4.1,4.0467,4.0205,3.9843,3.9356,3.8287,3.7121,3.6033,3.591,3.516,3.3316,3.3,3.2533,3.1722,3.1442,3.1309,3.1309,3.1244,3.1208,3.1208,3.1208,3.1208,3.1208,3.1208,3.1208,3.1208,3.1208,3.1208,5.2806,5.2901,5.285,5.2227,5.1482,5.0805,5.0401,4.9625,4.9001,4.9001,4.9001,4.9001,4.9001,4.9593,5.01,5.01,5.1048,5.1812,5.1934,5.2184,5.2398,5.2501,5.2445,5.2391,5.2391,5.2391,5.2391,5.2391,5.2391,5.2391,5.2391,5.2721,5.3251,5.3945,5.3574,5.3045,5.2428,5.1983,5.1238,5.0287,5.0447,5.0338,5.0029,5.0219,5.0086,4.9693,4.9693,4.9693,4.9693,4.9693,4.9693,4.9693,4.9693,4.9693,4.9693,4.9693,4.9693,4.9693,4.9693,4.8209,4.6212,4.5668,4.4217,4.2486,4.141,4.126,4.1355,4.0942,4.0992,4.1213,4.1213,4.1213,4.1213,4.1213,4.1213,4.1213,4.1213,4.1213,4.1213,4.1213,4.1213,4.1213,4.1213,4.0913,4.0583,4.0264,3.9638,3.9108,3.8823,3.7514,3.6339,3.5674,3.5582,3.4653,3.232,3.2128,3.1905,3.1442,3.141,3.141,3.141,3.141,3.141,3.141,3.141,3.141,3.141,3.141,3.141,3.141,3.141,3.141,5.2839,5.2893,5.289,5.2588,5.1683,5.0832,5.072,4.9826,4.9001,4.9001,4.9001,4.9052,4.9204,4.983,5.0388,5.0556,5.1691,5.2454,5.2152,5.2569,5.2798,5.248,5.2409,5.2391,5.2391,5.2391,5.2391,5.2391,5.254,5.2623,5.2623,5.3268,5.3888,5.4446,5.3837,5.3295,5.2837,5.2163,5.1583,5.112,5.0902,5.0656,5.0405,5.0198,4.9951,4.9693,4.9693,4.9693,4.9693,4.9693,4.9693,4.9693,4.9693,4.9693,4.9693,4.9693,4.9693,4.9693,4.9693,4.8209,4.6281,4.6162,4.4468,4.2413,4.1875,4.1663,4.1549,4.1287,4.1213,4.1213,4.1213,4.1213,4.1213,4.1213,4.1213,4.1213,4.1213,4.1213,4.1213,4.1213,4.1213,4.1213,4.1213,4.0641,4.0194,4.0194,3.9226,3.8436,3.8216,3.7099,3.5981,3.5067,3.485,3.3862,3.1593,3.141,3.141,3.141,3.141,3.141,3.141,3.141,3.141,3.141,3.141,3.141,3.141,3.141,3.141,3.141,3.141,3.141,5.3009,5.2893,5.2783,5.2631,5.1647,5.0724,5.0693,4.9826,4.9001,4.9001,4.9001,4.9204,4.988,5.0608,5.1319,5.1995,5.2824,5.3315,5.3095,5.2957,5.2816,5.2623,5.2464,5.2391,5.2391,5.2391,5.2391,5.2391,5.2953,5.3299,5.3299,5.3995,5.4368,5.4318,5.4255,5.3708,5.2632,5.2558,5.1957,5.0831,5.0807,5.0561,5.0135,5.011,4.9951,4.9693,4.9693,4.9693,4.9693,4.9693,4.9693,4.9693,4.9693,4.9693,4.9693,4.9693,4.9693,4.9693,4.9693,4.8209,4.6215,4.5674,4.4129,4.2441,4.2142,4.1859,4.1549,4.1287,4.1213,4.1213,4.1213,4.1213,4.1213,4.1213,4.1213,4.1213,4.1213,4.1213,4.1213,4.1213,4.1213,4.1213,4.1213,4.0641,4.0194,4.0194,3.962,3.8871,3.7962,3.7711,3.6692,3.4187,3.3464,3.2661,3.1506,3.141,3.141,3.141,3.141,3.141,3.141,3.141,3.141,3.141,3.141,3.141,3.141,3.141,3.141,3.141,3.141,3.141,5.302,5.2893,5.2772,5.2624,5.1916,5.1157,5.0792,5.0096,4.9453,4.9061,4.9001,4.9221,4.9949,5.071,5.1438,5.2181,5.2976,5.3416,5.323,5.3127,5.2955,5.2624,5.2552,5.2481,5.2409,5.2391,5.2574,5.297,5.4061,5.4723,5.4723,5.5005,5.5333,5.5735,5.5205,5.4427,5.3437,5.288,5.1995,5.0807,5.0671,5.0447,5.0086,4.9926,4.9805,4.9693,4.9693,4.9693,4.9693,4.9693,4.9693,4.9693,4.9693,4.9693,4.9693,4.9693,4.9693,4.9644,4.934,4.7844,4.5965,4.5395,4.3744,4.1919,4.1631,4.1471,4.1344,4.1242,4.1213,4.1213,4.1213,4.1213,4.1213,4.1213,4.1213,4.1213,4.1213,4.1213,4.1213,4.1213,4.1213,4.1213,4.1213,4.0641,4.0194,4.0194,3.9019,3.8006,3.7594,3.6145,3.4757,3.3672,3.3505,3.2895,3.1538,3.141,3.141,3.141,3.141,3.141,3.141,3.141,3.141,3.141,3.141,3.141,3.141,3.141,3.141,3.141,3.141,3.141,5.3009,5.2893,5.2772,5.2624,5.2108,5.15,5.1061,5.0418,4.9774,4.9348,4.9123,4.9221,4.9949,5.071,5.1438,5.2181,5.2976,5.345,5.3314,5.3247,5.3093,5.2799,5.2659,5.2553,5.248,5.2591,5.3069,5.3978,5.5021,5.57,5.5899,5.5932,5.5919,5.5908,5.4989,5.4067,5.319,5.2516,5.1704,5.0704,5.0581,5.0318,4.999,4.9805,4.9693,4.9693,4.9693,4.9693,4.9693,4.9693,4.9693,4.9693,4.9693,4.9693,4.9693,4.9693,4.9595,4.9414,4.9019,4.7487,4.5582,4.5101,4.3426,4.1549,4.1287,4.1213,4.1213,4.1213,4.1213,4.1213,4.1213,4.1213,4.1213,4.1213,4.1213,4.1213,4.1213,4.1213,4.1213,4.1213,4.1213,4.1213,4.1213,4.0496,3.9873,3.9656,3.8104,3.6787,3.6299,3.4496,3.3133,3.2848,3.2978,3.2619,3.1506,3.141,3.141,3.141,3.141,3.141,3.141,3.141,3.141,3.141,3.141,3.141,3.141,3.141,3.141,3.141,3.141,3.141,5.3031,5.2893,5.2772,5.2624,5.2108,5.1588,5.1588,5.071,4.9904,4.989,4.9424,4.9221,4.9949,5.071,5.1438,5.2181,5.2976,5.3501,5.3501,5.3331,5.3196,5.3196,5.2834,5.2589,5.2589,5.3076,5.3995,5.5485,5.5601,5.5916,5.665,5.6699,5.5868,5.4083,5.3124,5.217,5.1238,5.1214,5.097,5.0501,5.0501,5.0222,4.9693,4.9693,4.9693,4.9693,4.9693,4.9693,4.9693,4.9693,4.9693,4.9693,4.9693,4.9693,4.9693,4.9693,4.9365,4.8895,4.8895,4.7231,4.5061,4.4725,4.3247,4.1549,4.1287,4.1213,4.1213,4.1213,4.1213,4.1213,4.1213,4.1213,4.1213,4.1213,4.1213,4.1213,4.1213,4.1213,4.1213,4.1213,4.1213,4.1213,4.1213,4.0159,3.9078,3.8432,3.6937,3.5325,3.3639,3.3114,3.2502,3.1529,3.141,3.141,3.141,3.141,3.141,3.141,3.141,3.141,3.141,3.141,3.141,3.141,3.141,3.141,3.141,3.141,3.141,3.141,3.141,3.141,5.3153,5.3049,5.2934,5.2883,5.2579,5.2191,5.1824,5.1061,5.0331,4.9974,4.9424,4.9221,4.9949,5.071,5.1438,5.2181,5.2976,5.3501,5.3501,5.3331,5.3144,5.3007,5.2676,5.2645,5.3108,5.3767,5.4558,5.5535,5.6084,5.6448,5.6699,5.6083,5.5772,5.5829,5.4927,5.4025,5.3124,5.2298,5.1411,5.0501,5.0318,5.0038,4.9693,4.9693,4.9693,4.9693,4.9693,4.9693,4.9693,4.9693,4.9693,4.9693,4.9693,4.9693,4.9659,4.9291,4.9044,4.8795,4.8055,4.6466,4.467,4.4195,4.2812,4.1316,4.1242,4.1213,4.1213,4.1213,4.1213,4.1213,4.1213,4.1213,4.1213,4.1213,4.1213,4.1213,4.1213,4.1213,4.1213,4.1213,4.1213,4.1057,4.0612,3.9603,3.8666,3.8041,3.6185,3.4694,3.4143,3.2997,3.2093,3.1782,3.1548,3.141,3.141,3.141,3.141,3.141,3.141,3.141,3.141,3.141,3.141,3.141,3.141,3.141,3.141,3.141,3.141,3.141,3.141,3.141,5.3153,5.3053,5.2988,5.2883,5.2721,5.2454,5.1861,5.1191,5.0548,5.0017,4.9424,4.9137,4.9593,5.0524,5.1353,5.1809,5.279,5.3467,5.3399,5.3281,5.3093,5.2816,5.2605,5.2826,5.3732,5.4227,5.4922,5.5932,5.6432,5.6699,5.6699,5.6143,5.5928,5.6162,5.4948,5.4025,5.3496,5.2282,5.1271,5.0501,5.0246,4.9951,4.9693,4.9693,4.9693,4.9693,4.9693,4.9693,0.0,4.9693,4.9693,4.9693,4.9693,4.9693,4.9634,4.9093,4.877,4.847,4.7596,4.598,4.4249,4.3907,4.2628,4.1213,4.1213,4.1213,4.1213,4.1213,4.1213,4.1213,4.1213,4.1213,4.1213,4.1213,4.1213,4.1213,4.1213,4.1213,4.1213,4.1213,4.1213,4.0872,3.9808,3.8933,3.7929,3.6692,3.4984,3.3757,3.3483,3.2435,3.1717,3.1717,3.1515,3.141,3.141,3.141,3.141,3.141,3.141,3.141,3.141,3.141,3.141,3.141,3.141,3.141,3.141,3.141,3.141,3.141,3.141,3.141,0.0,5.302,5.2948,5.2698,5.2613,5.2454,5.183,5.1165,0.0,5.0056,4.9453,4.9001,4.9001,5.0203,5.1201,5.1201,5.2486,5.3416,5.323,5.3179,5.3024,5.2707,5.2604,5.3098,5.446,5.4525,5.5104,5.66,5.6699,5.6699,5.6699,5.6699,5.6297,5.5434,5.3703,5.2725,5.2606,5.1457,5.0751,5.0501,5.0222,4.9926,4.9693,4.9693,4.9693,4.9693,4.9693,4.9693,4.9693,4.9693,4.9693,4.9693,4.9693,4.9683,4.9585,4.9044,4.8481,4.7976,4.7416,4.5741,4.3782,4.3672,4.2528,4.1213,4.1213,4.1213,4.1213,4.1213,4.1213,4.1213,4.1213,4.1213,4.1213,4.1213,4.1213,4.1213,4.1213,4.1213,4.1213,4.1213,4.1213,4.0658,3.8969,3.8149,3.6946,3.4684,3.3473,3.2575,3.2015,3.1612,3.141,3.1442,3.141,3.141,3.141,3.141,3.141,3.141,3.141,3.141,3.141,3.141,3.141,3.141,3.141,3.141,3.141,3.141,3.141,3.141,3.141,3.141,5.3164,0.0,5.3103,5.2955,5.2828,5.2676,0.0,5.1492,5.0653,5.0535,4.9713,4.9001,4.9001,5.0203,5.1201,5.1201,5.2486,5.3416,5.323,5.2938,5.2876,5.3175,5.276,5.3223,5.5154,5.4839,5.5104,5.66,5.6699,5.6699,5.6699,5.6699,5.6603,5.6391,5.5271,5.3988,5.2628,5.1896,5.1201,5.0501,5.0014,4.9756,4.9693,4.9693,4.9693,4.9693,4.9693,4.9693,4.9693,4.9693,4.9693,4.9693,4.9693,4.9463,4.9019,4.8481,4.7965,4.7416,4.6887,4.5435,4.3589,4.2247,4.1533,4.1213,4.1213,4.1213,4.1213,4.1213,4.1213,4.1213,4.1213,4.1213,4.1213,4.1213,4.1213,4.1213,4.1213,4.1213,4.1213,4.1213,4.1213,4.0612,3.8707,3.7418,3.6041,3.4278,3.2743,3.1891,3.223,3.1772,3.1515,3.175,3.1548,3.141,3.141,3.141,3.141,3.141,3.141,3.141,3.141,3.141,3.141,3.141,3.141,3.141,3.141,3.141,3.141,3.141,3.141,3.141,5.3196,5.3196,5.3175,5.3031,5.2893,5.2705,5.232,5.1447,5.0711,5.0711,4.9797,4.9077,4.9364,5.0391,5.1201,5.1201,5.242,5.3281,5.3076,5.2868,5.2809,5.2996,5.2714,5.3176,5.4922,5.474,5.5104,5.66,5.6699,5.6699,5.6699,5.6699,5.6508,5.6067,5.5555,5.4741,5.3561,5.2402,5.1474,5.0813,5.0072,4.9693,4.9693,4.9693,4.9693,4.9693,4.9693,4.9693,4.9693,4.9693,4.9693,4.9683,4.9424,4.9168,4.8795,4.8016,4.7545,4.7224,4.6678,4.5301,4.3507,4.1761,4.1213,4.1213,4.1213,4.1213,4.1213,4.1213,4.1213,4.1213,4.1213,4.1213,4.1213,4.1213,4.1213,4.1213,4.1213,4.1213,4.1213,4.1213,4.0687,3.965,3.7719,3.6286,3.4819,3.3019,3.1978,3.1538,3.1901,3.1603,3.1474,3.1644,3.1515,3.141,3.141,3.141,3.141,3.141,3.141,3.141,3.141,3.141,3.141,3.141,3.141,3.141,3.141,3.141,3.141,3.141,3.141,3.141,5.3196,5.3185,5.3153,5.3031,5.2893,5.2642,5.2054,5.1358,5.0832,5.0832,4.9942,4.9322,4.9958,5.069,5.1235,5.1353,5.237,5.3076,5.2886,5.2834,5.2797,5.2737,5.262,5.3132,5.4543,5.4574,5.5104,5.66,5.6699,5.6699,5.6699,5.6699,5.6336,5.5535,5.5515,5.5288,5.4805,5.2812,5.162,5.1271,5.0211,4.9693,4.9693,4.9693,4.9693,4.9693,4.9693,4.9693,4.9693,4.9693,4.9693,4.9644,4.9192,4.892,4.867,4.775,4.7327,4.7069,4.635,4.5087,4.3507,4.1761,4.1213,4.1213,4.1213,4.1213,4.1213,4.1213,4.1213,4.1213,4.1213,4.1213,4.1213,4.1213,4.1213,4.1213,4.1213,4.1213,4.1184,4.1057,4.0024,3.8525,3.658,3.516,3.3694,3.1818,3.1474,3.1442,3.1538,3.1474,3.141,3.1474,3.1442,3.141,3.141,3.141,3.141,3.141,3.141,3.141,3.141,3.141,3.141,3.141,3.141,3.141,3.141,3.141,3.141,3.141,3.141,3.141,5.3196,5.3114,5.302,5.3009,5.2893,5.275,5.2534,5.1958,5.1457,5.1457,5.056,4.998,5.0691,5.1033,5.1404,5.2029,5.2589,5.2868,5.2659,5.2535,5.2678,5.3221,5.2792,5.3221,5.5237,5.4872,5.5104,5.66,5.6699,5.6699,5.6699,5.6699,5.6641,5.6489,5.6489,5.6096,5.5307,5.2967,5.1766,5.1697,5.035,4.9693,4.9693,4.9693,4.9693,4.9693,4.9693,4.9693,4.9693,4.9693,4.9693,4.9693,4.9595,4.9029,4.8204,4.8027,4.7403,4.6376,4.4777,4.4029,4.3507,4.1761,4.1213,4.1213,4.1213,4.1213,4.1213,4.1213,4.1213,4.1213,4.1213,4.1213,4.1213,4.1213,4.1213,4.1213,4.1213,4.1213,4.1028,4.0467,3.9504,3.8197,3.6287,3.4798,3.3527,3.2403,3.1772,3.1612,3.2157,3.1763,3.1515,3.1782,3.158,3.141,3.141,3.141,3.141,3.141,3.141,3.141,3.141,3.141,3.141,3.141,3.141,3.141,3.141,3.141,3.141,3.141,3.141,3.141,5.3196,5.3164,5.3092,5.302,5.285,5.2608,5.225,5.1615,5.1209,5.1525,5.0436,4.984,5.1223,5.1333,5.1508,5.2472,5.2875,5.2955,5.2641,5.264,5.2739,5.2948,5.2698,5.3177,5.4839,5.4707,5.5104,5.66,5.6699,5.6699,5.6699,5.6699,5.6699,5.6699,5.6699,5.6388,5.579,5.403,5.2707,5.1842,5.0373,4.9693,4.9693,4.9693,4.9693,4.9693,4.9693,4.9693,4.9693,4.9693,4.9693,4.9644,4.9054,4.8517,4.8027,4.7454,4.6925,4.6245,4.4424,4.381,4.3507,4.1761,4.1213,4.1213,4.1213,4.1213,4.1213,4.1213,4.1213,4.1213,4.1213,4.1213,4.1213,4.1213,4.1213,4.1213,4.1213,4.1213,4.1127,4.0798,3.9515,3.797,3.6388,3.4705,3.3209,3.2019,3.1603,3.1506,3.1836,3.1603,3.1451,3.1612,3.1474,3.141,3.141,3.141,3.141,3.141,3.141,3.141,3.141,3.141,3.141,3.141,3.141,3.141,3.141,3.141,3.141,3.141,3.141,3.141,5.3196,5.3175,5.3124,5.302,5.2828,5.2499,5.1934,5.1332,5.1061,5.1565,5.0504,5.0028,5.1885,5.1939,5.2015,5.284,5.3059,5.3007,5.2641,5.2711,5.2728,5.257,5.2552,5.3064,5.4378,5.4508,5.5104,5.66,5.6699,5.6699,5.6699,5.6699,5.6699,5.6699,5.6699,5.6447,5.5947,5.4674,5.3384,5.204,5.0627,4.9863,4.9693,4.9693,4.9693,4.9693,4.9693,4.9693,4.9693,4.9693,4.9693,4.962,4.8806,4.8316,4.7976,4.6899,4.6364,4.5941,4.4357,4.3672,4.323,4.1704,4.1213,4.1213,4.1213,4.1213,4.1213,4.1213,4.1213,4.1213,4.1213,4.1213,4.1213,4.1213,4.1213,4.1213,4.1213,4.1213,4.1156,4.1,3.9339,3.758,3.6408,3.4435,3.2689,3.1676,3.1442,3.141,3.141,3.141,3.141,3.141,3.141,3.141,3.141,3.141,3.141,3.141,3.141,3.141,3.141,3.141,3.141,3.141,3.141,3.141,3.141,3.141,3.141,3.141,3.1309,3.1272,5.3196,5.3103,5.3009,5.2999,5.2883,5.2608,5.1946,5.1663,5.1594,5.1835,5.1318,5.1315,5.2837,5.3232,5.3298,5.3196,5.3024,5.2851,5.2624,5.2516,5.2427,5.2409,5.2409,5.2955,5.4359,5.4508,5.5104,5.66,5.6699,5.6699,5.6699,5.6699,5.6699,5.6699,5.6699,5.629,5.5466,5.4009,5.3039,5.2523,5.1294,5.0355,4.9693,4.9693,4.9693,4.9693,4.9693,4.9693,4.9693,4.9693,4.9693,4.9693,4.962,4.898,4.7976,4.6899,4.5941,4.506,4.4139,4.327,4.2428,4.1488,4.1213,4.1213,4.1213,4.1213,4.1213,4.1213,4.1213,4.1213,4.1213,4.1213,4.1213,4.1213,4.1213,4.1213,4.1213,4.1213,4.1012,4.038,3.8447,3.6692,3.6053,3.3745,3.1983,3.1887,3.1612,3.141,3.141,3.141,3.141,3.141,3.141,3.141,3.141,3.141,3.141,3.141,3.141,3.141,3.141,3.141,3.141,3.141,3.141,3.141,3.141,3.141,3.141,3.1401,3.1033,3.0827,5.3196,5.3103,5.2999,5.2999,5.2893,5.262,5.1958,5.1465,5.1271,5.1642,5.1029,5.0886,5.2368,5.3108,5.3416,5.323,5.3024,5.2834,5.2624,5.2481,5.2391,5.2391,5.2391,5.2937,5.4359,5.4508,5.5104,5.66,5.6699,5.6699,5.6699,5.6699,5.6699,5.6699,5.6463,5.603,5.5409,5.4142,5.3064,5.2154,5.0754,4.9985,4.9693,4.9693,4.9693,4.9693,4.9693,4.9693,4.9693,4.9693,4.9693,4.962,4.898,4.8052,4.7055,4.6652,4.5914,4.4979,4.4111,4.3215,4.2356,4.1488,4.1213,4.1213,4.1213,4.1213,4.1213,4.1213,4.1213,4.1213,4.1213,4.1213,4.1213,4.1213,4.1213,4.1213,4.1213,4.1213,4.0872,3.9779,3.8577,3.7127,3.5273,3.3965,3.2858,3.2047,3.1782,3.1717,3.1717,3.1515,3.141,3.141,3.141,3.141,3.141,3.141,3.141,3.141,3.141,3.141,3.141,3.141,3.141,3.141,3.141,3.141,3.141,3.141,3.1281,3.1011,3.0855,3.0653,5.3143,5.3082,5.2988,5.2955,5.2893,5.271,5.2191,5.1799,5.1608,5.1728,5.1447,5.1471,5.2486,5.3129,5.345,5.3315,5.3127,5.2921,5.2712,5.2552,5.2445,5.2408,5.2391,5.2937,5.4359,5.4508,5.5104,5.66,5.6699,5.6699,5.6699,5.6699,5.6699,5.6699,5.6307,5.587,5.5389,5.4045,5.2851,5.188,5.0412,4.9693,4.9693,4.9693,4.9693,4.9693,4.9693,4.9693,4.9693,4.9693,4.9595,4.934,4.8255,4.7403,4.673,4.6547,4.5728,4.4614,4.4002,4.3048,4.1988,4.1385,4.1213,4.1213,4.1213,4.1213,4.1213,4.1213,4.1213,4.1213,4.1213,4.1213,4.1213,4.1213,4.1213,4.1213,4.1213,4.0872,4.0298,3.9375,3.822,3.6775,3.4871,3.3933,3.308,3.2047,3.1823,3.175,3.175,3.1548,3.141,3.141,3.141,3.141,3.141,3.141,3.141,3.141,3.141,3.141,3.141,3.141,3.141,3.141,3.141,3.141,3.141,3.1281,3.1079,3.0781,3.0525,3.0259,5.2999,5.2999,5.2977,5.2828,5.2893,5.2926,5.2665,5.2816,5.2832,5.2245,5.284,5.3501,5.3501,5.3501,5.3501,5.3501,5.3331,5.3127,5.2921,5.2729,5.2552,5.2409,5.2391,5.2937,5.4343,5.4508,5.5104,5.6583,5.6699,5.6699,5.6699,5.6699,5.6699,5.6699,5.6323,5.587,5.5389,5.3518,5.2358,5.188,5.0412,4.9693,4.9693,4.9693,4.9693,4.9693,4.9693,4.9693,4.9693,4.9693,4.9375,4.8795,4.771,4.7288,4.7196,4.6691,4.5342,4.3784,4.3797,4.2644,4.1189,4.1201,4.1172,4.1172,4.1172,4.1172,4.1172,4.1172,4.1172,4.1172,4.1172,4.1172,4.1201,4.1213,4.1213,4.1213,4.1213,4.017,3.9216,3.9187,3.7147,3.5314,3.4943,3.3493,3.2294,3.1951,3.1612,3.141,3.141,3.141,3.141,3.141,3.141,3.141,3.141,3.141,3.141,3.141,3.141,3.141,3.141,3.141,3.141,3.141,3.141,3.141,3.1401,3.0983,3.0781,3.0754,2.9978,2.9601,5.3153,5.2999,5.2861,5.2934,5.2839,5.2844,5.3329,5.3285,5.313,5.3097,5.3194,5.3329,5.3466,5.3501,5.3501,5.3501,5.3331,5.3179,5.311,5.2816,5.2588,5.2552,5.2463,5.2756,5.3631,5.4194,5.4889,5.5849,5.6398,5.6699,5.6699,5.6699,5.6699,5.6699,5.5994,5.5548,5.5389,5.3212,5.204,5.188,5.0412,4.9693,4.9693,4.9693,4.9693,4.9693,4.9693,4.9693,4.964,4.8826,4.8189,4.7588,4.6456,4.5816,4.5463,4.5285,4.4486,4.3362,4.2805,4.185,4.0835,4.0261,4.0066,4.0066,4.0066,4.0066,4.0066,4.0066,4.0066,4.0066,4.0066,4.0066,4.0258,4.1004,4.1213,4.1213,4.1213,4.0872,3.9984,3.7917,3.6894,3.5622,3.3219,3.2571,3.2358,3.2262,3.1974,3.1685,3.1442,3.141,3.141,3.141,3.141,3.141,3.141,3.141,3.141,3.141,3.141,3.141,3.141,3.141,3.141,3.141,3.141,3.1272,3.0965,3.0846,3.0529,2.9959,2.9712,2.9455,5.2977,5.2839,5.2739,5.2791,5.2942,5.3372,5.4498,5.4344,5.4085,5.4513,5.4113,5.3715,5.3845,5.3651,5.3501,5.3501,5.3399,5.3281,5.3196,5.2921,5.2694,5.2606,5.248,5.2673,5.3316,5.4061,5.4806,5.5551,5.6282,5.6699,5.6699,5.6699,5.6699,5.6699,5.5854,5.525,5.4971,5.2668,5.1349,5.1051,4.9636,4.8952,4.8952,4.9175,4.9291,4.9291,4.9054,4.8952,4.8875,4.7748,4.7104,4.668,4.5603,4.498,4.4705,4.4705,4.4106,4.3191,4.2395,4.152,4.0671,3.9861,3.9609,3.9609,3.9609,3.9609,3.9609,3.9609,3.9609,3.9609,3.9609,3.9609,3.9765,4.0403,4.0559,4.0619,4.0824,4.0061,3.884,3.7133,3.5949,3.455,3.2284,3.2079,3.2166,3.2029,3.1836,3.1612,3.1442,3.141,3.141,3.141,3.141,3.141,3.141,3.141,3.141,3.141,3.141,3.1336,3.118,3.1327,3.1336,3.1148,3.1171,3.0947,3.0552,3.0387,3.0079,2.9601,2.9445,2.9234,5.2676,5.2613,5.2586,5.2526,5.3207,5.4305,5.5831,5.571,5.5477,5.6182,5.5335,5.4469,5.4407,5.3946,5.3551,5.3501,5.3501,5.3433,5.3247,5.3041,5.2851,5.2641,5.2499,5.264,5.3251,5.3962,5.4674,5.5353,5.6084,5.65,5.65,5.65,5.65,5.65,5.5658,5.4897,5.4215,5.1994,5.0517,4.9794,4.8521,4.7852,4.782,4.8377,4.8614,4.8585,4.8029,4.7805,4.7697,4.6574,4.6111,4.6013,4.4954,4.4542,4.4542,4.4542,4.3996,4.3137,4.2266,4.1422,4.0631,3.9743,3.9453,3.9453,3.9453,3.9453,3.9453,3.9453,3.9453,3.9453,3.9453,3.9453,3.9453,3.9453,3.9537,3.9741,4.0222,3.8453,3.6761,3.6648,3.4707,3.2796,3.1894,3.1743,3.1638,3.1341,3.1368,3.1387,3.1355,3.1391,3.141,3.141,3.1382,3.1355,3.1355,3.1327,3.13,3.13,3.13,3.1143,3.0754,3.1112,3.1171,3.0745,3.0736,3.0543,3.014,2.9794,2.9583,2.9537,2.9179,2.9014,5.2915,5.2754,5.2608,5.2586,5.3624,5.4907,5.5825,5.6401,5.6686,5.6506,5.5773,5.5024,5.4501,5.4297,5.4059,5.3568,5.3501,5.3484,5.345,5.3264,5.3059,5.2851,5.2659,5.2583,5.2607,5.3235,5.3697,5.3862,5.4558,5.4972,5.4972,5.4972,5.4972,5.4972,5.4192,5.3686,5.3531,5.1779,5.0559,4.986,4.8997,4.8326,4.7805,4.7936,4.7985,4.7985,4.7863,4.7805,4.7668,4.6144,4.5488,4.535,4.3858,4.328,4.328,4.328,4.3169,4.2773,4.127,4.0645,4.0246,3.8816,3.8334,3.8334,3.8334,3.8334,3.8334,3.8334,3.8334,3.8334,3.8334,3.8334,3.8334,3.8334,3.8984,3.9633,3.9753,3.9336,3.8215,3.5796,3.4833,3.3628,3.1025,3.0554,3.0554,3.0451,3.096,3.1226,3.0951,3.1217,3.141,3.141,3.1134,3.0919,3.0919,3.0635,3.0451,3.0451,3.0451,3.0415,3.0332,3.0708,3.0726,3.0332,3.0332,3.0121,2.9739,2.9647,2.9445,2.9133,2.9051,2.9014,5.2831,5.271,5.2779,5.352,5.4574,5.5631,5.6391,5.6911,5.7125,5.6889,5.6294,5.5716,5.5364,5.4809,5.4297,5.3979,5.3684,5.3501,5.3501,5.3331,5.3127,5.2921,5.2712,5.2552,5.2409,5.3003,5.3399,5.3399,5.4078,5.4508,5.4508,5.4508,5.4508,5.4508,5.3719,5.298,5.2295,5.1085,4.9935,4.8878,4.8216,4.7537,4.6905,4.7187,4.7158,4.6905,4.6905,4.6905,4.6792,4.5425,4.486,4.4738,4.3406,4.2911,4.2911,4.2911,4.2911,4.2655,4.0982,4.0414,4.0135,3.8516,3.8012,3.8012,3.8012,3.8012,3.8012,3.8012,3.8012,3.8012,3.8012,3.8012,3.8012,3.8012,3.8445,3.89,3.9164,3.8745,3.7684,3.554,3.452,3.3224,3.0855,3.0328,3.0204,3.0204,3.0525,3.0716,3.0538,3.069,3.0818,3.0818,3.0626,3.0506,3.0506,3.0314,3.0204,3.0204,3.0204,3.0112,2.991,3.0125,3.0143,2.9932,2.9901,2.97,2.9317,2.9317,2.9216,2.8984,2.834,2.8032,5.2732,5.2733,5.3167,5.4713,5.554,5.6223,5.7007,5.7188,5.7188,5.7188,5.6811,5.642,5.6311,5.5437,5.4672,5.4438,5.3979,5.3618,5.3517,5.3365,5.3161,5.2921,5.2746,5.2588,5.2409,5.2904,5.3235,5.3235,5.378,5.4127,5.4127,5.4127,5.4125,5.4035,5.3305,5.2336,5.1095,5.0346,4.9251,4.7814,4.7081,4.6425,4.5932,4.6409,4.6374,4.5903,4.5903,4.5903,4.5813,4.4806,4.4387,4.4294,4.3297,4.2911,4.2911,4.2911,4.2911,4.2655,4.0982,4.0414,4.0135,3.8516,3.8012,3.8012,3.8012,3.8012,3.8012,3.8012,3.8012,3.8012,3.8012,3.8012,3.8012,3.8012,3.8012,3.8106,3.8575,3.7657,3.6448,3.5378,3.3663,3.1955,3.0649,3.0168,2.9993,2.9993,3.0048,3.0094,3.0094,3.0158,3.0204,3.0204,3.014,3.0094,3.0094,3.003,2.9993,2.9993,2.9993,2.9828,2.9519,2.9501,2.9501,2.9501,2.9501,2.9335,2.9014,2.9014,2.9014,2.8984,2.7873,2.7353,5.2966,5.3294,5.3991,5.5486,5.5933,5.6223,5.7007,5.7188,5.7188,5.7188,5.7138,5.6915,5.6393,5.6156,5.5669,5.4577,5.4328,5.4107,5.3568,5.3484,5.3314,5.2938,5.2868,5.2746,5.2427,5.2491,5.254,5.254,5.2623,5.269,5.269,5.269,5.2511,5.2183,5.1671,5.1128,5.0606,5.0149,4.9242,4.787,4.6631,4.5993,4.5903,4.5967,4.5967,4.5903,4.5903,4.5903,4.5813,4.4806,4.4387,4.4294,4.3297,4.2911,4.2911,4.2911,4.2911,4.2655,4.0982,4.0414,4.0135,3.8516,3.8012,3.8012,3.8012,3.8012,3.8012,3.8012,3.8012,3.8012,3.8012,3.8012,3.8012,3.8012,3.8012,3.8024,3.8082,3.716,3.5881,3.446,3.1888,2.9807,2.9319,2.9209,2.9149,2.9149,2.9464,2.9684,2.9684,2.9975,3.0204,3.0204,2.9874,2.9684,2.9684,2.9372,2.9149,2.9149,2.9149,2.9152,2.9097,2.9097,2.9097,2.9097,2.9097,2.9039,2.9014,2.9014,2.9014,2.9014,2.8826,2.8737,5.3471,5.4007,5.4717,5.574,5.635,5.6772,5.7116,5.7188,5.7188,5.7188,5.7188,5.7112,5.685,5.6528,5.6114,5.5572,5.487,5.4313,5.4043,5.3718,5.3348,5.2955,5.2903,5.2781,5.2427,5.2391,5.2391,5.2391,5.2391,5.2391,5.2391,5.2391,5.232,5.214,5.1452,5.0838,5.0283,4.965,4.8677,4.7336,4.6741,4.6247,4.5903,4.5903,4.5903,4.5903,4.5903,4.5722,4.539,4.4676,4.4233,4.3889,4.3163,4.2911,4.2911,4.2911,4.2911,4.2655,4.0982,4.0414,4.0135,3.8516,3.8012,3.8012,3.8012,3.8012,3.8012,3.8012,3.8012,3.8012,3.8012,3.8012,3.8012,3.8012,3.8012,3.8012,3.8012,3.7054,3.5553,3.3417,3.1217,2.9627,2.9331,2.9133,2.9014,2.9014,2.9161,2.9271,2.9271,2.9436,2.9516,2.9516,2.9381,2.9271,2.9271,2.9115,2.9014,2.9014,2.9014,2.9014,2.9014,2.9014,2.9014,2.9014,2.9014,2.9014,2.9014,2.9014,2.9014,2.8955,2.7444,2.6771,5.4208,5.4868,5.5564,5.62,5.6816,5.7226,5.7219,5.7188,5.7188,5.7188,5.7188,5.7188,5.7188,5.6837,5.6474,5.6325,5.5364,5.4577,5.4422,5.3881,5.3348,5.2955,5.2903,5.2781,5.2427,5.2391,5.2391,5.2391,5.2391,5.2391,5.2391,5.2391,5.2356,5.2248,5.1489,5.0819,5.0209,4.9157,4.8072,4.6894,4.6734,4.638,4.5903,4.5903,4.5903,4.5903,4.5903,4.5677,4.5276,4.4769,4.4266,4.3757,4.3269,4.3008,4.2911,4.2911,4.2911,4.2679,4.1221,4.0604,4.016,3.8765,3.8159,3.8012,3.8012,3.8012,3.8012,3.8012,3.8012,3.8012,3.8012,3.8012,3.8012,3.8012,3.8012,3.7841,3.723,3.6394,3.4947,3.2273,3.0801,2.9922,2.9568,2.9302,2.9103,2.9014,2.9014,2.9014,2.9014,2.9014,2.9014,2.9014,2.9014,2.9014,2.9014,2.9014,2.9014,2.9014,2.9014,2.9014,2.9014,2.9014,2.9014,2.9014,2.9014,2.9014,2.9014,2.9014,2.8826,2.843,2.6437,2.5331,5.5143,5.5903,5.6638,5.7182,5.737,5.7369,5.7244,5.7188,5.7188,5.7188,5.7188,5.7188,5.7188,5.7163,5.6972,5.6393,5.5695,5.5047,5.4468,5.3881,5.3348,5.2955,5.2903,5.2781,5.2427,5.2391,5.2391,5.2391,5.2391,5.2391,5.2391,5.2391,5.223,5.1833,5.1359,5.0892,5.047,4.8805,4.76,4.6894,4.6247,4.5925,4.5903,4.5903,4.5903,4.5903,4.5903,4.588,4.5813,4.5284,4.4792,4.4317,4.378,4.3293,4.2911,4.2911,4.2911,4.279,4.1944,4.1083,4.0262,3.9415,3.8633,3.8012,3.8012,3.8012,3.8012,3.8012,3.8012,3.8012,3.8012,3.8012,3.8012,3.8012,3.8012,3.7376,3.5085,3.4531,3.3709,3.1005,3.0441,3.0186,2.9588,2.9479,2.9361,2.9044,2.9014,2.9014,2.9014,2.9014,2.9014,2.9014,2.9014,2.9014,2.9014,2.9014,2.9014,2.9014,2.9014,2.9014,2.9014,2.9014,2.9014,2.9014,2.9014,2.9014,2.9014,2.9014,2.834,2.7103,2.6952,2.6216,5.5228,5.5999,5.6757,5.7376,5.7449,5.7394,5.7326,5.7251,5.7188,5.7188,5.7188,5.7188,5.7188,5.7188,5.7125,5.6902,5.6362,5.573,5.5129,5.4504,5.3831,5.3179,5.2972,5.2799,5.2552,5.2445,5.2391,5.2391,5.2391,5.2391,5.2391,5.2391,5.232,5.2194,5.1471,5.038,4.8846,4.8204,4.7342,4.6247,4.6015,4.5903,4.5903,4.5903,4.5903,4.5903,4.5903,4.57,4.5344,4.4862,4.4336,4.3828,4.3341,4.3043,4.2911,4.2911,4.2911,4.2704,4.1334,4.0655,4.0185,3.8844,3.8238,3.8012,3.8012,3.8012,3.8012,3.8012,3.8012,3.8012,3.8012,3.8012,3.8012,3.8012,3.8012,3.7349,3.4919,3.4391,3.3663,3.1208,3.0372,3.001,2.9804,2.945,2.9133,2.9014,2.9014,2.9014,2.9014,2.9014,2.9014,2.9014,2.9014,2.9014,2.9014,2.9014,2.9014,2.9014,2.9014,2.9014,2.9014,2.9014,2.9014,2.9014,2.8152,2.7723,2.7723,2.7723,2.7021,2.5698,2.4894,2.4247,5.5675,5.6459,5.7156,5.7569,5.7601,5.7498,5.7412,5.7326,5.7251,5.7219,5.7188,5.7188,5.7188,5.7188,5.7188,5.7188,5.6692,5.6104,5.5473,5.4826,5.4105,5.3298,5.3024,5.2816,5.2606,5.248,5.2391,5.2391,5.2391,5.2391,5.2391,5.2391,5.2266,5.1962,5.1415,5.017,4.8246,4.824,4.7563,4.6239,4.6239,4.6127,4.5903,4.5903,4.5903,4.5903,4.5903,4.57,4.533,4.5023,4.4476,4.3828,4.3522,4.3201,4.2911,4.2911,4.2911,4.2728,4.1619,4.0869,4.0236,3.9144,3.8437,3.8012,3.8012,3.8012,3.8012,3.8012,3.8012,3.8012,3.8012,3.8012,3.8012,3.8012,3.8012,3.7349,3.4919,3.4391,3.3702,3.1363,3.0528,3.0167,2.9922,2.9568,2.9222,2.9044,2.9014,2.9014,2.9014,2.9014,2.9014,2.9014,2.9014,2.9014,2.9014,2.9014,2.9014,2.9014,2.9014,2.9014,2.9014,2.9014,2.9014,2.9014,2.8122,2.7444,2.6983,2.6559,2.5882,2.4963,2.369,2.2858,0.0,0.0,0.0,5.7827,5.7804,5.7733,5.7461,5.7418,5.7381,5.7226,5.7219,5.7201,5.7188,5.7188,5.7188,5.7188,5.6719,5.6118,5.5505,5.4841,5.4121,5.3315,5.3024,5.2816,5.2606,5.248,5.2391,5.2391,5.2391,5.2391,5.2391,5.2391,5.1999,5.1156,5.1118,5.0419,4.8928,4.8928,4.824,4.6894,4.6894,4.6558,4.5903,4.5903,4.5903,4.5903,4.5903,4.5903,4.5903,4.588,4.529,4.4387,4.4387,4.3774,4.2911,4.2911,4.2911,4.2911,4.2863,4.1781,4.0414,4.0363,3.9299,3.8012,3.8012,3.8012,3.8012,3.8012,3.8012,3.8012,3.8012,3.8012,3.8012,3.8012,3.8012,3.7349,3.4974,3.4419,3.3702,3.1363,3.0889,3.0684,3.001,2.9892,2.9695,2.9103,2.9014,2.9014,2.9014,2.9014,2.9014,2.9014,2.9014,2.9014,2.9014,2.9014,2.9014,2.9014,2.9014,2.9014,2.9014,2.9014,2.9014,2.9014,2.8955,2.8301,2.6983,2.5698,2.5025,2.4902,2.3636,2.2341,5.6737,0.0,0.0,0.0,0.0,0.0,5.7709,5.7607,5.7516,5.7363,5.7338,5.7332,5.7232,5.7188,5.7188,5.7188,5.7061,5.6595,5.5546,5.5236,5.4641,5.3349,5.3024,5.2816,5.2606,5.248,5.2391,5.2391,5.2391,5.2391,5.2391,5.2391,5.2158,5.1633,5.1614,5.0876,4.9363,4.9343,4.8507,4.6894,4.6894,4.6558,4.5903,4.5903,4.5903,4.5903,4.5903,4.5903,4.5858,4.5481,4.4954,4.4364,4.3983,4.3437,4.2911,4.2911,4.2911,4.2814,4.2239,4.1309,4.0313,3.9712,3.883,3.8012,3.8012,3.8012,3.8012,3.8012,3.8012,3.8012,3.8012,3.8012,3.8012,3.8012,3.8012,3.7575,3.6029,3.5002,3.3702,3.1363,3.0704,3.0392,2.9981,2.9745,2.9479,2.9064,2.9014,2.9014,2.9014,2.9014,2.9014,2.9014,2.9014,2.9014,2.9014,2.9014,2.9014,2.9014,2.9014,2.9014,2.9014,2.9014,2.9014,2.9014,2.8062,2.7383,2.6983,2.6619,2.5476,2.3597,2.2278,2.1443,5.7207,5.7648,5.7997,5.7997,0.0,0.0,5.7745,5.7661,5.7553,5.7369,5.7332,5.7289,5.7201,5.7188,5.7112,5.6863,5.6824,5.6501,5.5531,5.5162,5.4549,5.3332,5.3024,5.2816,5.2606,5.248,5.2391,5.2391,5.2391,5.2391,5.2391,5.2391,5.2212,5.1815,5.1614,5.1005,4.9915,4.9753,4.903,4.7713,4.745,4.6967,4.6314,4.6038,4.5903,4.5903,4.5903,4.5903,4.588,4.5549,4.5023,4.4364,4.4054,4.3522,4.2911,4.2911,4.2911,4.279,4.1993,4.1133,4.0262,3.9467,3.8659,3.8012,3.8012,3.8012,3.8012,3.8012,3.8012,3.8012,3.8012,3.8012,3.8012,3.8012,3.8012,3.7681,3.6449,3.5251,3.3843,3.2008,3.0976,3.0294,2.9951,2.9686,2.939,2.9044,2.9014,2.9014,2.9014,2.9014,2.9014,2.9014,2.9014,2.9014,2.9014,2.9014,2.9014,2.9014,2.9014,2.9014,2.9014,2.9014,2.9014,2.9014,2.7693,2.671,2.6156,2.5629,2.4309,2.2247,2.2034,2.1569,5.7813,5.7997,5.7997,5.7997,5.7997,0.0,5.7697,5.7649,5.7577,5.7313,5.7282,5.7251,5.7257,5.7239,5.7056,5.6515,5.6294,5.6003,5.537,5.478,5.4089,5.3247,5.3007,5.2816,5.2605,5.248,5.2391,5.2391,5.2391,5.2391,5.2391,5.2391,5.223,5.1869,5.1452,5.1024,5.0567,5.0214,4.9606,4.8785,4.8183,4.7514,4.6778,4.6158,4.5903,4.5903,4.5903,4.5903,4.5903,4.5903,4.5313,4.4387,4.4387,4.3798,4.2911,4.2911,4.2911,4.279,4.1993,4.1133,4.0262,3.9467,3.8659,3.8012,3.8012,3.8012,3.8012,3.8012,3.8012,3.8012,3.8012,3.8012,3.8012,3.8012,3.8012,3.7708,3.6623,3.5333,3.4084,3.3045,3.1536,3.0294,2.9951,2.9686,2.939,2.9044,2.9014,2.9014,2.9014,2.9014,2.9014,2.9014,2.9014,2.9014,2.9014,2.9014,2.9014,2.9014,2.9014,2.9014,2.9014,2.9014,2.8925,2.8767,2.7444,2.6125,2.4779,2.3659,2.2459,2.1292,2.2341,2.1996,5.796,5.7997,5.7997,5.7997,5.7997,0.0,5.7939,5.7927,5.7881,5.7721,5.7685,5.7649,5.7541,5.7528,5.7437,5.7208,5.6322,5.5417,5.4686,5.4485,5.4041,5.3059,5.2921,5.2781,5.2463,5.2409,5.2391,5.2391,5.2391,5.2391,5.2391,5.2391,5.2356,5.2284,5.2178,5.1764,5.0986,5.0911,4.9915,4.8093,4.7967,4.7256,4.6083,4.5948,4.5903,4.5903,4.5903,4.5903,4.5903,4.5903,4.5313,4.4387,4.4387,4.3798,4.2911,4.2911,4.2911,4.279,4.1993,4.1133,4.0262,3.9467,3.8659,3.8012,3.8012,3.8012,3.8012,3.8012,3.8012,3.8012,3.8012,3.8012,3.8012,3.8012,3.8012,3.7933,3.7708,3.5936,3.428,3.3838,3.1928,3.0294,2.9951,2.9686,2.939,2.9044,2.9014,2.9014,2.9014,2.9014,2.9014,2.9014,2.9014,2.9014,2.9014,2.9014,2.9014,2.9014,2.9014,2.9014,2.9014,2.9014,2.8489,2.7414,2.6064,2.4771,2.3473,2.3232,2.2827,2.2302,2.1468,2.0761,5.7997,5.7997,5.7997,5.7997,5.7997,0.0,0.0,5.7904,5.7851,5.7733,5.7697,5.7685,5.7613,5.7553,5.7388,5.7,5.6107,5.5317,5.4948,5.4346,5.3683,5.299,5.2903,5.2781,5.2427,5.2391,5.2391,5.2391,5.2391,5.2391,5.2391,5.2391,5.2391,5.2391,5.2212,5.1888,5.145,5.1022,5.026,4.9192,4.8324,4.7557,4.688,4.6202,4.5903,4.5903,4.5903,4.5903,4.5903,4.5903,4.545,4.4746,4.4746,4.4303,4.3632,4.3341,4.3245,4.3101,4.2054,4.1133,4.0262,3.9467,3.8659,3.8012,3.8012,3.8012,3.8012,3.8012,3.8012,3.8012,3.8012,3.8012,3.8012,3.8012,3.8012,3.8012,3.8012,3.61,3.4325,3.4052,3.1928,3.0039,2.9745,2.945,2.9183,2.9044,2.9014,2.9014,2.9014,2.9014,2.9014,2.9014,2.9014,2.9014,2.9014,2.9014,2.9014,2.9014,2.9014,2.9014,2.9014,2.9014,2.8062,2.6034,2.471,2.3325,2.1846,2.1846,2.1783,2.1594,2.0729,2.0164,5.7997,5.7997,5.7997,5.7997,5.7997,5.7973,0.0,0.0,0.0,5.7697,5.7673,5.7673,5.7673,5.7577,5.7259,5.659,5.5994,5.5551,5.5366,5.448,5.3684,5.3179,5.299,5.2781,5.2463,5.2409,5.2391,5.2391,5.2391,5.2391,5.2391,5.2391,5.2391,5.2391,5.2069,5.1869,5.1796,5.1094,5.0586,5.028,4.8872,4.8036,4.7685,4.6587,4.6015,4.5903,4.5903,4.5903,4.5903,4.5903,4.564,4.5238,4.5147,4.4815,4.434,4.3804,4.36,4.3386,4.1942,4.1008,4.0236,3.9286,3.8528,3.8012,3.8012,3.8012,3.8012,3.8012,3.8012,3.8012,3.8012,3.8012,3.8012,3.8012,3.8012,3.7933,3.7708,3.5936,3.4241,3.3744,3.1612,2.9804,2.9538,2.9213,2.9014,2.9014,2.9014,2.9014,2.9014,2.9014,2.9014,2.9014,2.9014,2.9014,2.9014,2.9014,2.9014,2.9014,2.9014,2.9014,2.9014,2.8489,2.7164,2.4956,2.3411,2.1902,2.0513,2.045,2.0418,2.0412,2.0132,1.9807,5.7997,5.7997,5.7997,5.7997,5.7997,5.7997,5.7985,0.0,5.7973,5.7962,0.0,5.7962,5.7962,0.0,0.0,5.6563,5.6402,5.6084,5.5253,5.5163,5.4872,5.4055,5.3315,5.2816,5.2605,5.248,5.2391,5.2391,5.2391,5.2391,5.2391,5.2391,5.2391,5.2391,5.2372,5.2158,5.1796,5.1704,5.0968,4.9623,4.9407,4.8507,4.7004,4.6851,4.6469,4.5903,4.5903,4.5903,4.5903,4.5903,4.5858,4.5768,4.5284,4.4815,4.434,4.3804,4.36,4.33,4.1269,4.0465,4.016,3.8647,3.8053,3.8012,3.8012,3.8012,3.8012,3.8012,3.8012,3.8012,3.8012,3.8012,3.8012,3.8012,3.8012,3.7708,3.665,3.5333,3.3989,3.2662,3.1053,2.9804,2.9538,2.9213,2.9014,2.9014,2.9014,2.9014,2.9014,2.9014,2.9014,2.9014,2.9014,2.9014,2.9014,2.9014,2.9014,2.9014,2.9014,2.9014,2.9014,2.671,2.5162,2.4586,2.2146,2.0634,2.017,1.9871,1.9705,1.9705,1.9673,1.9488,5.7997,5.7997,5.7997,5.7997,5.7997,5.7997,5.7997,5.7997,5.7997,5.7997,0.0,0.0,0.0,0.0,0.0,0.0,5.677,5.6456,5.6348,5.579,5.5219,5.4747,5.4039,5.3332,5.2659,5.248,5.2391,5.2391,5.2391,5.2391,5.2391,5.2391,5.2391,5.2391,5.2391,5.232,5.2158,5.1922,5.1341,5.0422,4.9801,4.8795,4.7471,4.7091,4.6535,4.5903,4.5903,4.5903,4.5903,4.5903,4.5903,4.588,4.564,4.5435,4.5161,4.4359,4.3766,4.3167,4.1668,4.0516,3.9519,3.837,3.8012,3.8012,3.8012,3.8012,3.8012,3.8012,3.8012,3.8012,3.8012,3.8012,3.8012,3.8012,3.8012,3.7681,3.6449,3.5251,3.3905,3.2234,3.082,2.9745,2.9302,2.9094,2.9014,2.9014,2.9014,2.9014,2.9014,2.9014,2.9014,2.9014,2.9014,2.9014,2.9014,2.9014,2.9014,2.9014,2.8271,2.7843,2.7843,2.5293,2.3845,2.3675,2.1846,2.0736,2.0386,2.0036,1.9775,1.9609,1.9386,1.9232,5.7997,5.7997,5.7997,5.7997,5.7997,5.7997,5.7997,5.7997,5.7997,5.7997,5.7997,0.0,0.0,0.0,5.7683,5.7333,0.0,5.6773,5.6861,5.6318,5.5716,5.5249,5.4389,5.3533,5.2764,5.2535,5.2463,5.2463,5.2409,5.2391,5.2391,5.2391,5.2391,5.2391,5.2391,5.2391,5.2391,5.2122,5.1743,5.1285,5.0364,4.9383,4.8314,4.7361,4.6562,4.588,4.552,4.538,4.538,4.538,4.538,4.538,4.538,4.538,4.5267,4.448,4.3766,4.3009,4.1594,4.0147,3.8778,3.8185,3.8012,3.8012,3.8012,3.8012,3.8012,3.8012,3.8012,3.8012,3.8012,3.8012,3.8012,3.8012,3.8012,3.7575,3.6029,3.5002,3.3793,3.1756,3.0568,2.9745,2.9222,2.9064,2.9014,2.9014,2.9014,2.9014,2.9014,2.9014,2.9014,2.9014,2.9014,2.9014,2.9014,2.9014,2.9014,2.9014,2.7753,2.6983,2.6983,2.4486,2.3076,2.2944,2.1664,2.0799,2.0456,2.0132,1.9839,1.9577,1.9264,1.911,5.7997,5.7997,5.7997,5.7997,5.7997,5.7997,5.7997,5.7997,5.7997,5.7997,5.7997,5.7997,5.7997,5.7886,5.75,5.6579,5.6952,0.0,0.0,5.6674,5.6701,5.5531,5.4106,5.3144,5.2903,5.2712,5.2589,5.2589,5.2464,5.2391,5.2391,5.2391,5.2391,5.2391,5.2391,5.2391,5.2391,5.239,5.2176,5.176,5.1285,5.0496,4.9376,4.7758,4.6593,4.5827,4.4602,4.4073,4.4073,4.4073,4.4073,4.4073,4.4073,4.4073,4.4044,4.3733,4.3467,4.2875,4.0503,3.8948,3.8027,3.8012,3.8012,3.8012,3.8012,3.8012,3.8012,3.8012,3.8012,3.8012,3.8012,3.8012,3.8012,3.8012,3.8012,3.7349,3.4974,3.4419,3.3635,3.0956,3.0157,2.9804,2.9538,2.9213,2.9014,2.9014,2.9014,2.9014,2.9014,2.9014,2.9014,2.9014,2.9014,2.9014,2.9014,2.9014,2.9014,2.9014,2.7753,2.6983,2.6983,2.4486,2.2952,2.2608,2.1285,2.045,2.0106,1.9775,1.9609,1.9577,1.9264,1.911,5.7997,5.7997,5.7997,5.7997,5.7997,5.7997,5.7997,5.7997,5.7997,5.7997,5.7997,5.7997,5.7997,5.7962,5.7759,5.7272,5.7383,5.7358,0.0,5.6336,5.5862,5.5443,5.4841,5.4105,5.3196,5.2799,5.2589,5.2589,5.248,5.2391,5.2391,5.2391,5.2391,5.2391,5.2391,5.2391,5.2391,5.2391,5.2194,5.1796,5.1143,5.0145,4.8793,4.7329,4.6152,4.519,4.4353,4.3993,4.3993,4.3993,4.3993,4.3993,4.3993,4.3993,4.395,4.3501,4.2652,4.1426,3.9279,3.8305,3.8012,3.8012,3.8012,3.8012,3.8012,3.8012,3.8012,3.8012,3.8012,3.8012,3.8012,3.8012,3.8012,3.8012,3.8012,3.7349,3.4919,3.4269,3.3332,3.0606,2.9833,2.9538,2.9213,2.9073,2.9014,2.9014,2.9014,2.9014,2.9014,2.9014,2.9014,2.9014,2.9014,2.9014,2.9014,2.9014,2.8609,2.7723,2.6437,2.5293,2.4463,2.2709,2.1727,2.1601,2.0951,2.0545,2.0418,1.9864,1.9609,1.9577,1.9264,1.911,5.7997,5.7997,5.7997,5.7997,5.7997,5.7997,5.7997,5.7997,5.7997,5.7997,5.7997,5.7997,5.7997,5.7997,5.7939,5.7709,5.7637,5.7516,0.0,5.6524,5.5961,5.5748,5.5026,5.4187,5.3298,5.2903,5.2676,5.2623,5.248,5.2391,5.2391,5.2391,5.2391,5.2391,5.2391,5.2391,5.2391,5.2143,5.1886,5.1602,5.0719,4.9821,4.8849,4.7361,4.6102,4.5075,4.4208,4.3627,4.3311,4.3311,4.3311,4.3311,4.3311,4.3311,4.3284,4.3015,4.181,4.0032,3.8194,3.771,3.7829,3.775,3.7829,3.8012,3.8012,3.8012,3.8012,3.8012,3.8012,3.8012,3.8012,3.8012,3.8012,3.8012,3.8012,3.7456,3.5471,3.4575,3.3445,3.1024,3.005,2.9509,2.9073,2.9014,2.9014,2.9014,2.9014,2.9014,2.9014,2.9014,2.9014,2.9014,2.9014,2.9014,2.9014,2.9014,2.843,2.7073,2.5729,2.444,2.3139,2.1814,2.0999,2.0773,2.0651,2.0493,2.0295,1.9814,1.9609,1.9577,1.9264,1.911]},{"header":{"parameterUnit":"m.s-1","parameterCategory":1,"la1":30.6,"la2":29.2853,"lo1":-89.7004,"lo2":-87.6739,"dy":0.0162,"dx":0.0183,"nx":112,"ny":82,"refTime":"2023-11-11T06:00:00:Z","depth":0,"parameterNumber":3,"parameterNumberName":"V-component_of_WINDS"},"data":[0.0,0.0,0.0,0.0,0.0,0.0,0.0,0.0,0.0,0.0,0.0,0.0,0.0,0.0,0.0,0.0,0.0,0.0,0.0,0.0,0.0,0.0,0.0,0.0,0.0,0.0,0.0,0.0,0.0,0.0,0.0,0.0,0.0,0.0,0.0,0.0,0.0,0.0,0.0,0.0,0.0,0.0,0.0,0.0,0.0,0.0,0.0,0.0,0.0,0.0,0.0,0.0,0.0,0.0,0.0,0.0,0.0,0.0,0.0,0.0,0.0,0.0,0.0,0.0,0.0,0.0,0.0,0.0,0.0,0.0,0.0,0.0,0.0,0.0,0.0,0.0,0.0,0.0,0.0,0.0,0.0,0.0,0.0,0.0,0.0,0.0,0.0,0.0,0.0,0.0,3.4374,3.4395,3.4444,3.4769,3.5549,3.6447,3.7362,3.8294,0.0,0.0,0.0,0.0,0.0,0.0,0.0,0.0,0.0,0.0,0.0,0.0,0.0,0.0,0.0,0.0,0.0,0.0,0.0,0.0,0.0,0.0,0.0,0.0,0.0,0.0,0.0,0.0,0.0,0.0,0.0,0.0,0.0,0.0,0.0,0.0,0.0,0.0,0.0,0.0,0.0,0.0,0.0,0.0,0.0,0.0,0.0,0.0,0.0,0.0,0.0,0.0,0.0,0.0,0.0,0.0,0.0,0.0,0.0,0.0,0.0,0.0,0.0,0.0,0.0,0.0,0.0,0.0,0.0,0.0,0.0,0.0,0.0,0.0,0.0,0.0,0.0,0.0,0.0,0.0,0.0,0.0,0.0,0.0,0.0,0.0,0.0,0.0,0.0,0.0,0.0,0.0,0.0,0.0,0.0,0.0,0.0,0.0,0.0,0.0,0.0,0.0,0.0,0.0,3.5402,3.6566,3.6855,3.7204,3.7851,3.8359,3.9002,3.9902,0.0,0.0,0.0,0.0,0.0,0.0,0.0,0.0,0.0,0.0,0.0,0.0,0.0,0.0,0.0,0.0,0.0,0.0,0.0,0.0,0.0,0.0,0.0,0.0,0.0,0.0,0.0,0.0,0.0,0.0,0.0,0.0,0.0,0.0,0.0,0.0,0.0,0.0,0.0,0.0,0.0,0.0,0.0,0.0,0.0,0.0,0.0,0.0,0.0,0.0,0.0,0.0,0.0,0.0,0.0,0.0,0.0,0.0,0.0,0.0,0.0,0.0,0.0,0.0,0.0,0.0,0.0,0.0,0.0,0.0,0.0,0.0,0.0,0.0,0.0,0.0,0.0,0.0,0.0,0.0,0.0,0.0,0.0,0.0,0.0,0.0,0.0,0.0,0.0,0.0,0.0,0.0,0.0,0.0,0.0,0.0,0.0,0.0,0.0,0.0,0.0,0.0,0.0,3.5911,3.65,3.7616,3.7826,3.8021,3.838,3.9099,3.972,4.0119,3.973,0.0,0.0,0.0,0.0,0.0,0.0,0.0,0.0,0.0,0.0,0.0,0.0,0.0,0.0,0.0,0.0,0.0,0.0,0.0,0.0,0.0,0.0,0.0,0.0,0.0,0.0,0.0,0.0,0.0,0.0,0.0,0.0,0.0,0.0,0.0,0.0,0.0,0.0,0.0,0.0,0.0,0.0,0.0,0.0,0.0,0.0,0.0,0.0,0.0,0.0,0.0,0.0,0.0,0.0,0.0,0.0,0.0,0.0,0.0,0.0,0.0,0.0,0.0,0.0,0.0,0.0,0.0,0.0,0.0,0.0,0.0,0.0,0.0,0.0,0.0,0.0,0.0,0.0,0.0,0.0,0.0,0.0,0.0,0.0,0.0,0.0,0.0,0.0,0.0,0.0,0.0,0.0,0.0,0.0,0.0,0.0,0.0,0.0,0.0,0.0,0.0,0.0,3.738,3.7791,3.8427,3.8575,3.8671,3.8774,3.9613,4.0119,4.0119,4.0366,0.0,0.0,0.0,0.0,0.0,0.0,0.0,0.0,0.0,0.0,0.0,0.0,0.0,0.0,0.0,0.0,0.0,0.0,0.0,0.0,0.0,0.0,0.0,0.0,0.0,0.0,0.0,0.0,0.0,0.0,0.0,0.0,0.0,0.0,0.0,0.0,0.0,0.0,0.0,0.0,0.0,0.0,0.0,0.0,0.0,0.0,0.0,0.0,0.0,0.0,0.0,0.0,0.0,0.0,0.0,0.0,0.0,0.0,0.0,0.0,0.0,0.0,0.0,0.0,0.0,0.0,0.0,0.0,0.0,0.0,0.0,0.0,0.0,0.0,0.0,0.0,0.0,0.0,0.0,0.0,0.0,0.0,0.0,0.0,0.0,0.0,0.0,0.0,0.0,0.0,0.0,0.0,0.0,0.0,0.0,0.0,0.0,0.0,0.0,0.0,0.0,0.0,3.8432,3.9466,3.9319,3.9658,3.9872,3.9889,4.0244,4.0455,4.0455,4.0489,0.0,0.0,0.0,0.0,0.0,0.0,0.0,0.0,0.0,0.0,0.0,0.0,0.0,0.0,0.0,0.0,0.0,0.0,0.0,0.0,0.0,0.0,0.0,0.0,0.0,0.0,0.0,0.0,0.0,0.0,0.0,0.0,0.0,0.0,0.0,0.0,0.0,0.0,0.0,0.0,0.0,0.0,0.0,0.0,0.0,0.0,0.0,0.0,0.0,0.0,0.0,0.0,0.0,0.0,0.0,0.0,0.0,0.0,0.0,0.0,0.0,0.0,0.0,0.0,0.0,0.0,0.0,0.0,0.0,0.0,0.0,0.0,0.0,0.0,0.0,0.0,0.0,0.0,0.0,0.0,0.0,0.0,0.0,0.0,0.0,0.0,0.0,0.0,0.0,0.0,0.0,0.0,0.0,0.0,0.0,0.0,0.0,0.0,0.0,0.0,0.0,0.0,3.826,3.9256,3.9714,3.9922,4.0049,4.0172,4.0296,4.0366,4.0366,0.0,0.0,0.0,0.0,0.0,0.0,0.0,0.0,0.0,0.0,0.0,0.0,0.0,0.0,0.0,0.0,0.0,0.0,0.0,0.0,0.0,0.0,0.0,0.0,0.0,0.0,0.0,0.0,0.0,0.0,0.0,0.0,0.0,0.0,0.0,0.0,0.0,0.0,0.0,0.0,0.0,0.0,0.0,0.0,0.0,0.0,0.0,0.0,0.0,0.0,0.0,0.0,0.0,0.0,0.0,0.0,0.0,0.0,0.0,0.0,0.0,0.0,0.0,0.0,0.0,0.0,0.0,0.0,0.0,0.0,0.0,0.0,0.0,0.0,0.0,0.0,0.0,0.0,0.0,0.0,0.0,0.0,0.0,0.0,0.0,0.0,0.0,0.0,0.0,0.0,0.0,0.0,0.0,0.0,0.0,0.0,0.0,0.0,0.0,0.0,0.0,0.0,3.7146,3.8372,3.9493,4.0231,4.0368,4.055,4.0906,4.0808,4.0795,4.101,0.0,0.0,0.0,0.0,0.0,0.0,0.0,0.0,0.0,0.0,0.0,0.0,0.0,0.0,0.0,0.0,0.0,0.0,0.0,0.0,0.0,0.0,0.0,0.0,0.0,0.0,0.0,0.0,0.0,0.0,0.0,0.0,0.0,0.0,0.0,0.0,0.0,0.0,0.0,0.0,0.0,0.0,0.0,0.0,0.0,0.0,0.0,0.0,0.0,0.0,0.0,0.0,0.0,0.0,0.0,0.0,0.0,0.0,0.0,0.0,0.0,0.0,0.0,0.0,0.0,0.0,0.0,0.0,0.0,0.0,0.0,0.0,0.0,0.0,0.0,0.0,0.0,0.0,0.0,0.0,0.0,0.0,0.0,0.0,0.0,0.0,0.0,0.0,0.0,0.0,0.0,0.0,0.0,0.0,0.0,0.0,0.0,0.0,0.0,0.0,0.0,0.0,3.7256,3.9042,4.0499,4.0973,4.1196,4.1579,4.2255,4.1879,4.1894,0.0,0.0,0.0,0.0,0.0,0.0,0.0,0.0,0.0,0.0,0.0,0.0,0.0,0.0,0.0,0.0,0.0,0.0,0.0,0.0,0.0,0.0,0.0,0.0,0.0,0.0,0.0,0.0,0.0,0.0,0.0,0.0,0.0,0.0,0.0,0.0,0.0,0.0,0.0,0.0,0.0,0.0,0.0,0.0,0.0,0.0,0.0,0.0,0.0,0.0,0.0,0.0,0.0,0.0,0.0,0.0,0.0,0.0,0.0,0.0,0.0,0.0,0.0,0.0,0.0,0.0,0.0,0.0,0.0,0.0,0.0,0.0,0.0,0.0,0.0,0.0,0.0,0.0,0.0,0.0,0.0,0.0,0.0,0.0,0.0,0.0,0.0,0.0,0.0,0.0,0.0,0.0,0.0,0.0,0.0,0.0,0.0,0.0,0.0,0.0,0.0,0.0,0.0,3.8765,4.0614,4.1971,4.2116,4.2167,4.2296,4.2495,4.2381,4.2402,4.2602,0.0,0.0,0.0,0.0,0.0,0.0,0.0,0.0,0.0,0.0,0.0,0.0,0.0,0.0,0.0,0.0,0.0,0.0,0.0,0.0,0.0,0.0,0.0,0.0,0.0,0.0,0.0,0.0,0.0,0.0,0.0,0.0,0.0,0.0,0.0,0.0,0.0,0.0,0.0,0.0,0.0,0.0,0.0,0.0,0.0,0.0,0.0,0.0,0.0,0.0,0.0,0.0,0.0,0.0,0.0,0.0,0.0,0.0,0.0,0.0,0.0,0.0,0.0,0.0,0.0,0.0,0.0,0.0,0.0,0.0,0.0,0.0,0.0,0.0,0.0,0.0,0.0,0.0,0.0,0.0,0.0,0.0,0.0,0.0,0.0,0.0,0.0,0.0,0.0,0.0,0.0,0.0,0.0,0.0,0.0,0.0,0.0,0.0,0.0,0.0,0.0,0.0,3.9402,4.1272,4.2709,4.2971,4.2987,4.311,4.3371,4.314,4.311,4.3371,0.0,0.0,0.0,0.0,0.0,0.0,0.0,0.0,0.0,0.0,0.0,0.0,0.0,0.0,0.0,0.0,0.0,0.0,0.0,0.0,0.0,0.0,0.0,0.0,0.0,0.0,0.0,0.0,0.0,0.0,0.0,0.0,0.0,0.0,0.0,0.0,0.0,0.0,0.0,0.0,0.0,0.0,0.0,0.0,0.0,0.0,0.0,0.0,0.0,0.0,0.0,0.0,0.0,0.0,0.0,0.0,0.0,0.0,0.0,0.0,0.0,0.0,0.0,0.0,0.0,0.0,0.0,0.0,0.0,0.0,0.0,0.0,0.0,0.0,0.0,0.0,0.0,0.0,0.0,0.0,0.0,0.0,0.0,0.0,0.0,0.0,0.0,0.0,0.0,0.0,0.0,0.0,0.0,0.0,0.0,0.0,0.0,0.0,0.0,0.0,0.0,0.0,3.9573,4.1451,4.3017,4.3639,4.3701,4.3947,4.4545,4.4036,4.3944,4.456,0.0,0.0,0.0,0.0,0.0,0.0,0.0,0.0,0.0,0.0,0.0,0.0,0.0,0.0,0.0,0.0,0.0,0.0,0.0,0.0,0.0,0.0,0.0,0.0,0.0,0.0,0.0,0.0,0.0,0.0,0.0,0.0,0.0,0.0,0.0,0.0,0.0,0.0,0.0,0.0,0.0,0.0,0.0,0.0,0.0,0.0,0.0,0.0,0.0,0.0,0.0,0.0,0.0,0.0,0.0,0.0,0.0,0.0,0.0,0.0,2.5918,2.5647,0.0,0.0,0.0,0.0,0.0,0.0,0.0,0.0,0.0,0.0,0.0,0.0,0.0,0.0,0.0,0.0,0.0,0.0,0.0,0.0,0.0,0.0,0.0,0.0,0.0,0.0,0.0,0.0,0.0,0.0,0.0,0.0,0.0,0.0,0.0,0.0,0.0,0.0,0.0,0.0,4.0914,4.2766,4.4237,4.436,4.4391,4.4437,4.4591,4.4468,4.4452,4.4591,4.4329,0.0,0.0,0.0,0.0,0.0,0.0,0.0,0.0,0.0,0.0,0.0,0.0,0.0,0.0,0.0,0.0,0.0,0.0,0.0,0.0,0.0,0.0,0.0,0.0,0.0,0.0,0.0,0.0,0.0,0.0,0.0,0.0,0.0,0.0,0.0,0.0,0.0,0.0,0.0,0.0,0.0,0.0,0.0,0.0,0.0,0.0,0.0,0.0,0.0,0.0,0.0,0.0,0.0,0.0,0.0,0.0,0.0,0.0,0.0,2.7165,2.7126,0.0,0.0,0.0,0.0,0.0,0.0,0.0,0.0,0.0,0.0,0.0,0.0,0.0,0.0,0.0,0.0,0.0,0.0,0.0,0.0,0.0,0.0,0.0,0.0,0.0,0.0,0.0,0.0,0.0,0.0,0.0,0.0,0.0,0.0,0.0,0.0,0.0,0.0,0.0,0.0,4.13,4.319,4.4591,4.4591,4.4591,4.4591,4.4591,4.4591,4.4591,4.4591,4.4591,0.0,0.0,0.0,0.0,0.0,0.0,0.0,0.0,0.0,0.0,0.0,0.0,0.0,0.0,0.0,0.0,0.0,0.0,0.0,0.0,0.0,0.0,0.0,0.0,0.0,0.0,0.0,0.0,0.0,0.0,0.0,0.0,0.0,0.0,0.0,0.0,0.0,0.0,0.0,0.0,0.0,0.0,0.0,0.0,0.0,0.0,0.0,0.0,0.0,0.0,0.0,0.0,0.0,2.6808,2.6873,2.6883,2.7257,2.7666,2.8105,2.8879,2.9128,2.8964,2.9151,0.0,0.0,0.0,0.0,0.0,0.0,0.0,0.0,0.0,0.0,0.0,0.0,0.0,0.0,0.0,0.0,0.0,0.0,0.0,0.0,0.0,0.0,3.8984,3.9884,4.0661,4.1049,4.049,0.0,0.0,0.0,0.0,0.0,0.0,0.0,0.0,0.0,0.0,0.0,4.155,4.3323,4.4591,4.4591,4.4591,4.4591,4.4591,4.4591,4.4591,4.4591,4.4591,4.4591,0.0,0.0,0.0,0.0,0.0,0.0,0.0,0.0,0.0,0.0,0.0,0.0,0.0,0.0,0.0,0.0,0.0,0.0,0.0,0.0,0.0,0.0,0.0,0.0,0.0,0.0,0.0,0.0,0.0,0.0,0.0,0.0,2.3095,2.364,0.0,0.0,0.0,0.0,0.0,0.0,0.0,0.0,0.0,0.0,0.0,0.0,0.0,2.6382,2.6416,2.7106,2.7452,2.7452,2.8048,2.8307,2.8342,2.8404,2.895,2.9902,3.0884,0.0,3.0081,3.1017,0.0,0.0,0.0,0.0,0.0,0.0,0.0,0.0,0.0,0.0,0.0,0.0,0.0,0.0,0.0,0.0,0.0,0.0,0.0,0.0,0.0,0.0,4.1232,4.2288,4.2625,4.2929,4.3758,4.1597,3.9596,3.9986,4.0109,3.9984,0.0,0.0,0.0,0.0,0.0,0.0,4.2717,4.3804,4.4591,4.4591,4.4591,4.4591,4.4591,4.4591,4.4591,4.4591,4.4591,4.4591,4.4591,4.4591,0.0,0.0,0.0,0.0,0.0,0.0,0.0,0.0,0.0,0.0,0.0,0.0,0.0,0.0,0.0,0.0,0.0,0.0,0.0,0.0,0.0,0.0,0.0,0.0,0.0,0.0,0.0,0.0,0.0,2.313,2.364,2.4092,2.4141,2.4219,0.0,0.0,0.0,0.0,0.0,0.0,0.0,0.0,0.0,2.6911,2.7053,2.7297,2.7674,2.7992,2.8169,2.8169,2.8464,2.8593,2.8618,2.8862,2.9574,3.0671,3.1993,3.2645,3.2782,3.2688,3.2383,3.1888,0.0,0.0,0.0,0.0,3.3833,3.5143,3.5541,3.5661,3.5683,3.5793,0.0,0.0,0.0,0.0,0.0,0.0,0.0,3.9173,4.0495,4.1204,4.1927,4.3384,4.3834,4.4029,4.4491,4.3422,4.2237,4.1884,4.1284,4.0743,4.039,4.1141,0.0,0.0,0.0,4.3329,4.2951,4.3897,4.4591,4.4591,4.4591,4.4591,4.4591,4.4591,4.4591,4.4591,4.4591,4.4591,4.4591,4.4591,4.4591,0.0,0.0,0.0,0.0,0.0,0.0,0.0,0.0,0.0,0.0,0.0,0.0,0.0,0.0,0.0,0.0,0.0,0.0,0.0,0.0,0.0,0.0,0.0,0.0,0.0,0.0,0.0,0.0,2.3472,2.4111,2.4531,2.458,2.4629,0.0,0.0,0.0,0.0,0.0,0.0,2.6293,2.6695,2.7199,2.7746,2.7805,2.8103,2.8593,2.8706,2.8794,2.8794,2.8907,2.897,2.898,2.9321,3.0213,3.1551,3.2705,3.3968,3.5162,3.4405,3.3924,3.362,3.2853,3.3019,3.3714,3.3993,3.4723,3.5675,3.6179,3.6336,3.6345,3.65,3.7187,3.8009,3.8496,0.0,0.0,0.0,0.0,4.0051,4.159,4.2085,4.2573,4.3971,4.4416,4.4549,4.4591,4.4366,4.3993,4.3437,4.2641,4.1951,4.1532,4.1961,0.0,4.1568,4.269,4.3556,4.3358,4.4066,4.4591,4.4591,4.4591,4.4591,4.4591,4.4591,4.4591,4.4591,4.4591,4.4591,4.4591,4.4591,4.4591,4.4591,0.0,0.0,0.0,0.0,0.0,0.0,0.0,0.0,0.0,0.0,0.0,0.0,0.0,0.0,0.0,0.0,0.0,0.0,0.0,0.0,0.0,0.0,0.0,0.0,0.0,0.0,0.0,0.0,0.0,2.5004,2.5053,0.0,0.0,0.0,0.0,2.5679,2.6595,2.7031,2.6774,2.7627,2.8135,2.8181,2.8426,2.8562,2.8593,2.9052,2.927,2.927,2.9715,2.9922,2.9922,2.9953,3.1114,3.3091,3.3164,3.4385,3.6334,3.6271,3.5628,3.4727,3.4679,3.4679,3.4776,3.5233,3.6091,3.7078,3.7625,3.7785,3.7785,3.7808,3.8401,3.9445,4.1217,4.1175,0.0,0.0,4.1848,4.2109,4.3284,4.3591,4.3708,4.4185,4.4301,4.4377,4.4568,4.3745,4.3284,4.4328,4.4477,4.4086,4.2991,0.0,4.3364,4.2872,4.3269,4.3825,4.4438,4.4553,4.4591,4.4591,4.4591,4.4591,4.4591,4.4591,4.4591,4.4591,4.4591,4.4591,4.4591,4.4591,4.4591,4.4591,4.4591,0.0,0.0,0.0,0.0,0.0,0.0,0.0,0.0,0.0,0.0,0.0,0.0,0.0,0.0,0.0,0.0,0.0,0.0,0.0,0.0,0.0,0.0,0.0,0.0,0.0,0.0,0.0,0.0,2.5449,2.5498,0.0,2.634,2.634,2.6423,2.6774,2.7292,2.7533,2.7457,2.81,2.8591,2.889,2.9002,2.9208,2.9497,2.9673,2.9746,2.9746,3.0607,3.1032,3.1058,3.175,3.2851,3.4239,3.4239,3.5054,3.6405,3.6405,3.6156,3.5847,3.5847,3.5847,3.5894,3.6356,3.6769,3.7191,3.7703,3.79,3.7979,3.8549,3.9356,4.0332,4.1624,4.2155,4.2421,4.2739,4.2955,4.3205,4.3596,4.389,4.4108,4.4262,4.4396,4.4511,4.4572,4.4274,4.4105,4.4534,4.4008,4.3476,4.3368,4.3849,4.4039,4.3427,4.3869,4.4343,4.4572,4.4591,4.4591,4.4591,4.4591,4.4591,4.4591,4.4591,4.4591,4.4591,4.4591,4.4591,4.4591,4.4591,4.4591,4.4591,4.5067,4.5067,0.0,0.0,0.0,0.0,0.0,0.0,0.0,0.0,0.0,0.0,0.0,0.0,0.0,0.0,0.0,0.0,0.0,0.0,0.0,0.0,0.0,0.0,0.0,0.0,0.0,2.5293,2.5459,2.5884,2.5932,2.6172,2.6818,2.6783,2.6926,2.7369,2.7879,2.8173,2.8162,2.8737,2.9218,2.9528,2.9539,2.9684,2.9994,2.9994,2.9994,3.002,3.1084,3.16,3.1651,3.2725,3.3796,3.4799,3.4799,3.5415,3.6405,3.6405,3.6405,3.6405,3.6405,3.6428,3.6546,3.6945,3.7168,3.7307,3.7762,3.79,3.8093,3.929,4.0094,4.0838,4.2058,4.2855,4.329,4.329,4.3483,4.371,4.3773,4.4065,4.432,4.4396,4.4496,4.4591,4.4591,4.4591,4.4591,4.4591,4.3989,4.357,4.3869,4.4305,4.4381,4.3708,4.417,4.4515,4.4305,4.4458,4.4591,4.4591,4.4591,4.4591,4.4591,4.4806,4.4894,4.4814,4.5015,4.5103,4.5021,4.4874,4.4799,4.4799,4.5439,4.5645,4.5408,0.0,0.0,0.0,0.0,0.0,0.0,0.0,0.0,0.0,0.0,0.0,0.0,0.0,0.0,0.0,0.0,0.0,0.0,0.0,0.0,0.0,0.0,0.0,2.5728,2.5728,2.5893,2.6357,2.6431,2.6572,2.6992,2.7276,2.7419,2.7454,2.8369,2.8921,2.8926,2.9616,2.9994,2.9994,2.9994,2.9994,2.9994,2.9994,2.9994,3.002,3.1109,3.1651,3.1677,3.2789,3.387,3.4848,3.4848,3.5439,3.6405,3.6405,3.6405,3.6405,3.6405,3.6523,3.6745,3.7015,3.7284,3.7551,3.7808,3.79,3.8207,3.9948,4.0546,4.0944,4.2664,4.325,4.329,4.3309,4.3503,4.3769,4.3949,4.4147,4.4358,4.4553,4.4591,4.4591,4.4591,4.4591,4.4591,4.4591,4.4591,4.4591,4.4591,4.4591,4.4381,4.3728,4.4174,0.0,4.3708,4.4224,4.4622,4.4591,4.4622,4.4622,4.4622,4.5237,4.5522,4.5251,4.5847,4.6097,4.581,4.5431,4.5247,4.5268,4.5717,4.6312,4.7055,0.0,0.0,0.0,0.0,0.0,0.0,0.0,0.0,0.0,0.0,0.0,0.0,0.0,0.0,0.0,0.0,0.0,0.0,0.0,0.0,0.0,2.6211,2.6211,2.6211,2.6211,2.6367,2.6797,2.6846,2.7088,2.7732,2.7849,2.8107,2.8609,2.9116,2.9406,2.9422,2.9781,2.9994,2.9994,2.9994,2.9994,2.9994,2.9994,2.9994,3.002,3.1877,3.2764,3.2826,3.4678,3.5691,3.5966,3.5966,3.6132,3.6405,3.6405,3.6405,3.6405,3.6405,3.6523,3.6745,3.7015,3.7377,3.7808,3.7877,3.79,3.7992,3.8476,3.9524,4.0696,4.1197,4.2263,4.3329,4.3537,4.3754,4.3968,4.4181,4.4377,4.4515,4.4587,4.4591,4.4591,4.4591,4.4591,4.4591,4.4591,4.4591,4.4591,4.4591,4.4591,4.4549,4.4362,4.4477,4.4534,4.4362,4.4907,4.5145,4.4652,4.5037,4.533,4.533,4.5769,4.5995,4.5921,4.6376,4.6394,4.5828,4.5687,4.6052,4.6916,4.6918,4.7273,0.0,0.0,0.0,0.0,0.0,0.0,0.0,0.0,0.0,0.0,0.0,0.0,0.0,0.0,0.0,0.0,0.0,0.0,0.0,0.0,0.0,0.0,2.665,2.6719,2.693,2.6768,2.6807,2.7236,2.7388,2.7648,2.8134,2.8383,2.8667,2.9085,2.9422,2.9643,2.9774,2.9916,2.9994,2.9994,2.9994,2.9994,2.9994,3.0443,3.0666,3.0692,3.2839,3.387,3.3944,3.5619,3.6405,3.6405,3.6405,3.6405,3.6405,3.6405,3.6405,3.6405,0.0,0.0,0.0,0.0,3.7634,3.79,3.79,3.79,3.7969,3.834,3.9423,4.0667,4.1071,4.2181,4.3329,4.3483,4.3773,4.4026,4.4127,4.4396,4.4591,4.4591,4.4591,4.4591,4.4591,4.4591,4.4683,4.496,4.5022,0.0,4.5391,4.4976,4.4496,4.4212,4.4419,4.4496,4.4228,4.4757,4.5037,4.4637,4.5097,4.5425,4.5425,4.6068,0.0,0.0,0.0,4.7297,4.6936,4.6853,0.0,0.0,0.0,4.8206,4.8932,4.8509,0.0,0.0,4.8103,4.791,0.0,0.0,0.0,0.0,0.0,0.0,0.0,0.0,0.0,0.0,0.0,0.0,0.0,0.0,0.0,0.0,2.709,2.7236,2.7702,2.7402,2.7305,2.7721,2.7986,2.8177,2.8342,2.8787,2.9132,2.9158,2.9448,2.9748,2.9994,2.9994,0.0,0.0,0.0,2.9994,2.9994,3.1058,3.1534,3.1458,3.3735,3.4727,3.4654,3.5932,3.6505,3.6482,3.6545,3.657,3.657,3.657,3.6593,3.6628,3.6526,3.6734,3.7155,3.7703,3.79,3.79,3.79,0.0,0.0,3.8926,3.9834,4.0774,4.1728,4.2618,4.3364,4.3369,4.3699,4.4046,4.4065,4.44,4.4714,4.4714,4.4776,4.4822,4.4822,4.4822,4.5006,4.5607,4.5715,4.5915,4.6496,4.5622,4.4615,4.4033,4.4442,4.4611,4.4013,4.4522,4.4914,4.4837,4.5263,0.0,4.5553,4.6509,4.6977,4.6683,4.7727,4.8338,4.8329,4.8261,4.8355,4.8661,4.8717,4.9084,4.9723,4.9723,4.9865,5.0102,4.9046,4.8794,0.0,0.0,0.0,0.0,0.0,0.0,0.0,0.0,0.0,0.0,0.0,0.0,0.0,0.0,0.0,2.7506,2.7565,2.7712,2.8142,2.8096,2.8076,2.8164,2.8217,2.8363,2.8584,2.8903,2.9211,2.9475,2.9774,2.9942,2.9994,2.9994,2.9994,2.9994,2.9994,2.9994,2.9994,3.1058,3.1161,3.0339,3.3363,0.0,3.3585,3.5965,3.7047,3.7072,3.75,3.7688,3.7688,3.7688,3.7823,3.793,3.7231,3.7015,3.7155,3.7703,3.79,3.79,3.79,3.79,3.8047,3.8926,3.9834,4.0774,4.1728,4.2754,0.0,4.3832,4.405,4.4281,4.4454,4.4949,4.5422,4.5422,4.5818,4.6203,4.6203,4.6203,4.6249,4.6372,4.6403,4.6449,4.6573,4.6372,4.6164,4.6045,4.6124,4.6164,4.6045,4.6601,4.6803,4.6265,4.711,4.7692,4.7692,4.8479,4.8946,4.889,4.8383,4.7821,4.7242,4.7951,4.8393,4.8457,4.9296,4.9799,4.9935,4.9935,5.026,5.0858,4.9894,4.9498,0.0,0.0,0.0,0.0,0.0,0.0,0.0,0.0,0.0,0.0,0.0,2.7344,2.7344,0.0,2.7725,2.7966,2.8005,2.8083,2.8262,2.8291,2.8291,2.8291,2.8434,2.8541,2.8684,2.9089,2.9422,2.958,2.9863,2.9994,2.9994,2.9994,2.9994,2.9994,2.9994,2.9994,2.9994,3.1305,3.1972,3.2034,3.4413,3.5569,3.5655,3.6985,3.76,3.7613,3.7889,3.8002,3.8002,3.8138,3.8286,3.8382,3.8232,3.8144,3.8204,3.8608,3.8762,3.8762,3.8762,3.8762,3.882,3.9256,4.0368,4.1654,4.2124,4.3403,4.471,4.481,4.5073,4.5314,4.5412,4.5775,4.6095,4.6095,4.6357,4.6603,4.6603,4.6603,4.6696,4.7034,4.7096,4.7219,4.7542,4.7604,4.7373,4.6696,4.6603,4.6603,4.6603,4.688,4.6973,4.6634,4.7469,4.8043,4.8043,4.8791,4.9415,4.9785,4.9323,4.9172,4.9443,4.9825,5.0188,5.0447,5.0878,5.1099,5.1099,5.1099,5.1289,5.1651,5.118,5.0916,0.0,0.0,0.0,0.0,0.0,0.0,0.0,2.5556,2.6088,2.6959,2.7516,2.7809,2.7809,2.8093,2.8291,2.8291,2.8291,2.8291,2.8291,2.8291,2.8318,2.8371,2.8568,2.8727,2.8781,2.9274,2.9606,2.9659,2.9879,2.9994,2.9994,2.9994,2.9994,2.9994,3.0087,3.0129,3.0129,3.1906,3.3105,3.3851,3.5727,3.7006,3.7705,3.8029,3.8165,3.8178,3.8341,3.8403,3.8428,3.8689,3.8837,3.8936,3.9353,3.9549,3.9609,3.9594,3.9612,3.9612,3.9612,3.9612,3.966,4.0039,4.1227,4.2575,4.2917,4.4278,4.569,4.5746,4.6017,4.6304,4.6344,4.6576,4.6788,4.6788,4.6896,4.6988,4.6988,4.6988,4.7157,4.7696,4.7783,4.7973,4.8507,4.8599,4.823,4.7157,4.6988,4.6988,4.6988,4.7068,4.7128,4.7128,4.784,4.8374,4.845,4.9049,4.9611,5.0066,5.0098,5.0552,5.1559,5.1507,5.1732,5.2291,5.2234,5.2203,5.2203,5.2203,5.2289,5.2427,5.2427,5.2297,1.7561,1.9036,2.0913,2.2286,2.3913,2.5443,0.0,2.7121,2.7484,2.7598,2.7956,2.8223,2.8223,2.8262,2.8291,2.8291,2.8291,2.8291,2.8291,2.8291,2.8381,2.8631,2.8684,2.8781,2.9026,2.9396,2.9695,2.9942,2.9968,2.9994,2.9994,2.9994,2.9994,2.9994,3.0398,3.0605,3.0605,3.3163,3.4027,3.3232,3.634,3.7394,3.6628,3.8115,3.8806,3.8856,3.955,3.9867,3.9893,4.0147,4.0413,4.0627,4.0702,4.0865,4.0948,3.9967,3.9612,3.9612,3.9612,3.9612,3.9873,4.1604,4.2315,4.2806,4.4484,4.5274,4.566,4.5915,4.6138,4.6344,4.6524,4.7014,4.7496,4.7496,4.7942,4.8368,4.8368,4.8368,4.8399,4.846,4.8476,4.8507,4.8583,4.8599,4.8537,4.8399,4.8368,4.8368,4.8368,4.8737,4.9001,4.9001,4.9722,5.0378,5.079,5.0903,5.0697,5.0147,5.0098,5.0113,5.0143,5.0525,5.1008,5.159,5.2008,5.2203,5.2203,5.2203,5.2565,5.327,5.327,5.2875,2.0071,2.119,2.2392,2.4646,2.597,2.6864,2.7315,2.7751,2.8054,2.8054,2.8174,2.8291,2.8291,2.8291,2.8291,2.8291,2.8291,2.8291,2.8291,2.8291,2.8344,2.8451,2.8744,2.9062,2.9369,2.9343,2.9501,2.9968,2.9994,3.0118,3.0387,3.0398,3.0522,3.0818,3.1015,3.1422,3.2078,3.2782,3.3943,3.5573,3.6509,3.7432,3.8332,3.9054,3.9371,3.9384,3.9713,3.9955,4.0121,4.0389,4.0669,4.0908,4.1072,4.1211,4.1234,4.0775,4.0581,4.0581,4.0581,4.0581,4.0824,4.2225,4.3078,4.3791,4.5171,4.6134,4.6837,4.7088,4.7316,4.7507,4.7712,4.7953,4.8168,4.8168,4.8399,4.8599,4.8599,4.8599,4.8599,4.8599,4.8599,4.8599,4.8599,4.8599,4.8599,4.8599,4.8599,4.8599,4.8599,4.9011,4.9477,4.9959,5.0296,5.0695,5.1164,5.1202,5.1072,5.0746,5.1031,5.1321,5.1571,5.2102,5.2666,5.3231,5.3437,5.353,5.353,5.353,5.3703,5.4046,5.4046,5.3858,2.1148,2.2153,2.3118,2.5636,2.6819,2.7463,2.7779,2.8103,2.8291,2.8291,2.8291,2.8291,2.8291,2.8291,2.8291,2.8291,2.8291,2.8291,2.8291,2.8291,2.8318,2.8408,2.8744,2.9182,2.9727,2.952,2.9589,3.0154,3.018,3.0387,3.088,3.0901,3.1056,3.1388,3.1495,3.1948,3.2776,3.2721,3.4137,3.6992,3.6778,3.7725,3.9697,3.9697,3.9697,3.9723,3.9877,4.0019,4.0236,4.058,4.0833,4.1022,4.1211,4.1286,4.1286,4.1286,4.1286,4.1286,4.1286,4.1286,4.1498,4.2806,4.3711,4.4545,4.5816,4.6843,4.766,4.7922,4.8154,4.8349,4.8557,4.8599,4.8599,4.8599,4.8599,4.8599,4.8599,4.8599,4.8599,4.8599,4.8599,4.8599,4.8599,4.8599,4.866,4.8881,4.8912,4.8912,4.8912,4.9563,5.0364,5.1195,5.108,5.1118,5.144,5.1315,5.1261,5.1394,5.1786,5.2327,5.3025,5.3466,5.3964,5.4496,5.4496,5.4496,5.4496,5.4496,5.4496,5.4496,5.4496,5.4496,1.9381,2.0788,2.2486,2.4,2.5462,2.6844,2.8021,2.8281,2.8291,2.8291,2.8291,2.8291,2.8291,2.8291,2.8291,2.8291,2.8291,2.8291,2.8291,2.8291,2.8408,2.8648,2.8711,2.91,3.0102,3.0058,3.018,3.0626,3.0667,3.0864,3.1357,3.1388,3.1388,3.1408,3.1767,3.1984,3.2012,3.3617,3.5046,3.6244,3.7329,3.8489,3.9697,3.9697,3.9697,3.9723,4.0249,4.0478,4.0529,4.106,4.1286,4.1286,4.1286,4.1286,4.1286,4.1286,4.1286,4.1286,4.1286,4.1286,4.1622,4.3606,4.4289,4.4661,4.6653,4.7424,4.766,4.7922,4.8154,4.8349,4.8557,4.8599,4.8599,4.8599,4.8599,4.8599,4.8599,4.8599,4.8599,4.8599,4.8599,4.8599,4.8599,4.8599,4.883,4.9543,4.9672,4.9672,4.9672,5.097,5.2261,5.3118,5.2589,5.2136,5.2171,5.1575,5.1413,5.1933,5.1987,5.2504,5.3617,5.3684,5.3964,5.4496,5.4496,5.4496,5.4496,5.4496,5.4496,5.4496,5.4496,5.4496,2.084,2.2344,2.3911,2.5398,2.6735,2.7799,2.8211,2.8291,2.8291,2.8291,2.8291,2.8291,2.8291,2.8291,2.8291,2.8291,2.8291,2.8291,2.8291,2.8291,2.8408,2.8684,2.9136,2.9635,3.0143,3.0154,3.0411,3.1112,3.117,3.134,3.1767,3.1788,3.1933,3.2261,3.2388,3.3219,3.4785,3.4604,3.5854,3.8542,3.8895,3.931,3.9723,3.989,3.9981,3.9981,4.0351,4.0605,4.0795,4.0972,4.1122,4.1286,4.1286,4.1286,4.1286,4.1286,4.1286,4.1286,4.1286,4.1286,4.1622,4.3654,4.4312,4.4684,4.6697,4.7445,4.766,4.7922,4.8154,4.8349,4.8557,4.8599,4.8599,4.8599,4.8599,4.8599,4.8599,4.8599,4.8737,4.9235,4.9328,4.9466,4.9912,4.9989,5.0082,5.0334,5.0359,5.0578,5.1153,5.1689,5.2329,5.3203,5.3074,5.2929,5.2929,5.309,5.3051,5.2741,5.3432,5.3821,5.3701,5.4045,5.4319,5.4496,5.4496,5.4496,5.4496,5.4496,5.4496,5.4496,5.4496,5.4496,2.1144,2.2297,2.3519,2.4891,2.6127,2.7124,2.7547,2.7987,2.8291,2.8291,2.8291,2.8291,2.8291,2.8291,2.8291,2.8291,2.8291,2.8291,2.8291,2.8418,2.8623,2.8929,2.9613,3.0207,3.0649,3.0779,3.1059,3.1588,3.1609,3.1805,3.2233,3.2253,3.2398,3.2698,3.2698,3.3621,3.5569,3.4886,3.6029,3.9063,3.9504,3.9697,3.9723,3.9981,4.0096,4.0121,4.0491,4.0744,4.0908,4.0997,4.1122,4.1286,4.1286,4.1286,4.1286,4.1286,4.1286,4.1286,4.1286,4.1286,4.1622,4.3654,4.4312,4.4684,4.6697,4.751,4.7773,4.7943,4.8197,4.8432,4.8578,4.8804,4.9004,4.9004,4.9189,4.9358,4.9358,4.9358,4.9497,4.9959,5.0051,5.0189,5.062,5.0897,5.1051,5.1051,5.1404,5.1839,5.2329,5.2602,5.3076,5.3966,5.3835,5.3689,5.3689,5.4,5.4074,5.3796,5.4425,5.4668,5.439,5.4458,5.4496,5.4496,5.4496,5.4496,5.4496,5.4496,5.4496,5.4496,5.4496,5.4496,2.0299,2.0766,2.1539,2.2785,2.3938,2.5086,2.63,2.7493,2.8291,2.8291,2.8291,2.8291,2.8291,2.8291,2.8291,2.8291,2.8291,2.8301,2.832,2.8662,2.9062,2.9409,3.0118,3.0838,3.1562,3.1858,3.2047,3.2047,3.2047,3.2243,3.2677,3.2698,3.2698,3.2698,3.2698,3.3275,3.448,3.4608,3.5772,3.8003,3.9179,3.9761,3.9761,4.0082,4.021,4.0262,4.0771,4.0999,4.1024,4.1277,4.1377,4.1377,4.1377,4.1377,4.1377,4.1377,4.1377,4.1377,4.1377,4.1338,4.1622,4.3654,4.4312,4.4684,4.6697,4.7654,4.8052,4.8052,4.8384,4.8706,4.8706,4.9235,4.9764,4.9764,5.0236,5.0697,5.0697,5.0697,5.0713,5.0743,5.0774,5.079,5.079,5.1328,5.1759,5.1766,5.2725,5.3339,5.3165,5.3735,5.447,5.5307,5.4843,5.4474,5.4494,5.4415,5.456,5.5062,5.5006,5.5176,5.5635,5.4978,5.4632,5.4632,5.4632,5.4632,5.4632,5.4632,5.4632,5.4632,5.4632,5.4632,2.0299,2.1067,2.2248,2.3874,2.5003,2.61,2.7511,2.8067,2.8291,2.8291,2.8291,2.8291,2.8291,2.8291,2.8291,2.8291,2.8291,2.8398,2.8711,2.9038,2.9498,3.0148,3.0886,3.148,3.1855,3.2269,3.2522,3.2522,3.2522,3.2574,3.2698,3.2698,3.2698,3.2698,3.2698,3.3275,3.448,3.6181,3.7791,3.9258,3.9968,4.0404,4.0613,4.1346,4.176,4.1982,4.232,4.2475,4.2475,4.254,4.2566,4.2566,4.2566,4.2566,4.2566,4.2566,4.2566,4.2566,4.2566,4.2004,4.1622,4.3654,4.4312,4.4693,4.688,4.8099,4.8773,4.8929,4.9546,5.0159,5.0159,5.0297,5.0436,5.0436,5.0574,5.0697,5.0697,5.0697,5.0851,5.1344,5.1852,5.219,5.219,5.2322,5.2563,5.2909,5.3202,5.3512,5.3807,5.4296,5.4827,5.5348,5.5243,5.5332,5.5778,5.6202,5.6454,5.6495,5.6884,5.6914,5.6496,5.6322,5.6219,5.6219,5.6219,5.6219,5.6219,5.6219,5.6219,5.6219,5.6219,5.6219,2.0299,2.078,2.1623,2.2854,2.4264,2.5553,2.6509,2.7538,2.8291,2.8291,2.8291,2.8291,2.8291,2.8291,2.8291,2.8291,2.8447,2.8679,2.9077,2.9606,3.022,3.0888,3.1539,3.2012,3.2287,3.2553,3.2698,3.2698,3.2698,3.2698,3.2698,3.2698,3.2698,3.2698,3.2698,3.3643,3.5575,3.7884,3.9507,4.0425,4.07,4.101,4.1327,4.1923,4.2355,4.2605,4.2879,4.2997,4.2997,4.2997,4.2997,4.2997,4.2997,4.2997,4.2997,4.2997,4.2997,4.2997,4.2997,4.2887,4.3011,4.4587,4.5435,4.6174,4.794,4.8922,4.9472,4.9673,5.0202,5.0697,5.0697,5.0913,5.1144,5.1144,5.1359,5.1575,5.1575,5.1575,5.1698,5.2067,5.2452,5.2691,5.2691,5.2691,5.2788,5.304,5.3437,5.3807,5.4081,5.4513,5.506,5.5721,5.5781,5.6024,5.6633,5.726,5.7555,5.7489,5.7758,5.7719,5.7305,5.6978,5.6805,5.6805,5.6805,5.6805,5.6805,5.6805,5.6805,5.6805,5.6805,5.6805,2.0299,2.027,2.0414,2.1232,2.2882,2.4422,2.4837,2.6672,2.8291,2.8291,2.8291,2.8291,2.8291,2.834,2.8379,2.8379,2.873,2.9133,2.952,3.025,3.0994,3.1628,3.207,3.243,3.2669,3.2698,3.2698,3.2698,3.2698,3.2698,3.2698,3.2698,3.2729,3.2791,3.2791,3.4186,3.7063,3.911,4.0533,4.1315,4.139,4.1604,4.1964,4.2268,4.2586,4.2878,4.3114,4.3219,4.3219,4.3219,4.3219,4.3219,4.3219,4.3219,4.3219,4.3219,4.3219,4.3219,4.3219,4.4023,4.5162,4.5864,4.6866,4.8027,4.9284,4.9889,5.0179,5.042,5.0714,5.0959,5.0959,5.1405,5.1836,5.1836,5.2283,5.2691,5.2691,5.2691,5.2691,5.2691,5.2691,5.2691,5.2691,5.2691,5.2713,5.2765,5.3496,5.4023,5.4103,5.4555,5.523,5.6202,5.63,5.6575,5.7243,5.7796,5.8121,5.8209,5.8101,5.8064,5.8064,5.7426,5.7098,5.7098,5.7098,5.7098,5.7098,5.7098,5.7098,5.7098,5.7098,5.7098,2.0213,2.0097,2.0357,2.222,2.3491,2.4616,2.5908,2.7295,2.8291,2.8291,2.8291,2.8291,2.8291,2.8574,2.8809,2.8809,2.918,2.9692,3.0384,3.0807,3.1321,3.2085,3.2446,3.2641,3.2698,3.2698,3.2698,3.2698,3.2698,3.2698,3.2698,3.2698,3.2892,3.3283,3.3265,3.4658,3.7535,3.7968,3.9236,4.1327,4.1806,4.2319,4.2806,4.3347,4.3852,4.434,4.438,4.4407,4.4407,4.4407,4.4407,4.4407,4.4407,4.4407,4.4407,4.4407,4.4407,4.4407,4.4407,4.5709,4.7262,4.6402,4.6866,4.8065,4.9501,5.0348,5.0908,5.1352,5.1884,5.2359,5.2359,5.2452,5.2544,5.2544,5.2637,5.2691,5.2691,5.2691,5.2691,5.2691,5.2691,5.2691,5.2691,5.2691,5.2833,5.3217,5.3415,5.3661,5.4044,5.4806,5.5556,5.6221,5.63,5.6748,5.785,5.8031,5.8316,5.8806,5.8823,5.8806,5.8806,5.8685,5.8616,5.8616,5.8616,5.8616,5.8616,5.8616,5.8616,5.8616,5.8616,5.8616,2.027,2.0075,2.0155,2.1666,2.3191,2.4505,2.537,2.6979,2.8291,2.8291,2.8291,2.8291,2.8291,2.8633,2.8889,2.8889,2.9473,3.014,3.0821,3.1239,3.1718,3.241,3.2612,3.2698,3.2698,3.2698,3.2698,3.2698,3.2698,3.2698,3.2698,3.2944,3.3275,3.375,3.4336,3.578,3.8091,3.8729,4.0122,4.2195,4.2612,4.3041,4.3489,4.3896,4.4313,4.4695,4.4695,4.4695,4.4695,4.4695,4.4695,4.4695,4.4695,4.4695,4.4695,4.4695,4.4695,4.4695,4.4695,4.615,4.7906,4.7291,4.8307,4.9965,5.091,5.1408,5.1758,5.211,5.2467,5.2691,5.2691,5.2691,5.2691,5.2691,5.2691,5.2691,5.2691,5.2691,5.2691,5.2691,5.2691,5.2691,5.2691,5.29,5.3129,5.3371,5.3813,5.42,5.4428,5.5291,5.6024,5.6403,5.6462,5.7036,5.8457,5.8562,5.8685,5.8978,5.8995,5.8995,5.8995,5.8995,5.8995,5.8995,5.8995,5.8995,5.8995,5.8995,5.8995,5.8995,5.8995,5.8995,2.0184,2.004,2.0104,2.0881,2.2741,2.445,2.4635,2.6563,2.8291,2.8291,2.8291,2.832,2.8408,2.8769,2.9092,2.9152,2.9844,3.0552,3.1065,3.1509,3.1999,3.2555,3.2669,3.2698,3.2698,3.2698,3.2698,3.2698,3.2791,3.2843,3.2843,3.3285,3.3878,3.4603,3.5507,3.6972,3.9053,3.9981,4.1354,4.3085,4.3283,4.36,4.401,4.4216,4.4436,4.4695,4.4695,4.4695,4.4695,4.4695,4.4695,4.4695,4.4695,4.4695,4.4695,4.4695,4.4695,4.4695,4.4695,4.615,4.803,4.8117,4.9713,5.168,5.2117,5.2261,5.2352,5.2608,5.2691,5.2691,5.2691,5.2691,5.2691,5.2691,5.2691,5.2691,5.2691,5.2691,5.2691,5.2691,5.2691,5.2691,5.2691,5.3084,5.3399,5.3399,5.4114,5.4702,5.4832,5.5523,5.6208,5.6737,5.687,5.7487,5.8875,5.8995,5.8995,5.8995,5.8995,5.8995,5.8995,5.8995,5.8995,5.8995,5.8995,5.8995,5.8995,5.8995,5.8995,5.8995,5.8995,5.8995,1.9786,2.004,2.0328,2.0666,2.2725,2.4671,2.4691,2.6563,2.8291,2.8291,2.8291,2.8408,2.8762,2.9219,2.9667,3.0019,3.0498,3.0937,3.1236,3.1584,3.1932,3.2287,3.2545,3.2698,3.2698,3.2698,3.2698,3.2698,3.3089,3.3346,3.3346,3.3781,3.4762,3.6337,3.6466,3.7913,4.0844,4.0971,4.1793,4.3366,4.3394,4.371,4.4258,4.4285,4.4436,4.4695,4.4695,4.4695,4.4695,4.4695,4.4695,4.4695,4.4695,4.4695,4.4695,4.4695,4.4695,4.4695,4.4695,4.615,4.8066,4.85,4.9988,5.1657,5.1926,5.2155,5.2352,5.2608,5.2691,5.2691,5.2691,5.2691,5.2691,5.2691,5.2691,5.2691,5.2691,5.2691,5.2691,5.2691,5.2691,5.2691,5.2691,5.3084,5.3399,5.3399,5.385,5.437,5.4913,5.5062,5.57,5.7249,5.7742,5.8245,5.8944,5.8995,5.8995,5.8995,5.8995,5.8995,5.8995,5.8995,5.8995,5.8995,5.8995,5.8995,5.8995,5.8995,5.8995,5.8995,5.8995,5.8995,1.9758,2.004,2.0357,2.063,2.2204,2.3855,2.4533,2.6009,2.7413,2.8147,2.8291,2.8418,2.8838,2.9277,2.9735,3.0127,3.0586,3.0995,3.1276,3.1412,3.1701,3.2248,3.2402,3.2516,3.2669,3.2698,3.2812,3.3099,3.3822,3.4236,3.4236,3.4413,3.4955,3.585,3.6626,3.7978,3.9949,4.0714,4.187,4.3394,4.3613,4.3901,4.4313,4.4463,4.4599,4.4695,4.4695,4.4695,4.4695,4.4695,4.4695,4.4695,4.4695,4.4695,4.4695,4.4695,4.4695,4.4749,4.5113,4.6557,4.8332,4.8841,5.0377,5.2056,5.2337,5.2488,5.2563,5.2669,5.2691,5.2691,5.2691,5.2691,5.2691,5.2691,5.2691,5.2691,5.2691,5.2691,5.2691,5.2691,5.2691,5.2691,5.2691,5.3084,5.3399,5.3399,5.4263,5.4978,5.5213,5.6126,5.6996,5.7666,5.7741,5.8068,5.8927,5.8995,5.8995,5.8995,5.8995,5.8995,5.8995,5.8995,5.8995,5.8995,5.8995,5.8995,5.8995,5.8995,5.8995,5.8995,5.8995,5.8995,1.9786,2.004,2.0357,2.063,2.1851,2.3199,2.4014,2.5378,2.6744,2.7601,2.804,2.8418,2.8838,2.9277,2.9735,3.0127,3.0586,3.0976,3.117,3.1247,3.1469,3.196,3.219,3.2363,3.2555,3.2783,3.3161,3.377,3.4423,3.4848,3.4972,3.4993,3.5453,3.6481,3.7749,3.9057,4.0309,4.1215,4.2291,4.3545,4.3776,4.4079,4.4422,4.4599,4.4695,4.4695,4.4695,4.4695,4.4695,4.4695,4.4695,4.4695,4.4695,4.4695,4.4695,4.4695,4.4803,4.5032,4.5462,4.6921,4.872,4.9166,5.0677,5.2352,5.2608,5.2691,5.2691,5.2691,5.2691,5.2691,5.2691,5.2691,5.2691,5.2691,5.2691,5.2691,5.2691,5.2691,5.2691,5.2691,5.2691,5.2691,5.2691,5.3195,5.364,5.3776,5.4863,5.5777,5.6096,5.72,5.8045,5.8207,5.8066,5.8246,5.8944,5.8995,5.8995,5.8995,5.8995,5.8995,5.8995,5.8995,5.8995,5.8995,5.8995,5.8995,5.8995,5.8995,5.8995,5.8995,5.8995,5.8995,1.9729,2.004,2.0357,2.063,2.1851,2.3002,2.3002,2.4836,2.65,2.6527,2.7466,2.8418,2.8838,2.9277,2.9735,3.0127,3.0586,3.0889,3.0889,3.1141,3.1296,3.1296,3.1903,3.2305,3.2305,3.2965,3.3781,3.4713,3.4786,3.4982,3.5356,3.5387,3.6542,3.9069,4.0396,4.1684,4.2946,4.2974,4.3293,4.3899,4.3899,4.4189,4.4695,4.4695,4.4695,4.4695,4.4695,4.4695,4.4695,4.4695,4.4695,4.4695,4.4695,4.4695,4.4695,4.4695,4.5086,4.5595,4.5595,4.7179,4.9229,4.9508,5.0804,5.2352,5.2608,5.2691,5.2691,5.2691,5.2691,5.2691,5.2691,5.2691,5.2691,5.2691,5.2691,5.2691,5.2691,5.2691,5.2691,5.2691,5.2691,5.2691,5.2691,5.3474,5.4221,5.4633,5.5608,5.6669,5.7753,5.8011,5.8334,5.8909,5.8995,5.8995,5.8995,5.8995,5.8995,5.8995,5.8995,5.8995,5.8995,5.8995,5.8995,5.8995,5.8995,5.8995,5.8995,5.8995,5.8995,5.8995,5.8995,5.8995,1.9511,1.9735,1.9989,2.0068,2.0745,2.1652,2.2467,2.4014,2.5507,2.6327,2.7466,2.8418,2.8838,2.9277,2.9735,3.0127,3.0586,3.0889,3.0889,3.1141,3.1383,3.1614,3.2201,3.2697,3.3025,3.3556,3.4133,3.4744,3.5045,3.5273,3.5387,3.6247,3.6653,3.6603,3.7839,3.9116,4.0396,4.146,4.2616,4.3899,4.4079,4.4367,4.4695,4.4695,4.4695,4.4695,4.4695,4.4695,4.4695,4.4695,4.4695,4.4695,4.4695,4.4695,4.4762,4.5167,4.5435,4.5702,4.6508,4.796,4.9557,5.0008,5.1248,5.2586,5.2669,5.2691,5.2691,5.2691,5.2691,5.2691,5.2691,5.2691,5.2691,5.2691,5.2691,5.2691,5.2691,5.2691,5.2691,5.2691,5.2691,5.2788,5.3106,5.3766,5.4396,5.4835,5.6054,5.7034,5.7389,5.81,5.8649,5.884,5.8944,5.8995,5.8995,5.8995,5.8995,5.8995,5.8995,5.8995,5.8995,5.8995,5.8995,5.8995,5.8995,5.8995,5.8995,5.8995,5.8995,5.8995,5.8995,5.8995,1.9511,1.9671,1.9844,2.0068,2.0436,2.106,2.2382,2.3735,2.5031,2.6245,2.7466,2.8369,2.8633,2.917,2.9686,2.9912,3.0478,3.0947,3.1025,3.1189,3.1469,3.1932,3.2315,3.2849,3.3575,3.3926,3.4361,3.4993,3.5262,3.5387,3.5387,3.6155,3.645,3.6125,3.7809,3.9116,3.9902,4.1448,4.2784,4.3899,4.4161,4.4436,4.4695,4.4695,4.4695,4.4695,4.4695,4.4695,0.0,4.4695,4.4695,4.4695,4.4695,4.4695,4.4789,4.5381,4.5728,4.6047,4.6977,4.8453,4.996,5.0287,5.1426,5.2691,5.2691,5.2691,5.2691,5.2691,5.2691,5.2691,5.2691,5.2691,5.2691,5.2691,5.2691,5.2691,5.2691,5.2691,5.2691,5.2691,5.2691,5.2906,5.3614,5.4205,5.4865,5.57,5.6811,5.7594,5.7776,5.8438,5.8875,5.8875,5.8961,5.8995,5.8995,5.8995,5.8995,5.8995,5.8995,5.8995,5.8995,5.8995,5.8995,5.8995,5.8995,5.8995,5.8995,5.8995,5.8995,5.8995,5.8995,5.8995,0.0,1.9758,1.9895,2.0493,2.0658,2.106,2.2503,2.3791,0.0,2.6127,2.7413,2.8291,2.8291,2.9021,2.9598,2.9598,3.0341,3.0995,3.1276,3.1325,3.1624,3.2299,3.2354,3.2818,3.4031,3.4112,3.4475,3.5325,3.5387,3.5387,3.5387,3.5387,3.5951,3.7127,3.9557,4.0916,4.11,4.256,4.3489,4.3899,4.4189,4.4463,4.4695,4.4695,4.4695,4.4695,4.4695,4.4695,4.4695,4.4695,4.4695,4.4695,4.4695,4.4735,4.4843,4.5435,4.6007,4.6533,4.7159,4.8678,5.0421,5.0517,5.1534,5.2691,5.2691,5.2691,5.2691,5.2691,5.2691,5.2691,5.2691,5.2691,5.2691,5.2691,5.2691,5.2691,5.2691,5.2691,5.2691,5.2691,5.2691,5.3047,5.4131,5.4736,5.5555,5.7017,5.7759,5.8315,5.8736,5.8909,5.8995,5.8978,5.8995,5.8995,5.8995,5.8995,5.8995,5.8995,5.8995,5.8995,5.8995,5.8995,5.8995,5.8995,5.8995,5.8995,5.8995,5.8995,5.8995,5.8995,5.8995,5.8995,1.9482,0.0,1.9591,1.9931,2.0213,2.0551,0.0,2.3027,2.4774,2.5058,2.6816,2.8291,2.8291,2.9021,2.9598,2.9598,3.0341,3.0995,3.1276,3.173,3.2323,3.3066,3.2808,3.3136,3.4506,3.4309,3.4475,3.5325,3.5387,3.5387,3.5387,3.5387,3.5541,3.5839,3.7369,3.9134,4.1071,4.1931,4.2868,4.3899,4.4395,4.4654,4.4695,4.4695,4.4695,4.4695,4.4695,4.4695,4.4695,4.4695,4.4695,4.4695,4.4695,4.4978,4.5462,4.6007,4.6573,4.7159,4.7712,4.899,5.0588,5.1765,5.239,5.2691,5.2691,5.2691,5.2691,5.2691,5.2691,5.2691,5.2691,5.2691,5.2691,5.2691,5.2691,5.2691,5.2691,5.2691,5.2691,5.2691,5.2691,5.3106,5.4391,5.5215,5.61,5.7331,5.8243,5.8736,5.8596,5.8823,5.8961,5.8858,5.8944,5.8995,5.8995,5.8995,5.8995,5.8995,5.8995,5.8995,5.8995,5.8995,5.8995,5.8995,5.8995,5.8995,5.8995,5.8995,5.8995,5.8995,5.8995,5.8995,1.9395,1.9395,1.9453,1.9729,2.004,2.0529,2.1338,2.3175,2.4699,2.4699,2.6617,2.8121,2.7574,2.8655,2.9598,2.9598,3.0417,3.1189,3.1498,3.1845,3.2282,3.2835,3.266,3.3027,3.4361,3.4247,3.4475,3.5325,3.5387,3.5387,3.5387,3.5387,3.5654,3.6237,3.6946,3.8108,3.9814,4.1264,4.2479,4.3447,4.43,4.4695,4.4695,4.4695,4.4695,4.4695,4.4695,4.4695,4.4695,4.4695,4.4695,4.4735,4.4992,4.5301,4.5702,4.652,4.7029,4.7379,4.7917,4.9114,5.0659,5.2208,5.2691,5.2691,5.2691,5.2691,5.2691,5.2691,5.2691,5.2691,5.2691,5.2691,5.2691,5.2691,5.2691,5.2691,5.2691,5.2691,5.2691,5.2691,5.3024,5.3707,5.501,5.5942,5.6889,5.8065,5.8667,5.8927,5.8754,5.8892,5.8961,5.8892,5.8961,5.8995,5.8995,5.8995,5.8995,5.8995,5.8995,5.8995,5.8995,5.8995,5.8995,5.8995,5.8995,5.8995,5.8995,5.8995,5.8995,5.8995,5.8995,5.8995,1.9395,1.9424,1.9511,1.9729,2.004,2.0637,2.1928,2.3371,2.445,2.445,2.6345,2.7728,2.6773,2.8243,2.9618,2.9686,3.0656,3.1498,3.1816,3.1903,3.2077,3.2436,3.2404,3.2839,3.4082,3.4143,3.4475,3.5325,3.5387,3.5387,3.5387,3.5387,3.589,3.6976,3.7006,3.738,3.8153,4.0707,4.227,4.2784,4.4082,4.4695,4.4695,4.4695,4.4695,4.4695,4.4695,4.4695,4.4695,4.4695,4.4695,4.4749,4.5274,4.5569,4.5835,4.6821,4.7276,4.7533,4.8207,4.9311,5.0659,5.2208,5.2691,5.2691,5.2691,5.2691,5.2691,5.2691,5.2691,5.2691,5.2691,5.2691,5.2691,5.2691,5.2691,5.2691,5.2691,5.2691,5.2713,5.2788,5.3477,5.4448,5.5727,5.6679,5.7631,5.8754,5.8961,5.8978,5.8927,5.8961,5.8995,5.8961,5.8978,5.8995,5.8995,5.8995,5.8995,5.8995,5.8995,5.8995,5.8995,5.8995,5.8995,5.8995,5.8995,5.8995,5.8995,5.8995,5.8995,5.8995,5.8995,5.8995,1.9395,1.9562,1.9758,1.9786,2.004,2.0414,2.0859,2.2155,2.3247,2.3247,2.5139,2.6855,2.7059,2.847,2.9715,3.0039,3.1016,3.1845,3.219,3.243,3.2718,3.3176,3.2868,3.3176,3.4558,3.433,3.4475,3.5325,3.5387,3.5387,3.5387,3.5387,3.5479,3.5685,3.5685,3.6299,3.7525,4.0505,4.206,4.2144,4.3865,4.4695,4.4695,4.4695,4.4695,4.4695,4.4695,4.4695,4.4695,4.4695,4.4695,4.4695,4.4803,4.5422,4.6297,4.648,4.7145,4.8182,4.9566,5.0206,5.0659,5.2208,5.2691,5.2691,5.2691,5.2691,5.2691,5.2691,5.2691,5.2691,5.2691,5.2691,5.2691,5.2691,5.2691,5.2691,5.2691,5.2691,5.281,5.3217,5.3815,5.4678,5.6011,5.6925,5.7706,5.8456,5.8823,5.8909,5.8614,5.8806,5.8961,5.884,5.8927,5.8995,5.8995,5.8995,5.8995,5.8995,5.8995,5.8995,5.8995,5.8995,5.8995,5.8995,5.8995,5.8995,5.8995,5.8995,5.8995,5.8995,5.8995,5.8995,1.9395,1.9482,1.962,1.9758,2.0155,2.0723,2.1509,2.2846,2.3743,2.3143,2.5387,2.7237,2.6381,2.8089,2.9926,3.0908,3.134,3.1701,3.2219,3.2258,3.2358,3.2765,3.2611,3.2987,3.4309,3.4226,3.4475,3.5325,3.5387,3.5387,3.5387,3.5387,3.5387,3.5387,3.5387,3.588,3.6839,3.9075,4.081,4.2028,4.3837,4.4695,4.4695,4.4695,4.4695,4.4695,4.4695,4.4695,4.4695,4.4695,4.4695,4.4749,4.5395,4.594,4.648,4.7093,4.7647,4.8308,4.9883,5.0397,5.0659,5.2208,5.2691,5.2691,5.2691,5.2691,5.2691,5.2691,5.2691,5.2691,5.2691,5.2691,5.2691,5.2691,5.2691,5.2691,5.2691,5.2691,5.2758,5.2989,5.3831,5.4861,5.5899,5.6982,5.7957,5.8667,5.8892,5.8944,5.8788,5.8892,5.8995,5.8909,5.8961,5.8995,5.8995,5.8995,5.8995,5.8995,5.8995,5.8995,5.8995,5.8995,5.8995,5.8995,5.8995,5.8995,5.8995,5.8995,5.8995,5.8995,5.8995,5.8995,1.9395,1.9453,1.9533,1.9758,2.0213,2.0945,2.2212,2.3427,2.415,2.367,2.5942,2.7624,2.633,2.8201,3.0296,3.1475,3.1527,3.1614,3.2219,3.2143,3.2114,3.2373,3.2402,3.2837,3.3979,3.4102,3.4475,3.5325,3.5387,3.5387,3.5387,3.5387,3.5387,3.5387,3.5387,3.5788,3.6637,3.8238,3.9954,4.1814,4.3575,4.4505,4.4695,4.4695,4.4695,4.4695,4.4695,4.4695,4.4695,4.4695,4.4695,4.4776,4.5662,4.6152,4.6533,4.7673,4.8221,4.857,4.9917,5.0517,5.0896,5.2253,5.2691,5.2691,5.2691,5.2691,5.2691,5.2691,5.2691,5.2691,5.2691,5.2691,5.2691,5.2691,5.2691,5.2691,5.2691,5.2691,5.2736,5.2833,5.396,5.5128,5.5863,5.7168,5.8296,5.8875,5.8978,5.8995,5.8995,5.8995,5.8995,5.8995,5.8995,5.8995,5.8995,5.8995,5.8995,5.8995,5.8995,5.8995,5.8995,5.8995,5.8995,5.8995,5.8995,5.8995,5.8995,5.8995,5.8995,5.8995,5.8806,5.8737,1.9395,1.9591,1.9786,1.9815,2.0068,2.0723,2.2184,2.2833,2.3513,2.4933,2.6324,2.7465,2.8057,2.9621,3.0927,3.1296,3.1585,3.1874,3.2248,3.2498,3.2641,3.2669,3.2669,3.305,3.4009,3.4102,3.4475,3.5325,3.5387,3.5387,3.5387,3.5387,3.5387,3.5387,3.5387,3.6034,3.7325,3.9105,4.0378,4.1174,4.2756,4.3918,4.4695,4.4695,4.4695,4.4695,4.4695,4.4695,4.4695,4.4695,4.4695,4.4695,4.4776,4.5475,4.6533,4.7673,4.857,4.9336,5.011,5.0887,5.1642,5.245,5.2691,5.2691,5.2691,5.2691,5.2691,5.2691,5.2691,5.2691,5.2691,5.2691,5.2691,5.2691,5.2691,5.2691,5.2691,5.2691,5.2848,5.3283,5.4527,5.57,5.6185,5.7646,5.8753,5.8805,5.8909,5.8995,5.8995,5.8995,5.8995,5.8995,5.8995,5.8995,5.8995,5.8995,5.8995,5.8995,5.8995,5.8995,5.8995,5.8995,5.8995,5.8995,5.8995,5.8995,5.8995,5.8995,5.8995,5.8978,5.8289,5.7978,1.9395,1.9591,1.9815,1.9815,2.004,2.0694,2.2155,2.3183,2.384,2.3876,2.6246,2.8534,2.9365,3.0277,3.0995,3.1276,3.1585,3.1903,3.2248,3.2516,3.2698,3.2698,3.2698,3.3078,3.4009,3.4102,3.4475,3.5325,3.5387,3.5387,3.5387,3.5387,3.5387,3.5387,3.5798,3.6473,3.7374,3.9021,4.0442,4.1672,4.3396,4.4369,4.4695,4.4695,4.4695,4.4695,4.4695,4.4695,4.4695,4.4695,4.4695,4.4776,4.5475,4.6454,4.7519,4.7942,4.8595,4.941,5.0134,5.0934,5.1726,5.245,5.2691,5.2691,5.2691,5.2691,5.2691,5.2691,5.2691,5.2691,5.2691,5.2691,5.2691,5.2691,5.2691,5.2691,5.2691,5.2691,5.2906,5.3636,5.4459,5.5434,5.6655,5.7517,5.8224,5.8718,5.884,5.8875,5.8875,5.8961,5.8995,5.8995,5.8995,5.8995,5.8995,5.8995,5.8995,5.8995,5.8995,5.8995,5.8995,5.8995,5.8995,5.8995,5.8995,5.8995,5.8995,5.8995,5.8754,5.8323,5.803,5.765,1.954,1.9649,1.9844,1.9931,2.004,2.0465,2.1652,2.2961,2.3997,2.4431,2.7175,2.9717,3.0303,3.0674,3.0976,3.1131,3.145,3.1759,3.2104,3.2402,3.2612,3.2708,3.2698,3.3078,3.4009,3.4102,3.4475,3.5325,3.5387,3.5387,3.5387,3.5387,3.5387,3.5387,3.6044,3.6717,3.7404,3.9221,4.0784,4.2012,4.3823,4.4695,4.4695,4.4695,4.4695,4.4695,4.4695,4.4695,4.4695,4.4695,4.4803,4.5113,4.6244,4.7145,4.7866,4.8044,4.877,4.9713,5.023,5.1075,5.2025,5.2556,5.2691,5.2691,5.2691,5.2691,5.2691,5.2691,5.2691,5.2691,5.2691,5.2691,5.2691,5.2691,5.2691,5.2691,5.2691,5.2906,5.3296,5.3885,5.471,5.5692,5.6904,5.7536,5.8098,5.8718,5.884,5.8858,5.8858,5.8944,5.8995,5.8995,5.8995,5.8995,5.8995,5.8995,5.8995,5.8995,5.8995,5.8995,5.8995,5.8995,5.8995,5.8995,5.8995,5.8995,5.8995,5.8754,5.8375,5.7892,5.7409,5.6909,1.9815,1.9815,1.9873,2.0213,2.004,1.9953,2.0579,2.1877,2.3903,2.7125,2.9441,3.0889,3.0889,3.0889,3.0889,3.0889,3.1141,3.1412,3.1759,3.2076,3.2402,3.2669,3.2698,3.3078,3.3998,3.4102,3.4475,3.5314,3.5387,3.5387,3.5387,3.5387,3.5387,3.5387,3.6055,3.6717,3.7404,3.9873,4.1415,4.2012,4.3823,4.4695,4.4695,4.4695,4.4695,4.4695,4.4695,4.4695,4.4695,4.4695,4.5046,4.5702,4.6833,4.7288,4.7351,4.7877,4.905,5.0368,5.0383,5.1388,5.266,5.2676,5.2698,5.2698,5.2698,5.2698,5.2698,5.2698,5.2698,5.2698,5.2698,5.2698,5.2676,5.2691,5.2691,5.2691,5.2691,5.3368,5.3976,5.3998,5.5398,5.6652,5.6882,5.7793,5.8561,5.8771,5.8909,5.8995,5.8995,5.8995,5.8995,5.8995,5.8995,5.8995,5.8995,5.8995,5.8995,5.8995,5.8995,5.8995,5.8995,5.8995,5.8995,5.8995,5.8995,5.8995,5.8978,5.8271,5.7892,5.784,5.6306,5.5599,1.9511,1.9815,2.0126,1.9989,2.0184,2.055,2.0973,2.1867,2.362,2.7091,2.8508,2.9485,3.0675,3.0889,3.0889,3.0889,3.1141,3.1325,3.1441,3.1932,3.2344,3.2402,3.2584,3.2926,3.3553,3.3905,3.434,3.4941,3.5242,3.5387,3.5387,3.5387,3.5387,3.5387,3.6493,3.7203,3.7404,4.028,4.1814,4.2012,4.3823,4.4695,4.4695,4.4695,4.4695,4.4695,4.4695,4.4695,4.4696,4.4692,4.5035,4.5556,4.5852,4.6217,4.6619,4.6792,4.7445,4.837,4.8863,4.9709,5.0596,5.1129,5.1282,5.1282,5.1282,5.1282,5.1282,5.1282,5.1282,5.1282,5.1282,5.1282,5.1528,5.2483,5.2691,5.2691,5.2691,5.2906,5.3484,5.4849,5.5543,5.639,5.7974,5.8384,5.8525,5.8578,5.8736,5.8892,5.8978,5.8995,5.8995,5.8995,5.8995,5.8995,5.8995,5.8995,5.8995,5.8995,5.8995,5.8995,5.8995,5.8995,5.8995,5.8995,5.8995,5.8737,5.8236,5.8012,5.734,5.6271,5.5806,5.5323,1.9873,2.0184,2.0443,2.0364,2.0621,2.1024,2.1467,2.2475,2.3974,2.6258,2.7721,2.89,2.9924,3.0548,3.0889,3.0889,3.1025,3.1189,3.1296,3.1759,3.2133,3.2277,3.2555,3.2874,3.3356,3.3822,3.4288,3.4754,3.5169,3.5387,3.5387,3.5387,3.5387,3.5387,3.6707,3.7574,3.7913,4.0414,4.1861,4.2224,4.3434,4.4029,4.4029,4.4278,4.4382,4.4382,4.412,4.4029,4.4056,4.4477,4.4847,4.5177,4.5603,4.5972,4.6293,4.6293,4.6784,4.7498,4.8236,4.8991,4.9723,5.045,5.0697,5.0697,5.0697,5.0697,5.0697,5.0697,5.0697,5.0697,5.0697,5.0697,5.0897,5.1713,5.1913,5.199,5.2252,5.2863,5.3767,5.5312,5.6159,5.7076,5.8544,5.8701,5.8631,5.8684,5.8788,5.8909,5.8978,5.8995,5.8995,5.8995,5.8995,5.8995,5.8995,5.8995,5.8995,5.8995,5.8995,5.8857,5.8564,5.884,5.8857,5.8581,5.8547,5.8202,5.746,5.715,5.6496,5.5599,5.5306,5.4909,2.0551,2.0658,2.078,2.1089,2.1227,2.1426,2.2028,2.3361,2.4591,2.4977,2.7026,2.8772,2.889,2.9903,3.0762,3.0889,3.0889,3.1005,3.1247,3.1556,3.1874,3.2219,3.2487,3.2853,3.3275,3.376,3.4205,3.463,3.5045,3.5263,3.5263,3.5263,3.5263,3.5263,3.6578,3.7641,3.8449,4.0168,4.1458,4.2294,4.2692,4.2945,4.301,4.3559,4.382,4.3794,4.3245,4.2997,4.3088,4.4101,4.4529,4.4629,4.5696,4.6125,4.6125,4.6125,4.6565,4.723,4.8037,4.8767,4.9453,5.0244,5.0497,5.0497,5.0497,5.0497,5.0497,5.0497,5.0497,5.0497,5.0497,5.0497,5.0497,5.0497,5.0605,5.0867,5.1482,5.2865,5.4244,5.5237,5.6706,5.7967,5.8513,5.8617,5.8651,5.8789,5.884,5.8875,5.8892,5.8961,5.8995,5.8995,5.8944,5.8892,5.8892,5.884,5.8788,5.8788,5.8788,5.8495,5.784,5.8512,5.8547,5.7823,5.7805,5.7443,5.6684,5.5961,5.5565,5.5478,5.4806,5.4496,1.9982,2.0349,2.0723,2.078,2.1394,2.2079,2.2413,2.2967,2.3661,2.4533,2.6156,2.7697,2.8712,2.9137,2.9658,3.0733,3.0889,3.0918,3.0976,3.1218,3.1527,3.1874,3.219,3.25,3.2832,3.3265,3.3594,3.3698,3.4133,3.4392,3.4392,3.4392,3.4392,3.4392,3.5572,3.6297,3.6491,3.8577,4.0037,4.0874,4.1663,4.2381,4.2997,4.3114,4.3206,4.3206,4.3049,4.2997,4.3062,4.3646,4.388,4.3938,4.4582,4.4818,4.4818,4.4818,4.4898,4.5222,4.6493,4.7015,4.7383,4.8635,4.9066,4.9066,4.9066,4.9066,4.9066,4.9066,4.9066,4.9066,4.9066,4.9066,4.9066,4.9066,4.9897,5.0728,5.0882,5.1206,5.1999,5.3763,5.4415,5.5214,5.6918,5.7238,5.7238,5.7271,5.7619,5.7964,5.8133,5.8633,5.8995,5.8995,5.8478,5.815,5.815,5.7616,5.7271,5.7271,5.7271,5.7202,5.7047,5.7754,5.7788,5.7047,5.7047,5.665,5.5858,5.5685,5.5306,5.472,5.4565,5.4496,2.0148,2.0465,2.0823,2.1285,2.1911,2.2476,2.2784,2.2957,2.3261,2.3783,2.5063,2.6277,2.6966,2.8077,2.9137,2.9844,3.0489,3.0889,3.0889,3.1141,3.1412,3.1759,3.2104,3.2402,3.2669,3.312,3.3408,3.3408,3.3832,3.4102,3.4102,3.4102,3.4102,3.4102,3.5261,3.6327,3.7172,3.8234,3.941,4.0652,4.0863,4.1414,4.2187,4.2487,4.2461,4.2187,4.2187,4.2187,4.2224,4.3013,4.3321,4.3392,4.4123,4.4387,4.4387,4.4387,4.4387,4.4607,4.6018,4.6491,4.6733,4.8151,4.8599,4.8599,4.8599,4.8599,4.8599,4.8599,4.8599,4.8599,4.8599,4.8599,4.8599,4.8599,4.9153,4.9789,5.0128,5.0551,5.1395,5.3253,5.399,5.4819,5.6387,5.6739,5.6805,5.6805,5.7033,5.724,5.7358,5.7719,5.7961,5.7961,5.7598,5.7374,5.7374,5.7012,5.6805,5.6805,5.6805,5.6633,5.6253,5.6582,5.6616,5.622,5.6236,5.5857,5.5065,5.5065,5.4875,5.4512,5.4805,5.4942,2.0407,2.0673,2.101,2.2036,2.244,2.268,2.3032,2.3106,2.3106,2.3106,2.3969,2.4826,2.5071,2.6814,2.8385,2.8831,2.9844,3.0645,3.0859,3.1083,3.1354,3.1759,3.2047,3.2344,3.2669,3.3058,3.3265,3.3265,3.3646,3.3864,3.3864,3.3864,3.3903,3.4011,3.5073,3.6434,3.8024,3.7982,3.8826,4.0522,4.0389,4.0669,4.1312,4.1833,4.1755,4.1286,4.1286,4.1286,4.1386,4.2473,4.2911,4.3008,4.4011,4.4387,4.4387,4.4387,4.4387,4.4607,4.6018,4.6491,4.6733,4.8151,4.8599,4.8599,4.8599,4.8599,4.8599,4.8599,4.8599,4.8599,4.8599,4.8599,4.8599,4.8599,4.8599,4.8773,4.9374,5.02,5.1276,5.2821,5.4068,5.514,5.601,5.6293,5.6408,5.6408,5.6512,5.6598,5.6598,5.6719,5.6805,5.6805,5.6684,5.6598,5.6598,5.6477,5.6408,5.6408,5.6408,5.6098,5.5444,5.5409,5.5409,5.5409,5.5409,5.5099,5.4496,5.4496,5.4496,5.4512,5.5,5.5239,1.9902,2.0524,2.137,2.2312,2.2563,2.268,2.3032,2.3106,2.3106,2.3106,2.323,2.372,2.4887,2.537,2.633,2.8525,2.9039,2.9569,3.0733,3.0918,3.117,3.173,3.1845,3.2086,3.2641,3.276,3.2791,3.2791,3.2843,3.2884,3.2884,3.2884,3.3132,3.3646,3.4322,3.5057,3.5806,3.631,3.7402,3.9111,4.0491,4.1186,4.1286,4.1389,4.1389,4.1286,4.1286,4.1286,4.1386,4.2473,4.2911,4.3008,4.4011,4.4387,4.4387,4.4387,4.4387,4.4607,4.6018,4.6491,4.6733,4.8151,4.8599,4.8599,4.8599,4.8599,4.8599,4.8599,4.8599,4.8599,4.8599,4.8599,4.8599,4.8599,4.8599,4.8614,4.8743,4.9425,5.0361,5.1391,5.3071,5.4401,5.4709,5.479,5.4822,5.4822,5.534,5.5754,5.5754,5.6374,5.6805,5.6805,5.6184,5.5754,5.5754,5.5168,5.4822,5.4822,5.4822,5.4754,5.4651,5.4651,5.4651,5.4651,5.4651,5.4615,5.4496,5.4496,5.4496,5.4496,5.4573,5.462,2.0225,2.09,2.1657,2.2414,2.2731,2.2937,2.3076,2.3106,2.3106,2.3106,2.3106,2.3293,2.3876,2.4579,2.5462,2.6581,2.7958,2.9107,2.9687,3.0431,3.1112,3.174,3.1787,3.2028,3.2641,3.2698,3.2698,3.2698,3.2698,3.2698,3.2698,3.2698,3.2812,3.3097,3.4015,3.4858,3.5619,3.653,3.7817,3.9544,4.0275,4.0871,4.1286,4.1286,4.1286,4.1286,4.1286,4.1486,4.182,4.2582,4.3043,4.3365,4.4115,4.4387,4.4387,4.4387,4.4387,4.4607,4.6018,4.6491,4.6733,4.8151,4.8599,4.8599,4.8599,4.8599,4.8599,4.8599,4.8599,4.8599,4.8599,4.8599,4.8599,4.8599,4.8599,4.8599,4.8599,4.9284,5.0306,5.1704,5.3128,5.4143,5.4303,5.4432,5.4496,5.4496,5.4772,5.4978,5.4978,5.5289,5.5512,5.5512,5.5185,5.4978,5.4978,5.4685,5.4496,5.4496,5.4496,5.4496,5.4496,5.4496,5.4496,5.4496,5.4496,5.4496,5.4496,5.4496,5.4496,5.4527,5.5194,5.5502,2.0538,2.1165,2.1747,2.2422,2.2775,2.3012,2.3082,2.3106,2.3106,2.3106,2.3106,2.3106,2.3106,2.3907,2.4702,2.5041,2.6966,2.8525,2.8861,3.0059,3.1112,3.174,3.1787,3.2028,3.2641,3.2698,3.2698,3.2698,3.2698,3.2698,3.2698,3.2698,3.2755,3.2926,3.3959,3.4886,3.569,3.7126,3.8582,4.0096,4.0313,4.0719,4.1286,4.1286,4.1286,4.1286,4.1286,4.1536,4.1944,4.2484,4.2981,4.3471,4.3983,4.4294,4.4387,4.4387,4.4387,4.4583,4.583,4.6351,4.6711,4.7925,4.8459,4.8599,4.8599,4.8599,4.8599,4.8599,4.8599,4.8599,4.8599,4.8599,4.8599,4.8599,4.8599,4.8708,4.9127,4.9749,5.0729,5.2471,5.3416,5.398,5.4175,5.4319,5.4448,5.4496,5.4496,5.4496,5.4496,5.4496,5.4496,5.4496,5.4496,5.4496,5.4496,5.4496,5.4496,5.4496,5.4496,5.4496,5.4496,5.4496,5.4496,5.4496,5.4496,5.4496,5.4496,5.4496,5.4573,5.4759,5.5661,5.6152,2.0549,2.0971,2.1458,2.2381,2.2598,2.2707,2.3019,2.3106,2.3106,2.3106,2.3106,2.3106,2.3106,2.3168,2.3635,2.4887,2.623,2.752,2.8733,3.0059,3.1112,3.174,3.1787,3.2028,3.2641,3.2698,3.2698,3.2698,3.2698,3.2698,3.2698,3.2698,3.2955,3.354,3.4155,3.4814,3.5422,3.7619,3.9195,4.0096,4.0871,4.1261,4.1286,4.1286,4.1286,4.1286,4.1286,4.1311,4.1386,4.1906,4.246,4.2984,4.3447,4.396,4.4387,4.4387,4.4387,4.4504,4.5276,4.598,4.6623,4.7392,4.8082,4.8599,4.8599,4.8599,4.8599,4.8599,4.8599,4.8599,4.8599,4.8599,4.8599,4.8599,4.8599,4.9041,5.0634,5.1013,5.1537,5.3298,5.3667,5.3833,5.4142,5.4223,5.4287,5.448,5.4496,5.4496,5.4496,5.4496,5.4496,5.4496,5.4496,5.4496,5.4496,5.4496,5.4496,5.4496,5.4496,5.4496,5.4496,5.4496,5.4496,5.4496,5.4496,5.4496,5.4496,5.4496,5.4805,5.534,5.5414,5.5744,2.0546,2.0937,2.1362,2.2097,2.2449,2.2644,2.2762,2.295,2.3106,2.3106,2.3106,2.3106,2.3106,2.3106,2.3261,2.3752,2.491,2.6247,2.7486,2.879,3.007,3.1325,3.1672,3.196,3.2402,3.2612,3.2698,3.2698,3.2698,3.2698,3.2698,3.2698,3.2812,3.3012,3.3987,3.5482,3.7566,3.8386,3.9505,4.0871,4.1161,4.1286,4.1286,4.1286,4.1286,4.1286,4.1286,4.1511,4.187,4.2387,4.2908,4.3399,4.3912,4.4233,4.4387,4.4387,4.4387,4.456,4.5755,4.6307,4.6689,4.7861,4.8396,4.8599,4.8599,4.8599,4.8599,4.8599,4.8599,4.8599,4.8599,4.8599,4.8599,4.8599,4.8599,4.9061,5.0748,5.1107,5.159,5.3247,5.3751,5.3931,5.4045,5.4239,5.4432,5.4496,5.4496,5.4496,5.4496,5.4496,5.4496,5.4496,5.4496,5.4496,5.4496,5.4496,5.4496,5.4496,5.4496,5.4496,5.4496,5.4496,5.4496,5.4496,5.488,5.5076,5.5076,5.5076,5.5402,5.5985,5.6326,5.6607,2.0574,2.0934,2.1299,2.1811,2.2111,2.2324,2.2543,2.2762,2.295,2.3082,2.3106,2.3106,2.3106,2.3106,2.3106,2.3106,2.4247,2.5531,2.6831,2.8086,2.9492,3.1121,3.1585,3.1932,3.2277,3.2555,3.2698,3.2698,3.2698,3.2698,3.2698,3.2698,3.2898,3.3303,3.4071,3.5745,3.8334,3.8372,3.9208,4.0909,4.0909,4.1035,4.1286,4.1286,4.1286,4.1286,4.1286,4.1511,4.1857,4.2215,4.2763,4.3399,4.376,4.4105,4.4387,4.4387,4.4387,4.4537,4.5469,4.6092,4.6645,4.7591,4.8214,4.8599,4.8599,4.8599,4.8599,4.8599,4.8599,4.8599,4.8599,4.8599,4.8599,4.8599,4.8599,4.9061,5.0748,5.1107,5.1588,5.3178,5.3685,5.3866,5.398,5.4175,5.4385,5.448,5.4496,5.4496,5.4496,5.4496,5.4496,5.4496,5.4496,5.4496,5.4496,5.4496,5.4496,5.4496,5.4496,5.4496,5.4496,5.4496,5.4496,5.4496,5.4896,5.5194,5.5399,5.5604,5.5901,5.6317,5.6843,5.7204,0.0,0.0,0.0,2.1513,2.1576,2.1765,2.2418,2.2581,2.2675,2.3012,2.3082,2.3074,2.3106,2.3106,2.3106,2.3106,2.4185,2.5501,2.681,2.8056,2.9462,3.1092,3.1585,3.1932,3.2277,3.2555,3.2698,3.2698,3.2698,3.2698,3.2698,3.2698,3.3247,3.4424,3.448,3.5427,3.7459,3.7459,3.8372,4.0096,4.0096,4.0516,4.1286,4.1286,4.1286,4.1286,4.1286,4.1286,4.1286,4.1311,4.1957,4.2911,4.2911,4.3536,4.4387,4.4387,4.4387,4.4387,4.4434,4.5347,4.6491,4.6535,4.7463,4.8599,4.8599,4.8599,4.8599,4.8599,4.8599,4.8599,4.8599,4.8599,4.8599,4.8599,4.8599,4.9061,5.071,5.1089,5.1588,5.3178,5.3501,5.3618,5.3931,5.3997,5.4127,5.4448,5.4496,5.4496,5.4496,5.4496,5.4496,5.4496,5.4496,5.4496,5.4496,5.4496,5.4496,5.4496,5.4496,5.4496,5.4496,5.4496,5.4496,5.4496,5.4527,5.4803,5.5399,5.5985,5.6289,5.6344,5.6887,5.7449,2.0686,0.0,0.0,0.0,0.0,0.0,2.1828,2.2041,2.2331,2.2668,2.2731,2.2801,2.305,2.3106,2.3106,2.3106,2.3417,2.4425,2.668,2.7315,2.8444,3.0995,3.1585,3.1932,3.2277,3.2555,3.2698,3.2698,3.2698,3.2698,3.2698,3.2698,3.3069,3.3812,3.384,3.4803,3.6819,3.6846,3.794,4.0096,4.0096,4.0516,4.1286,4.1286,4.1286,4.1286,4.1286,4.1286,4.1336,4.1721,4.2289,4.2935,4.3269,4.3818,4.4387,4.4387,4.4387,4.4481,4.5,4.5777,4.6579,4.7118,4.7898,4.8599,4.8599,4.8599,4.8599,4.8599,4.8599,4.8599,4.8599,4.8599,4.8599,4.8599,4.8599,4.8913,4.999,5.0691,5.1588,5.3178,5.3584,5.3717,5.3948,5.4078,5.4223,5.4447,5.4496,5.4496,5.4496,5.4496,5.4496,5.4496,5.4496,5.4496,5.4496,5.4496,5.4496,5.4496,5.4496,5.4496,5.4496,5.4496,5.4496,5.4496,5.4926,5.5224,5.5399,5.5575,5.6065,5.6881,5.7474,5.7832,2.0822,2.0982,2.1109,2.1109,0.0,0.0,2.1734,2.1954,2.2237,2.2707,2.2801,2.2856,2.3074,2.3106,2.3293,2.3845,2.3938,2.4641,2.671,2.7465,2.8662,3.1024,3.1585,3.1932,3.2277,3.2555,3.2698,3.2698,3.2698,3.2698,3.2698,3.2698,3.2983,3.3568,3.384,3.4647,3.61,3.6356,3.7326,3.9026,3.9376,3.9981,4.0795,4.1135,4.1286,4.1286,4.1286,4.1286,4.1311,4.1647,4.2215,4.2935,4.3197,4.376,4.4387,4.4387,4.4387,4.4504,4.523,4.5935,4.6623,4.7349,4.8061,4.8599,4.8599,4.8599,4.8599,4.8599,4.8599,4.8599,4.8599,4.8599,4.8599,4.8599,4.8599,4.8831,4.971,5.0519,5.1496,5.2747,5.3382,5.375,5.3964,5.411,5.4271,5.448,5.4496,5.4496,5.4496,5.4496,5.4496,5.4496,5.4496,5.4496,5.4496,5.4496,5.4496,5.4496,5.4496,5.4496,5.4496,5.4496,5.4496,5.4496,5.5091,5.5531,5.5773,5.5995,5.6581,5.7486,5.7589,5.7785,2.1042,2.1109,2.1109,2.1109,2.1109,0.0,2.1859,2.1985,2.2174,2.2793,2.2926,2.295,2.2988,2.2981,2.3379,2.461,2.5063,2.5707,2.7043,2.8176,2.9521,3.117,3.1614,3.1932,3.2315,3.2555,3.2698,3.2698,3.2698,3.2698,3.2698,3.2698,3.2955,3.3484,3.4015,3.4619,3.5284,3.5817,3.6623,3.7646,3.8413,3.9298,4.0262,4.0972,4.1286,4.1286,4.1286,4.1286,4.1286,4.1286,4.1933,4.2911,4.2911,4.3512,4.4387,4.4387,4.4387,4.4504,4.523,4.5935,4.6623,4.7349,4.8061,4.8599,4.8599,4.8599,4.8599,4.8599,4.8599,4.8599,4.8599,4.8599,4.8599,4.8599,4.8599,4.8811,4.9606,5.0461,5.1313,5.2058,5.3008,5.375,5.3964,5.411,5.4271,5.448,5.4496,5.4496,5.4496,5.4496,5.4496,5.4496,5.4496,5.4496,5.4496,5.4496,5.4496,5.4496,5.4496,5.4496,5.4496,5.4496,5.4543,5.4605,5.5194,5.5787,5.6398,5.6856,5.7382,5.7909,5.7449,5.7582,2.1096,2.1109,2.1109,2.1109,2.1109,0.0,2.1267,2.1299,2.1425,2.1796,2.1891,2.1985,2.2268,2.2299,2.248,2.3005,2.4855,2.6767,2.8316,2.8742,2.961,3.1488,3.1759,3.2028,3.2584,3.2669,3.2698,3.2698,3.2698,3.2698,3.2698,3.2698,3.2755,3.2869,3.3001,3.3575,3.4675,3.4786,3.61,3.8556,3.8713,3.9609,4.1085,4.1236,4.1286,4.1286,4.1286,4.1286,4.1286,4.1286,4.1933,4.2911,4.2911,4.3512,4.4387,4.4387,4.4387,4.4504,4.523,4.5935,4.6623,4.7349,4.8061,4.8599,4.8599,4.8599,4.8599,4.8599,4.8599,4.8599,4.8599,4.8599,4.8599,4.8599,4.8599,4.8661,4.8811,5.0033,5.1182,5.1428,5.2681,5.375,5.3964,5.411,5.4271,5.448,5.4496,5.4496,5.4496,5.4496,5.4496,5.4496,5.4496,5.4496,5.4496,5.4496,5.4496,5.4496,5.4496,5.4496,5.4496,5.4496,5.4728,5.5209,5.5816,5.638,5.6933,5.7053,5.7216,5.7443,5.7802,5.8122,2.1109,2.1109,2.1109,2.1109,2.1109,0.0,0.0,2.1362,2.145,2.1765,2.1859,2.1891,2.208,2.2237,2.2606,2.3464,2.5385,2.7017,2.7847,2.9087,3.0372,3.1643,3.1787,3.2028,3.2641,3.2698,3.2698,3.2698,3.2698,3.2698,3.2698,3.2698,3.2698,3.2698,3.2983,3.3455,3.4054,3.4658,3.5685,3.7111,3.8267,3.9247,4.0083,4.0921,4.1286,4.1286,4.1286,4.1286,4.1286,4.1286,4.1784,4.2509,4.2509,4.297,4.3679,4.3912,4.4007,4.4148,4.5147,4.5935,4.6623,4.7349,4.8061,4.8599,4.8599,4.8599,4.8599,4.8599,4.8599,4.8599,4.8599,4.8599,4.8599,4.8599,4.8599,4.8599,4.8599,4.9915,5.1129,5.1264,5.2681,5.3915,5.4078,5.4239,5.4383,5.448,5.4496,5.4496,5.4496,5.4496,5.4496,5.4496,5.4496,5.4496,5.4496,5.4496,5.4496,5.4496,5.4496,5.4496,5.4496,5.4496,5.4926,5.583,5.6407,5.7015,5.766,5.766,5.7684,5.7755,5.8133,5.8353,2.1109,2.1109,2.1109,2.1109,2.1109,2.1172,0.0,0.0,0.0,2.1859,2.1922,2.1922,2.1922,2.2174,2.2772,2.3839,2.5444,2.6534,2.6557,2.8626,3.045,3.1247,3.1604,3.2028,3.2584,3.2669,3.2698,3.2698,3.2698,3.2698,3.2698,3.2698,3.2698,3.2698,3.3172,3.3484,3.3597,3.4585,3.5256,3.5658,3.7501,3.8596,3.9091,4.0453,4.1161,4.1286,4.1286,4.1286,4.1286,4.1286,4.1547,4.1955,4.2054,4.2435,4.296,4.3423,4.36,4.3814,4.5224,4.6047,4.6645,4.7499,4.8166,4.8599,4.8599,4.8599,4.8599,4.8599,4.8599,4.8599,4.8599,4.8599,4.8599,4.8599,4.8599,4.8661,4.8811,5.0033,5.1185,5.1467,5.2872,5.4045,5.4191,5.4367,5.4496,5.4496,5.4496,5.4496,5.4496,5.4496,5.4496,5.4496,5.4496,5.4496,5.4496,5.4496,5.4496,5.4496,5.4496,5.4496,5.4496,5.4728,5.5311,5.6299,5.6958,5.7618,5.8231,5.8253,5.8264,5.8246,5.8364,5.8454,2.1109,2.1109,2.1109,2.1109,2.1109,2.1109,2.1141,0.0,2.1172,2.1204,0.0,2.1204,2.1204,0.0,0.0,2.1925,2.3579,2.4861,2.4854,2.6348,2.7996,2.9502,3.0937,3.1932,3.2315,3.2555,3.2698,3.2698,3.2698,3.2698,3.2698,3.2698,3.2698,3.2698,3.2765,3.3069,3.3597,3.3738,3.4703,3.6468,3.6727,3.794,3.9968,4.0147,4.0618,4.1286,4.1286,4.1286,4.1286,4.1286,4.1336,4.1436,4.1906,4.2435,4.296,4.3423,4.36,4.3871,4.5734,4.6447,4.6711,4.8046,4.8542,4.8599,4.8599,4.8599,4.8599,4.8599,4.8599,4.8599,4.8599,4.8599,4.8599,4.8599,4.8599,4.8811,4.9586,5.0461,5.1352,5.2207,5.3247,5.4045,5.4191,5.4367,5.4496,5.4496,5.4496,5.4496,5.4496,5.4496,5.4496,5.4496,5.4496,5.4496,5.4496,5.4496,5.4496,5.4496,5.4496,5.4496,5.4496,5.5531,5.6185,5.6376,5.7504,5.8167,5.8371,5.8432,5.8468,5.8468,5.8479,5.8561,2.1109,2.1109,2.1109,2.1109,2.1109,2.1109,2.1109,2.1109,2.1109,2.1109,0.0,0.0,0.0,0.0,0.0,0.0,2.3406,2.4401,2.381,2.5609,2.7306,2.8197,2.9532,3.0908,3.219,3.2555,3.2698,3.2698,3.2698,3.2698,3.2698,3.2698,3.2698,3.2698,3.2698,3.2812,3.3069,3.3438,3.4183,3.5388,3.6224,3.7569,3.935,3.9865,4.0542,4.1286,4.1286,4.1286,4.1286,4.1286,4.1286,4.1311,4.1547,4.1771,4.2067,4.2884,4.3433,4.3975,4.5423,4.6454,4.7306,4.8292,4.8599,4.8599,4.8599,4.8599,4.8599,4.8599,4.8599,4.8599,4.8599,4.8599,4.8599,4.8599,4.8599,4.8831,4.971,5.0519,5.1408,5.2472,5.3382,5.4078,5.4319,5.4431,5.4496,5.4496,5.4496,5.4496,5.4496,5.4496,5.4496,5.4496,5.4496,5.4496,5.4496,5.4496,5.4496,5.4496,5.4819,5.5016,5.5016,5.6148,5.6778,5.6807,5.766,5.8152,5.8275,5.8396,5.8465,5.85,5.8574,5.8646,2.1109,2.1109,2.1109,2.1109,2.1109,2.1109,2.1109,2.1109,2.1109,2.1109,2.1109,0.0,0.0,0.0,2.1675,2.1936,0.0,2.3807,2.3082,2.467,2.6277,2.7246,2.8881,3.0519,3.2018,3.243,3.2584,3.2584,3.2669,3.2698,3.2698,3.2698,3.2698,3.2698,3.2698,3.2698,3.2698,3.3126,3.3643,3.4267,3.5471,3.6792,3.8216,3.9085,3.9944,4.0725,4.0807,4.0816,4.0816,4.0816,4.0816,4.0816,4.0816,4.0816,4.1028,4.2533,4.3433,4.4102,4.5492,4.6799,4.794,4.8438,4.8599,4.8599,4.8599,4.8599,4.8599,4.8599,4.8599,4.8599,4.8599,4.8599,4.8599,4.8599,4.8599,4.8913,4.999,5.0691,5.1482,5.2785,5.355,5.4078,5.4385,5.4447,5.4496,5.4496,5.4496,5.4496,5.4496,5.4496,5.4496,5.4496,5.4496,5.4496,5.4496,5.4496,5.4496,5.4496,5.5061,5.5399,5.5399,5.6483,5.7116,5.7148,5.775,5.8129,5.8271,5.8364,5.8443,5.8511,5.8635,5.8706,2.1109,2.1109,2.1109,2.1109,2.1109,2.1109,2.1109,2.1109,2.1109,2.1109,2.1109,2.1109,2.1109,2.1355,2.1606,2.1612,2.2219,0.0,0.0,2.297,2.4178,2.671,2.953,3.1383,3.1787,3.2104,3.2305,3.2305,3.2545,3.2698,3.2698,3.2698,3.2698,3.2698,3.2698,3.2698,3.2698,3.2737,3.304,3.3653,3.4267,3.5317,3.6703,3.7565,3.8451,3.927,3.9547,3.964,3.964,3.964,3.964,3.964,3.964,3.964,3.9963,4.2603,4.3705,4.4205,4.6388,4.7776,4.8563,4.8599,4.8599,4.8599,4.8599,4.8599,4.8599,4.8599,4.8599,4.8599,4.8599,4.8599,4.8599,4.8599,4.8599,4.9061,5.071,5.1089,5.1608,5.3349,5.3849,5.4045,5.4191,5.4367,5.4496,5.4496,5.4496,5.4496,5.4496,5.4496,5.4496,5.4496,5.4496,5.4496,5.4496,5.4496,5.4496,5.4496,5.5061,5.5399,5.5399,5.6483,5.7166,5.7303,5.789,5.8253,5.8393,5.8465,5.85,5.8511,5.8635,5.8706,2.1109,2.1109,2.1109,2.1109,2.1109,2.1109,2.1109,2.1109,2.1109,2.1109,2.1109,2.1109,2.1109,2.1204,2.1416,2.1877,2.2135,2.2414,0.0,2.4532,2.6012,2.6892,2.8056,2.9492,3.1296,3.196,3.2305,3.2305,3.2555,3.2698,3.2698,3.2698,3.2698,3.2698,3.2698,3.2698,3.2698,3.2698,3.3012,3.3597,3.3491,3.4383,3.6146,3.6687,3.754,3.8724,3.9327,3.9612,3.9612,3.9612,3.9612,3.9612,3.9612,3.9612,3.9747,4.1011,4.2559,4.4424,4.7175,4.8318,4.8599,4.8599,4.8599,4.8599,4.8599,4.8599,4.8599,4.8599,4.8599,4.8599,4.8599,4.8599,4.8599,4.8599,4.8599,4.9061,5.0748,5.1166,5.1758,5.355,5.4029,5.4191,5.4367,5.4464,5.4496,5.4496,5.4496,5.4496,5.4496,5.4496,5.4496,5.4496,5.4496,5.4496,5.4496,5.4496,5.4665,5.5076,5.5661,5.6148,5.6514,5.7284,5.7726,5.7774,5.8054,5.8219,5.8264,5.8414,5.85,5.8511,5.8635,5.8706,2.1109,2.1109,2.1109,2.1109,2.1109,2.1109,2.1109,2.1109,2.1109,2.1109,2.1109,2.1109,2.1109,2.1109,2.1267,2.1828,2.2017,2.2331,0.0,2.454,2.5798,2.6255,2.7735,2.9383,3.1121,3.1787,3.2162,3.2287,3.2555,3.2698,3.2698,3.2698,3.2698,3.2698,3.2698,3.2698,3.2698,3.2543,3.2659,3.3033,3.278,3.3329,3.4603,3.5125,3.61,3.7405,3.8008,3.8556,3.8998,3.8998,3.8998,3.8998,3.8998,3.8998,3.9144,4.0244,4.213,4.4509,4.6955,4.7942,4.8147,4.8209,4.8419,4.8599,4.8599,4.8599,4.8599,4.8599,4.8599,4.8599,4.8599,4.8599,4.8599,4.8599,4.8599,4.898,5.0364,5.096,5.1685,5.3264,5.3864,5.4207,5.4464,5.4496,5.4496,5.4496,5.4496,5.4496,5.4496,5.4496,5.4496,5.4496,5.4496,5.4496,5.4496,5.4496,5.4759,5.5355,5.5971,5.6546,5.7091,5.7672,5.7891,5.7661,5.8016,5.8072,5.7811,5.8266,5.85,5.8511,5.8635,5.8706]}]]